<?xml version="1.0" encoding="UTF-8" standalone="no" ?>
<gpx xmlns="http://www.topografix.com/GPX/1/1" xmlns:xsi="http://www.w3.org/2001/XMLSchema-instance" xsi:schemaLocation="http://www.topografix.com/GPX/1/1 http://www.topografix.com/GPX/1/1/gpx.xsd" version="1.1" creator="VisuGPX - https://www.visugpx.com">
  <metadata>
    <name>Belledonne-Selle du puy Gris en boucle</name>
    <desc><![CDATA[Fenètre météo réduite mais une ancienne trace recouverte de neige fraiche reste visible, sauf par moment. C'est donc à taton dans le brouillard que nous effectuerons la majeure partie de la montée avant de percer le plafond et de casser la croute à la selle du Puy gris, sous le soleil. Descente dans le vallon par un parcours évident. En tirant à droite dans les bois en fin de descente on peut se dépasser le parking situé en amont des Roches et éviter une partie de la marche pour retourner à Valmaure.
Départ : Valmaure, vallée des Villars, retour Le Roches, puis 500 mètres à pied sur la route.
PS. Les accus du GPS ont laché avant l'arrivée, il manque juste la fin de la descente.

Album photo : [url]https://photos.app.goo.gl/hEpGdq9KfjaJKdOZ2[/url]]]></desc>
  </metadata>
  <trk>
    <name><![CDATA[Tracé actuel: 10 FEV 2018 08:26]]></name>
    <trkseg>
      <trkpt lat="45.28372" lon="6.2104">
        <ele>1274.36</ele>
        <time>2018-02-10T07:26:57Z</time>
      </trkpt>
      <trkpt lat="45.28376" lon="6.21046">
        <ele>1274.85</ele>
        <time>2018-02-10T07:27:09Z</time>
      </trkpt>
      <trkpt lat="45.28381" lon="6.21047">
        <ele>1274.36</ele>
        <time>2018-02-10T07:27:33Z</time>
      </trkpt>
      <trkpt lat="45.28377" lon="6.21044">
        <ele>1209.96</ele>
        <time>2018-02-10T07:27:45Z</time>
      </trkpt>
      <trkpt lat="45.28378" lon="6.21045">
        <ele>1209.96</ele>
        <time>2018-02-10T07:27:46Z</time>
      </trkpt>
      <trkpt lat="45.28378" lon="6.21047">
        <ele>1209.96</ele>
        <time>2018-02-10T07:28:02Z</time>
      </trkpt>
      <trkpt lat="45.28376" lon="6.21049">
        <ele>1209.96</ele>
        <time>2018-02-10T07:28:25Z</time>
      </trkpt>
      <trkpt lat="45.28382" lon="6.21055">
        <ele>1209.48</ele>
        <time>2018-02-10T07:28:57Z</time>
      </trkpt>
      <trkpt lat="45.28391" lon="6.21062">
        <ele>1209.96</ele>
        <time>2018-02-10T07:29:22Z</time>
      </trkpt>
      <trkpt lat="45.2839" lon="6.21059">
        <ele>1206.59</ele>
        <time>2018-02-10T07:29:29Z</time>
      </trkpt>
      <trkpt lat="45.2839" lon="6.21059">
        <ele>1206.59</ele>
        <time>2018-02-10T07:29:30Z</time>
      </trkpt>
      <trkpt lat="45.28386" lon="6.21056">
        <ele>1211.4</ele>
        <time>2018-02-10T07:29:31Z</time>
      </trkpt>
      <trkpt lat="45.28386" lon="6.21055">
        <ele>1207.07</ele>
        <time>2018-02-10T07:29:32Z</time>
      </trkpt>
      <trkpt lat="45.28385" lon="6.21056">
        <ele>1201.3</ele>
        <time>2018-02-10T07:29:33Z</time>
      </trkpt>
      <trkpt lat="45.28385" lon="6.21056">
        <ele>1211.88</ele>
        <time>2018-02-10T07:29:34Z</time>
      </trkpt>
      <trkpt lat="45.28385" lon="6.21057">
        <ele>1207.55</ele>
        <time>2018-02-10T07:29:35Z</time>
      </trkpt>
      <trkpt lat="45.28384" lon="6.21059">
        <ele>1212.84</ele>
        <time>2018-02-10T07:29:38Z</time>
      </trkpt>
      <trkpt lat="45.28384" lon="6.21063">
        <ele>1208.51</ele>
        <time>2018-02-10T07:29:41Z</time>
      </trkpt>
      <trkpt lat="45.28387" lon="6.21064">
        <ele>1212.36</ele>
        <time>2018-02-10T07:29:53Z</time>
      </trkpt>
      <trkpt lat="45.28386" lon="6.21057">
        <ele>1210.44</ele>
        <time>2018-02-10T07:29:56Z</time>
      </trkpt>
      <trkpt lat="45.28382" lon="6.21048">
        <ele>1207.07</ele>
        <time>2018-02-10T07:30:05Z</time>
      </trkpt>
      <trkpt lat="45.28382" lon="6.21048">
        <ele>1213.32</ele>
        <time>2018-02-10T07:30:06Z</time>
      </trkpt>
      <trkpt lat="45.28382" lon="6.21048">
        <ele>1210.44</ele>
        <time>2018-02-10T07:30:07Z</time>
      </trkpt>
      <trkpt lat="45.28384" lon="6.21045">
        <ele>1209.96</ele>
        <time>2018-02-10T07:30:23Z</time>
      </trkpt>
      <trkpt lat="45.28382" lon="6.21044">
        <ele>1209.48</ele>
        <time>2018-02-10T07:30:40Z</time>
      </trkpt>
      <trkpt lat="45.28378" lon="6.21045">
        <ele>1209.96</ele>
        <time>2018-02-10T07:30:55Z</time>
      </trkpt>
      <trkpt lat="45.28368" lon="6.21041">
        <ele>1210.44</ele>
        <time>2018-02-10T07:31:10Z</time>
      </trkpt>
      <trkpt lat="45.28362" lon="6.21033">
        <ele>1210.44</ele>
        <time>2018-02-10T07:31:25Z</time>
      </trkpt>
      <trkpt lat="45.28348" lon="6.21028">
        <ele>1209.48</ele>
        <time>2018-02-10T07:31:40Z</time>
      </trkpt>
      <trkpt lat="45.28349" lon="6.2103">
        <ele>1209.48</ele>
        <time>2018-02-10T07:31:53Z</time>
      </trkpt>
      <trkpt lat="45.28342" lon="6.21029">
        <ele>1209</ele>
        <time>2018-02-10T07:32:04Z</time>
      </trkpt>
      <trkpt lat="45.28321" lon="6.21018">
        <ele>1208.03</ele>
        <time>2018-02-10T07:32:24Z</time>
      </trkpt>
      <trkpt lat="45.28303" lon="6.2101">
        <ele>1205.63</ele>
        <time>2018-02-10T07:32:41Z</time>
      </trkpt>
      <trkpt lat="45.283" lon="6.21006">
        <ele>1205.15</ele>
        <time>2018-02-10T07:32:59Z</time>
      </trkpt>
      <trkpt lat="45.28297" lon="6.20991">
        <ele>1204.19</ele>
        <time>2018-02-10T07:33:15Z</time>
      </trkpt>
      <trkpt lat="45.28295" lon="6.20981">
        <ele>1205.63</ele>
        <time>2018-02-10T07:33:27Z</time>
      </trkpt>
      <trkpt lat="45.28297" lon="6.2098">
        <ele>1206.11</ele>
        <time>2018-02-10T07:33:40Z</time>
      </trkpt>
      <trkpt lat="45.28298" lon="6.2098">
        <ele>1206.59</ele>
        <time>2018-02-10T07:34:00Z</time>
      </trkpt>
      <trkpt lat="45.28295" lon="6.20973">
        <ele>1206.59</ele>
        <time>2018-02-10T07:34:21Z</time>
      </trkpt>
      <trkpt lat="45.28297" lon="6.2098">
        <ele>1206.11</ele>
        <time>2018-02-10T07:34:45Z</time>
      </trkpt>
      <trkpt lat="45.28298" lon="6.20982">
        <ele>1206.11</ele>
        <time>2018-02-10T07:35:02Z</time>
      </trkpt>
      <trkpt lat="45.28298" lon="6.20985">
        <ele>1206.11</ele>
        <time>2018-02-10T07:35:23Z</time>
      </trkpt>
      <trkpt lat="45.28301" lon="6.20982">
        <ele>1206.11</ele>
        <time>2018-02-10T07:35:45Z</time>
      </trkpt>
      <trkpt lat="45.28304" lon="6.2098">
        <ele>1207.07</ele>
        <time>2018-02-10T07:35:59Z</time>
      </trkpt>
      <trkpt lat="45.28303" lon="6.20975">
        <ele>1207.55</ele>
        <time>2018-02-10T07:36:03Z</time>
      </trkpt>
      <trkpt lat="45.28305" lon="6.20966">
        <ele>1210.44</ele>
        <time>2018-02-10T07:36:15Z</time>
      </trkpt>
      <trkpt lat="45.28307" lon="6.20957">
        <ele>1212.36</ele>
        <time>2018-02-10T07:36:27Z</time>
      </trkpt>
      <trkpt lat="45.28312" lon="6.20947">
        <ele>1214.28</ele>
        <time>2018-02-10T07:36:42Z</time>
      </trkpt>
      <trkpt lat="45.28318" lon="6.20944">
        <ele>1216.69</ele>
        <time>2018-02-10T07:36:54Z</time>
      </trkpt>
      <trkpt lat="45.28321" lon="6.20933">
        <ele>1220.05</ele>
        <time>2018-02-10T07:37:08Z</time>
      </trkpt>
      <trkpt lat="45.28319" lon="6.20919">
        <ele>1222.93</ele>
        <time>2018-02-10T07:37:23Z</time>
      </trkpt>
      <trkpt lat="45.28321" lon="6.20904">
        <ele>1224.86</ele>
        <time>2018-02-10T07:37:38Z</time>
      </trkpt>
      <trkpt lat="45.28324" lon="6.2089">
        <ele>1226.78</ele>
        <time>2018-02-10T07:37:52Z</time>
      </trkpt>
      <trkpt lat="45.28326" lon="6.20878">
        <ele>1228.7</ele>
        <time>2018-02-10T07:38:04Z</time>
      </trkpt>
      <trkpt lat="45.28327" lon="6.20864">
        <ele>1231.59</ele>
        <time>2018-02-10T07:38:20Z</time>
      </trkpt>
      <trkpt lat="45.28328" lon="6.20853">
        <ele>1233.51</ele>
        <time>2018-02-10T07:38:34Z</time>
      </trkpt>
      <trkpt lat="45.28328" lon="6.20848">
        <ele>1234.95</ele>
        <time>2018-02-10T07:38:41Z</time>
      </trkpt>
      <trkpt lat="45.28337" lon="6.2085">
        <ele>1237.35</ele>
        <time>2018-02-10T07:38:56Z</time>
      </trkpt>
      <trkpt lat="45.2834" lon="6.20843">
        <ele>1239.76</ele>
        <time>2018-02-10T07:39:10Z</time>
      </trkpt>
      <trkpt lat="45.28337" lon="6.20827">
        <ele>1241.2</ele>
        <time>2018-02-10T07:39:25Z</time>
      </trkpt>
      <trkpt lat="45.28333" lon="6.20813">
        <ele>1243.6</ele>
        <time>2018-02-10T07:39:39Z</time>
      </trkpt>
      <trkpt lat="45.28328" lon="6.20794">
        <ele>1246.49</ele>
        <time>2018-02-10T07:39:54Z</time>
      </trkpt>
      <trkpt lat="45.28325" lon="6.20784">
        <ele>1248.41</ele>
        <time>2018-02-10T07:40:07Z</time>
      </trkpt>
      <trkpt lat="45.28323" lon="6.20774">
        <ele>1250.33</ele>
        <time>2018-02-10T07:40:20Z</time>
      </trkpt>
      <trkpt lat="45.28325" lon="6.20766">
        <ele>1252.25</ele>
        <time>2018-02-10T07:40:36Z</time>
      </trkpt>
      <trkpt lat="45.28325" lon="6.20761">
        <ele>1253.22</ele>
        <time>2018-02-10T07:40:50Z</time>
      </trkpt>
      <trkpt lat="45.28322" lon="6.20757">
        <ele>1254.18</ele>
        <time>2018-02-10T07:40:55Z</time>
      </trkpt>
      <trkpt lat="45.28324" lon="6.20753">
        <ele>1256.1</ele>
        <time>2018-02-10T07:41:02Z</time>
      </trkpt>
      <trkpt lat="45.28326" lon="6.20744">
        <ele>1258.02</ele>
        <time>2018-02-10T07:41:16Z</time>
      </trkpt>
      <trkpt lat="45.28323" lon="6.20733">
        <ele>1260.43</ele>
        <time>2018-02-10T07:41:28Z</time>
      </trkpt>
      <trkpt lat="45.28318" lon="6.20721">
        <ele>1262.83</ele>
        <time>2018-02-10T07:41:41Z</time>
      </trkpt>
      <trkpt lat="45.28324" lon="6.20719">
        <ele>1264.75</ele>
        <time>2018-02-10T07:41:54Z</time>
      </trkpt>
      <trkpt lat="45.28334" lon="6.20723">
        <ele>1266.67</ele>
        <time>2018-02-10T07:42:09Z</time>
      </trkpt>
      <trkpt lat="45.28341" lon="6.20718">
        <ele>1268.6</ele>
        <time>2018-02-10T07:42:20Z</time>
      </trkpt>
      <trkpt lat="45.28349" lon="6.20716">
        <ele>1270.52</ele>
        <time>2018-02-10T07:42:31Z</time>
      </trkpt>
      <trkpt lat="45.28351" lon="6.20705">
        <ele>1273.4</ele>
        <time>2018-02-10T07:42:43Z</time>
      </trkpt>
      <trkpt lat="45.28347" lon="6.20693">
        <ele>1275.33</ele>
        <time>2018-02-10T07:42:58Z</time>
      </trkpt>
      <trkpt lat="45.28339" lon="6.2068">
        <ele>1277.73</ele>
        <time>2018-02-10T07:43:13Z</time>
      </trkpt>
      <trkpt lat="45.28335" lon="6.20665">
        <ele>1278.69</ele>
        <time>2018-02-10T07:43:26Z</time>
      </trkpt>
      <trkpt lat="45.28334" lon="6.2065">
        <ele>1280.61</ele>
        <time>2018-02-10T07:43:42Z</time>
      </trkpt>
      <trkpt lat="45.28333" lon="6.20636">
        <ele>1283.02</ele>
        <time>2018-02-10T07:43:55Z</time>
      </trkpt>
      <trkpt lat="45.28337" lon="6.20632">
        <ele>1284.46</ele>
        <time>2018-02-10T07:44:02Z</time>
      </trkpt>
      <trkpt lat="45.28345" lon="6.20644">
        <ele>1286.38</ele>
        <time>2018-02-10T07:44:16Z</time>
      </trkpt>
      <trkpt lat="45.28353" lon="6.20641">
        <ele>1289.27</ele>
        <time>2018-02-10T07:44:31Z</time>
      </trkpt>
      <trkpt lat="45.28358" lon="6.20631">
        <ele>1291.67</ele>
        <time>2018-02-10T07:44:45Z</time>
      </trkpt>
      <trkpt lat="45.28356" lon="6.20619">
        <ele>1293.59</ele>
        <time>2018-02-10T07:44:56Z</time>
      </trkpt>
      <trkpt lat="45.28362" lon="6.20606">
        <ele>1295.99</ele>
        <time>2018-02-10T07:45:10Z</time>
      </trkpt>
      <trkpt lat="45.28366" lon="6.20599">
        <ele>1297.44</ele>
        <time>2018-02-10T07:45:23Z</time>
      </trkpt>
      <trkpt lat="45.28357" lon="6.20591">
        <ele>1297.92</ele>
        <time>2018-02-10T07:45:38Z</time>
      </trkpt>
      <trkpt lat="45.28351" lon="6.20575">
        <ele>1298.4</ele>
        <time>2018-02-10T07:45:52Z</time>
      </trkpt>
      <trkpt lat="45.28345" lon="6.20559">
        <ele>1299.84</ele>
        <time>2018-02-10T07:46:06Z</time>
      </trkpt>
      <trkpt lat="45.28344" lon="6.20556">
        <ele>1299.84</ele>
        <time>2018-02-10T07:46:09Z</time>
      </trkpt>
      <trkpt lat="45.28338" lon="6.20539">
        <ele>1300.8</ele>
        <time>2018-02-10T07:46:22Z</time>
      </trkpt>
      <trkpt lat="45.28336" lon="6.20527">
        <ele>1302.72</ele>
        <time>2018-02-10T07:46:35Z</time>
      </trkpt>
      <trkpt lat="45.28334" lon="6.20511">
        <ele>1304.17</ele>
        <time>2018-02-10T07:46:47Z</time>
      </trkpt>
      <trkpt lat="45.28333" lon="6.20501">
        <ele>1306.57</ele>
        <time>2018-02-10T07:46:58Z</time>
      </trkpt>
      <trkpt lat="45.28329" lon="6.20487">
        <ele>1308.01</ele>
        <time>2018-02-10T07:47:10Z</time>
      </trkpt>
      <trkpt lat="45.28325" lon="6.20476">
        <ele>1310.41</ele>
        <time>2018-02-10T07:47:22Z</time>
      </trkpt>
      <trkpt lat="45.28322" lon="6.20464">
        <ele>1312.34</ele>
        <time>2018-02-10T07:47:35Z</time>
      </trkpt>
      <trkpt lat="45.28321" lon="6.20451">
        <ele>1314.26</ele>
        <time>2018-02-10T07:47:49Z</time>
      </trkpt>
      <trkpt lat="45.28318" lon="6.20437">
        <ele>1315.22</ele>
        <time>2018-02-10T07:48:02Z</time>
      </trkpt>
      <trkpt lat="45.28315" lon="6.20425">
        <ele>1316.66</ele>
        <time>2018-02-10T07:48:14Z</time>
      </trkpt>
      <trkpt lat="45.2831" lon="6.20411">
        <ele>1318.59</ele>
        <time>2018-02-10T07:48:28Z</time>
      </trkpt>
      <trkpt lat="45.28305" lon="6.20395">
        <ele>1320.99</ele>
        <time>2018-02-10T07:48:41Z</time>
      </trkpt>
      <trkpt lat="45.28308" lon="6.20383">
        <ele>1324.35</ele>
        <time>2018-02-10T07:48:55Z</time>
      </trkpt>
      <trkpt lat="45.28315" lon="6.20375">
        <ele>1326.28</ele>
        <time>2018-02-10T07:49:08Z</time>
      </trkpt>
      <trkpt lat="45.28315" lon="6.20368">
        <ele>1327.24</ele>
        <time>2018-02-10T07:49:25Z</time>
      </trkpt>
      <trkpt lat="45.28314" lon="6.20357">
        <ele>1326.76</ele>
        <time>2018-02-10T07:49:39Z</time>
      </trkpt>
      <trkpt lat="45.28312" lon="6.20351">
        <ele>1327.24</ele>
        <time>2018-02-10T07:49:50Z</time>
      </trkpt>
      <trkpt lat="45.28305" lon="6.20352">
        <ele>1329.16</ele>
        <time>2018-02-10T07:50:04Z</time>
      </trkpt>
      <trkpt lat="45.28292" lon="6.20356">
        <ele>1330.6</ele>
        <time>2018-02-10T07:50:18Z</time>
      </trkpt>
      <trkpt lat="45.28286" lon="6.20344">
        <ele>1332.52</ele>
        <time>2018-02-10T07:50:33Z</time>
      </trkpt>
      <trkpt lat="45.28284" lon="6.20335">
        <ele>1333.97</ele>
        <time>2018-02-10T07:50:41Z</time>
      </trkpt>
      <trkpt lat="45.28282" lon="6.20316">
        <ele>1334.93</ele>
        <time>2018-02-10T07:50:55Z</time>
      </trkpt>
      <trkpt lat="45.28276" lon="6.20312">
        <ele>1334.93</ele>
        <time>2018-02-10T07:51:05Z</time>
      </trkpt>
      <trkpt lat="45.28265" lon="6.20316">
        <ele>1336.37</ele>
        <time>2018-02-10T07:51:20Z</time>
      </trkpt>
      <trkpt lat="45.28257" lon="6.20308">
        <ele>1338.29</ele>
        <time>2018-02-10T07:51:33Z</time>
      </trkpt>
      <trkpt lat="45.2825" lon="6.20295">
        <ele>1340.7</ele>
        <time>2018-02-10T07:51:46Z</time>
      </trkpt>
      <trkpt lat="45.28246" lon="6.20281">
        <ele>1341.66</ele>
        <time>2018-02-10T07:52:01Z</time>
      </trkpt>
      <trkpt lat="45.28245" lon="6.2027">
        <ele>1344.54</ele>
        <time>2018-02-10T07:52:13Z</time>
      </trkpt>
      <trkpt lat="45.28241" lon="6.20259">
        <ele>1346.46</ele>
        <time>2018-02-10T07:52:25Z</time>
      </trkpt>
      <trkpt lat="45.28236" lon="6.20246">
        <ele>1349.35</ele>
        <time>2018-02-10T07:52:38Z</time>
      </trkpt>
      <trkpt lat="45.28232" lon="6.20232">
        <ele>1349.83</ele>
        <time>2018-02-10T07:52:51Z</time>
      </trkpt>
      <trkpt lat="45.28227" lon="6.20219">
        <ele>1351.27</ele>
        <time>2018-02-10T07:53:04Z</time>
      </trkpt>
      <trkpt lat="45.28222" lon="6.20209">
        <ele>1352.71</ele>
        <time>2018-02-10T07:53:15Z</time>
      </trkpt>
      <trkpt lat="45.28217" lon="6.20197">
        <ele>1354.63</ele>
        <time>2018-02-10T07:53:29Z</time>
      </trkpt>
      <trkpt lat="45.28214" lon="6.20187">
        <ele>1356.56</ele>
        <time>2018-02-10T07:53:43Z</time>
      </trkpt>
      <trkpt lat="45.2821" lon="6.20175">
        <ele>1358.48</ele>
        <time>2018-02-10T07:53:55Z</time>
      </trkpt>
      <trkpt lat="45.28207" lon="6.20162">
        <ele>1360.88</ele>
        <time>2018-02-10T07:54:08Z</time>
      </trkpt>
      <trkpt lat="45.28204" lon="6.20148">
        <ele>1362.81</ele>
        <time>2018-02-10T07:54:22Z</time>
      </trkpt>
      <trkpt lat="45.28198" lon="6.20138">
        <ele>1364.73</ele>
        <time>2018-02-10T07:54:35Z</time>
      </trkpt>
      <trkpt lat="45.28191" lon="6.2013">
        <ele>1366.17</ele>
        <time>2018-02-10T07:54:49Z</time>
      </trkpt>
      <trkpt lat="45.28183" lon="6.20124">
        <ele>1368.57</ele>
        <time>2018-02-10T07:55:01Z</time>
      </trkpt>
      <trkpt lat="45.28172" lon="6.2012">
        <ele>1370.02</ele>
        <time>2018-02-10T07:55:16Z</time>
      </trkpt>
      <trkpt lat="45.28163" lon="6.20111">
        <ele>1372.9</ele>
        <time>2018-02-10T07:55:30Z</time>
      </trkpt>
      <trkpt lat="45.28157" lon="6.20096">
        <ele>1375.3</ele>
        <time>2018-02-10T07:55:45Z</time>
      </trkpt>
      <trkpt lat="45.28155" lon="6.20087">
        <ele>1377.23</ele>
        <time>2018-02-10T07:55:56Z</time>
      </trkpt>
      <trkpt lat="45.28149" lon="6.20076">
        <ele>1379.15</ele>
        <time>2018-02-10T07:56:11Z</time>
      </trkpt>
      <trkpt lat="45.28143" lon="6.20067">
        <ele>1380.59</ele>
        <time>2018-02-10T07:56:22Z</time>
      </trkpt>
      <trkpt lat="45.28142" lon="6.20064">
        <ele>1382.03</ele>
        <time>2018-02-10T07:56:24Z</time>
      </trkpt>
      <trkpt lat="45.28137" lon="6.20056">
        <ele>1383.47</ele>
        <time>2018-02-10T07:56:36Z</time>
      </trkpt>
      <trkpt lat="45.28133" lon="6.20046">
        <ele>1384.92</ele>
        <time>2018-02-10T07:56:48Z</time>
      </trkpt>
      <trkpt lat="45.2813" lon="6.20036">
        <ele>1386.36</ele>
        <time>2018-02-10T07:56:59Z</time>
      </trkpt>
      <trkpt lat="45.28127" lon="6.20025">
        <ele>1389.24</ele>
        <time>2018-02-10T07:57:15Z</time>
      </trkpt>
      <trkpt lat="45.28127" lon="6.20019">
        <ele>1390.2</ele>
        <time>2018-02-10T07:57:20Z</time>
      </trkpt>
      <trkpt lat="45.28125" lon="6.20007">
        <ele>1392.13</ele>
        <time>2018-02-10T07:57:32Z</time>
      </trkpt>
      <trkpt lat="45.28121" lon="6.19992">
        <ele>1394.53</ele>
        <time>2018-02-10T07:57:46Z</time>
      </trkpt>
      <trkpt lat="45.28119" lon="6.19983">
        <ele>1395.49</ele>
        <time>2018-02-10T07:57:57Z</time>
      </trkpt>
      <trkpt lat="45.28117" lon="6.19971">
        <ele>1396.93</ele>
        <time>2018-02-10T07:58:10Z</time>
      </trkpt>
      <trkpt lat="45.28116" lon="6.19965">
        <ele>1397.89</ele>
        <time>2018-02-10T07:58:16Z</time>
      </trkpt>
      <trkpt lat="45.28115" lon="6.1995">
        <ele>1400.3</ele>
        <time>2018-02-10T07:58:30Z</time>
      </trkpt>
      <trkpt lat="45.28114" lon="6.19936">
        <ele>1401.74</ele>
        <time>2018-02-10T07:58:43Z</time>
      </trkpt>
      <trkpt lat="45.28112" lon="6.19924">
        <ele>1403.18</ele>
        <time>2018-02-10T07:58:56Z</time>
      </trkpt>
      <trkpt lat="45.28114" lon="6.19913">
        <ele>1405.58</ele>
        <time>2018-02-10T07:59:09Z</time>
      </trkpt>
      <trkpt lat="45.28115" lon="6.19901">
        <ele>1407.51</ele>
        <time>2018-02-10T07:59:22Z</time>
      </trkpt>
      <trkpt lat="45.28116" lon="6.19889">
        <ele>1407.99</ele>
        <time>2018-02-10T07:59:34Z</time>
      </trkpt>
      <trkpt lat="45.28118" lon="6.19874">
        <ele>1408.47</ele>
        <time>2018-02-10T07:59:48Z</time>
      </trkpt>
      <trkpt lat="45.28116" lon="6.19863">
        <ele>1409.43</ele>
        <time>2018-02-10T08:00:02Z</time>
      </trkpt>
      <trkpt lat="45.28113" lon="6.19863">
        <ele>1409.91</ele>
        <time>2018-02-10T08:00:13Z</time>
      </trkpt>
      <trkpt lat="45.28109" lon="6.19866">
        <ele>1410.87</ele>
        <time>2018-02-10T08:00:27Z</time>
      </trkpt>
      <trkpt lat="45.28108" lon="6.19867">
        <ele>1410.39</ele>
        <time>2018-02-10T08:00:28Z</time>
      </trkpt>
      <trkpt lat="45.28103" lon="6.19861">
        <ele>1410.39</ele>
        <time>2018-02-10T08:00:36Z</time>
      </trkpt>
      <trkpt lat="45.281" lon="6.19856">
        <ele>1410.87</ele>
        <time>2018-02-10T08:00:41Z</time>
      </trkpt>
      <trkpt lat="45.28094" lon="6.1984">
        <ele>1410.39</ele>
        <time>2018-02-10T08:00:56Z</time>
      </trkpt>
      <trkpt lat="45.28091" lon="6.19823">
        <ele>1410.39</ele>
        <time>2018-02-10T08:01:10Z</time>
      </trkpt>
      <trkpt lat="45.28089" lon="6.19809">
        <ele>1411.35</ele>
        <time>2018-02-10T08:01:20Z</time>
      </trkpt>
      <trkpt lat="45.28087" lon="6.19792">
        <ele>1412.79</ele>
        <time>2018-02-10T08:01:33Z</time>
      </trkpt>
      <trkpt lat="45.28092" lon="6.19778">
        <ele>1412.79</ele>
        <time>2018-02-10T08:01:46Z</time>
      </trkpt>
      <trkpt lat="45.28093" lon="6.19772">
        <ele>1413.28</ele>
        <time>2018-02-10T08:01:51Z</time>
      </trkpt>
      <trkpt lat="45.28091" lon="6.19766">
        <ele>1413.76</ele>
        <time>2018-02-10T08:01:55Z</time>
      </trkpt>
      <trkpt lat="45.2809" lon="6.19761">
        <ele>1413.28</ele>
        <time>2018-02-10T08:01:59Z</time>
      </trkpt>
      <trkpt lat="45.28087" lon="6.19753">
        <ele>1412.79</ele>
        <time>2018-02-10T08:02:05Z</time>
      </trkpt>
      <trkpt lat="45.28084" lon="6.19744">
        <ele>1412.79</ele>
        <time>2018-02-10T08:02:11Z</time>
      </trkpt>
      <trkpt lat="45.28082" lon="6.19737">
        <ele>1413.28</ele>
        <time>2018-02-10T08:02:18Z</time>
      </trkpt>
      <trkpt lat="45.28079" lon="6.19729">
        <ele>1414.24</ele>
        <time>2018-02-10T08:02:25Z</time>
      </trkpt>
      <trkpt lat="45.28079" lon="6.19727">
        <ele>1414.24</ele>
        <time>2018-02-10T08:02:28Z</time>
      </trkpt>
      <trkpt lat="45.28076" lon="6.19719">
        <ele>1415.2</ele>
        <time>2018-02-10T08:02:35Z</time>
      </trkpt>
      <trkpt lat="45.28074" lon="6.19716">
        <ele>1415.2</ele>
        <time>2018-02-10T08:02:39Z</time>
      </trkpt>
      <trkpt lat="45.28067" lon="6.19702">
        <ele>1417.12</ele>
        <time>2018-02-10T08:02:51Z</time>
      </trkpt>
      <trkpt lat="45.28061" lon="6.19691">
        <ele>1417.6</ele>
        <time>2018-02-10T08:03:03Z</time>
      </trkpt>
      <trkpt lat="45.28058" lon="6.19682">
        <ele>1418.08</ele>
        <time>2018-02-10T08:03:10Z</time>
      </trkpt>
      <trkpt lat="45.28056" lon="6.19676">
        <ele>1418.08</ele>
        <time>2018-02-10T08:03:15Z</time>
      </trkpt>
      <trkpt lat="45.28053" lon="6.19668">
        <ele>1418.56</ele>
        <time>2018-02-10T08:03:23Z</time>
      </trkpt>
      <trkpt lat="45.2805" lon="6.19657">
        <ele>1419.52</ele>
        <time>2018-02-10T08:03:34Z</time>
      </trkpt>
      <trkpt lat="45.28048" lon="6.19643">
        <ele>1421.45</ele>
        <time>2018-02-10T08:03:48Z</time>
      </trkpt>
      <trkpt lat="45.28048" lon="6.19642">
        <ele>1421.45</ele>
        <time>2018-02-10T08:03:49Z</time>
      </trkpt>
      <trkpt lat="45.28043" lon="6.19631">
        <ele>1422.89</ele>
        <time>2018-02-10T08:04:01Z</time>
      </trkpt>
      <trkpt lat="45.28037" lon="6.19621">
        <ele>1424.81</ele>
        <time>2018-02-10T08:04:12Z</time>
      </trkpt>
      <trkpt lat="45.28035" lon="6.19618">
        <ele>1424.81</ele>
        <time>2018-02-10T08:04:15Z</time>
      </trkpt>
      <trkpt lat="45.28027" lon="6.19607">
        <ele>1425.29</ele>
        <time>2018-02-10T08:04:28Z</time>
      </trkpt>
      <trkpt lat="45.28022" lon="6.19597">
        <ele>1426.73</ele>
        <time>2018-02-10T08:04:40Z</time>
      </trkpt>
      <trkpt lat="45.28022" lon="6.19582">
        <ele>1428.66</ele>
        <time>2018-02-10T08:04:58Z</time>
      </trkpt>
      <trkpt lat="45.28023" lon="6.19571">
        <ele>1432.02</ele>
        <time>2018-02-10T08:05:13Z</time>
      </trkpt>
      <trkpt lat="45.28023" lon="6.19566">
        <ele>1432.5</ele>
        <time>2018-02-10T08:05:26Z</time>
      </trkpt>
      <trkpt lat="45.2802" lon="6.1956">
        <ele>1433.94</ele>
        <time>2018-02-10T08:05:37Z</time>
      </trkpt>
      <trkpt lat="45.28013" lon="6.19556">
        <ele>1435.39</ele>
        <time>2018-02-10T08:05:48Z</time>
      </trkpt>
      <trkpt lat="45.28005" lon="6.19544">
        <ele>1435.87</ele>
        <time>2018-02-10T08:06:02Z</time>
      </trkpt>
      <trkpt lat="45.27999" lon="6.19531">
        <ele>1436.35</ele>
        <time>2018-02-10T08:06:15Z</time>
      </trkpt>
      <trkpt lat="45.27993" lon="6.19518">
        <ele>1436.83</ele>
        <time>2018-02-10T08:06:28Z</time>
      </trkpt>
      <trkpt lat="45.27987" lon="6.19506">
        <ele>1436.35</ele>
        <time>2018-02-10T08:06:39Z</time>
      </trkpt>
      <trkpt lat="45.27984" lon="6.19497">
        <ele>1436.83</ele>
        <time>2018-02-10T08:06:46Z</time>
      </trkpt>
      <trkpt lat="45.2798" lon="6.19488">
        <ele>1437.31</ele>
        <time>2018-02-10T08:06:54Z</time>
      </trkpt>
      <trkpt lat="45.27975" lon="6.19475">
        <ele>1436.83</ele>
        <time>2018-02-10T08:07:05Z</time>
      </trkpt>
      <trkpt lat="45.27966" lon="6.19457">
        <ele>1437.31</ele>
        <time>2018-02-10T08:07:20Z</time>
      </trkpt>
      <trkpt lat="45.27958" lon="6.19442">
        <ele>1437.79</ele>
        <time>2018-02-10T08:07:36Z</time>
      </trkpt>
      <trkpt lat="45.27955" lon="6.1944">
        <ele>1438.75</ele>
        <time>2018-02-10T08:07:55Z</time>
      </trkpt>
      <trkpt lat="45.27956" lon="6.19425">
        <ele>1441.15</ele>
        <time>2018-02-10T08:08:09Z</time>
      </trkpt>
      <trkpt lat="45.27959" lon="6.19413">
        <ele>1444.52</ele>
        <time>2018-02-10T08:08:22Z</time>
      </trkpt>
      <trkpt lat="45.27959" lon="6.19412">
        <ele>1444.04</ele>
        <time>2018-02-10T08:08:24Z</time>
      </trkpt>
      <trkpt lat="45.2796" lon="6.19399">
        <ele>1446.92</ele>
        <time>2018-02-10T08:08:38Z</time>
      </trkpt>
      <trkpt lat="45.27958" lon="6.19386">
        <ele>1449.32</ele>
        <time>2018-02-10T08:08:52Z</time>
      </trkpt>
      <trkpt lat="45.27957" lon="6.19371">
        <ele>1451.73</ele>
        <time>2018-02-10T08:09:06Z</time>
      </trkpt>
      <trkpt lat="45.27957" lon="6.19369">
        <ele>1451.73</ele>
        <time>2018-02-10T08:09:08Z</time>
      </trkpt>
      <trkpt lat="45.27955" lon="6.19361">
        <ele>1453.65</ele>
        <time>2018-02-10T08:09:15Z</time>
      </trkpt>
      <trkpt lat="45.27954" lon="6.19348">
        <ele>1455.57</ele>
        <time>2018-02-10T08:09:28Z</time>
      </trkpt>
      <trkpt lat="45.2795" lon="6.19335">
        <ele>1456.53</ele>
        <time>2018-02-10T08:09:41Z</time>
      </trkpt>
      <trkpt lat="45.27949" lon="6.19333">
        <ele>1457.02</ele>
        <time>2018-02-10T08:09:43Z</time>
      </trkpt>
      <trkpt lat="45.27943" lon="6.19318">
        <ele>1458.94</ele>
        <time>2018-02-10T08:09:58Z</time>
      </trkpt>
      <trkpt lat="45.27944" lon="6.19307">
        <ele>1460.86</ele>
        <time>2018-02-10T08:10:10Z</time>
      </trkpt>
      <trkpt lat="45.27946" lon="6.19292">
        <ele>1463.26</ele>
        <time>2018-02-10T08:10:26Z</time>
      </trkpt>
      <trkpt lat="45.27939" lon="6.19284">
        <ele>1466.15</ele>
        <time>2018-02-10T08:10:39Z</time>
      </trkpt>
      <trkpt lat="45.27936" lon="6.19271">
        <ele>1468.07</ele>
        <time>2018-02-10T08:10:51Z</time>
      </trkpt>
      <trkpt lat="45.27932" lon="6.19256">
        <ele>1470.47</ele>
        <time>2018-02-10T08:11:06Z</time>
      </trkpt>
      <trkpt lat="45.27928" lon="6.19247">
        <ele>1471.92</ele>
        <time>2018-02-10T08:11:20Z</time>
      </trkpt>
      <trkpt lat="45.27925" lon="6.19232">
        <ele>1473.84</ele>
        <time>2018-02-10T08:11:33Z</time>
      </trkpt>
      <trkpt lat="45.27921" lon="6.19221">
        <ele>1474.32</ele>
        <time>2018-02-10T08:11:43Z</time>
      </trkpt>
      <trkpt lat="45.27921" lon="6.19216">
        <ele>1475.28</ele>
        <time>2018-02-10T08:11:48Z</time>
      </trkpt>
      <trkpt lat="45.27919" lon="6.19208">
        <ele>1475.76</ele>
        <time>2018-02-10T08:11:55Z</time>
      </trkpt>
      <trkpt lat="45.27914" lon="6.19194">
        <ele>1476.72</ele>
        <time>2018-02-10T08:12:08Z</time>
      </trkpt>
      <trkpt lat="45.27911" lon="6.19181">
        <ele>1479.13</ele>
        <time>2018-02-10T08:12:21Z</time>
      </trkpt>
      <trkpt lat="45.27907" lon="6.1917">
        <ele>1479.61</ele>
        <time>2018-02-10T08:12:32Z</time>
      </trkpt>
      <trkpt lat="45.27906" lon="6.19166">
        <ele>1481.53</ele>
        <time>2018-02-10T08:12:35Z</time>
      </trkpt>
      <trkpt lat="45.27907" lon="6.19155">
        <ele>1481.53</ele>
        <time>2018-02-10T08:12:46Z</time>
      </trkpt>
      <trkpt lat="45.2791" lon="6.19138">
        <ele>1481.53</ele>
        <time>2018-02-10T08:13:01Z</time>
      </trkpt>
      <trkpt lat="45.27914" lon="6.19123">
        <ele>1483.93</ele>
        <time>2018-02-10T08:13:17Z</time>
      </trkpt>
      <trkpt lat="45.27917" lon="6.19115">
        <ele>1487.3</ele>
        <time>2018-02-10T08:13:31Z</time>
      </trkpt>
      <trkpt lat="45.27917" lon="6.19099">
        <ele>1489.22</ele>
        <time>2018-02-10T08:13:46Z</time>
      </trkpt>
      <trkpt lat="45.27918" lon="6.19087">
        <ele>1490.66</ele>
        <time>2018-02-10T08:13:59Z</time>
      </trkpt>
      <trkpt lat="45.27922" lon="6.19084">
        <ele>1491.62</ele>
        <time>2018-02-10T08:14:16Z</time>
      </trkpt>
      <trkpt lat="45.27928" lon="6.19076">
        <ele>1494.03</ele>
        <time>2018-02-10T08:14:28Z</time>
      </trkpt>
      <trkpt lat="45.27935" lon="6.19067">
        <ele>1496.91</ele>
        <time>2018-02-10T08:14:42Z</time>
      </trkpt>
      <trkpt lat="45.27939" lon="6.19062">
        <ele>1499.31</ele>
        <time>2018-02-10T08:14:54Z</time>
      </trkpt>
      <trkpt lat="45.27942" lon="6.19059">
        <ele>1500.76</ele>
        <time>2018-02-10T08:14:58Z</time>
      </trkpt>
      <trkpt lat="45.2795" lon="6.19053">
        <ele>1502.68</ele>
        <time>2018-02-10T08:15:11Z</time>
      </trkpt>
      <trkpt lat="45.27956" lon="6.19049">
        <ele>1505.56</ele>
        <time>2018-02-10T08:15:25Z</time>
      </trkpt>
      <trkpt lat="45.27956" lon="6.1905">
        <ele>1506.52</ele>
        <time>2018-02-10T08:15:37Z</time>
      </trkpt>
      <trkpt lat="45.27953" lon="6.19046">
        <ele>1506.52</ele>
        <time>2018-02-10T08:15:50Z</time>
      </trkpt>
      <trkpt lat="45.27943" lon="6.19049">
        <ele>1506.52</ele>
        <time>2018-02-10T08:16:05Z</time>
      </trkpt>
      <trkpt lat="45.27936" lon="6.19048">
        <ele>1507.48</ele>
        <time>2018-02-10T08:16:18Z</time>
      </trkpt>
      <trkpt lat="45.27934" lon="6.19046">
        <ele>1507</ele>
        <time>2018-02-10T08:16:22Z</time>
      </trkpt>
      <trkpt lat="45.27926" lon="6.19037">
        <ele>1507.97</ele>
        <time>2018-02-10T08:16:35Z</time>
      </trkpt>
      <trkpt lat="45.27924" lon="6.1903">
        <ele>1508.93</ele>
        <time>2018-02-10T08:16:41Z</time>
      </trkpt>
      <trkpt lat="45.2792" lon="6.19016">
        <ele>1510.37</ele>
        <time>2018-02-10T08:16:53Z</time>
      </trkpt>
      <trkpt lat="45.27916" lon="6.19">
        <ele>1511.81</ele>
        <time>2018-02-10T08:17:08Z</time>
      </trkpt>
      <trkpt lat="45.27912" lon="6.18986">
        <ele>1513.25</ele>
        <time>2018-02-10T08:17:24Z</time>
      </trkpt>
      <trkpt lat="45.2791" lon="6.18973">
        <ele>1514.21</ele>
        <time>2018-02-10T08:17:37Z</time>
      </trkpt>
      <trkpt lat="45.27909" lon="6.18962">
        <ele>1515.18</ele>
        <time>2018-02-10T08:17:45Z</time>
      </trkpt>
      <trkpt lat="45.27908" lon="6.18959">
        <ele>1515.66</ele>
        <time>2018-02-10T08:18:01Z</time>
      </trkpt>
      <trkpt lat="45.27908" lon="6.1896">
        <ele>1515.18</ele>
        <time>2018-02-10T08:18:15Z</time>
      </trkpt>
      <trkpt lat="45.27909" lon="6.18963">
        <ele>1514.69</ele>
        <time>2018-02-10T08:18:25Z</time>
      </trkpt>
      <trkpt lat="45.27909" lon="6.18962">
        <ele>1514.69</ele>
        <time>2018-02-10T08:19:04Z</time>
      </trkpt>
      <trkpt lat="45.27909" lon="6.18962">
        <ele>1514.69</ele>
        <time>2018-02-10T08:19:41Z</time>
      </trkpt>
      <trkpt lat="45.27909" lon="6.18962">
        <ele>1514.69</ele>
        <time>2018-02-10T08:20:12Z</time>
      </trkpt>
      <trkpt lat="45.2791" lon="6.18963">
        <ele>1514.69</ele>
        <time>2018-02-10T08:20:51Z</time>
      </trkpt>
      <trkpt lat="45.27909" lon="6.18963">
        <ele>1515.18</ele>
        <time>2018-02-10T08:21:26Z</time>
      </trkpt>
      <trkpt lat="45.27907" lon="6.18963">
        <ele>1515.66</ele>
        <time>2018-02-10T08:21:35Z</time>
      </trkpt>
      <trkpt lat="45.27908" lon="6.18961">
        <ele>1515.66</ele>
        <time>2018-02-10T08:21:56Z</time>
      </trkpt>
      <trkpt lat="45.27908" lon="6.18962">
        <ele>1515.18</ele>
        <time>2018-02-10T08:22:30Z</time>
      </trkpt>
      <trkpt lat="45.27906" lon="6.1896">
        <ele>1515.18</ele>
        <time>2018-02-10T08:22:50Z</time>
      </trkpt>
      <trkpt lat="45.27907" lon="6.18957">
        <ele>1515.66</ele>
        <time>2018-02-10T08:23:12Z</time>
      </trkpt>
      <trkpt lat="45.27907" lon="6.18957">
        <ele>1511.81</ele>
        <time>2018-02-10T08:23:13Z</time>
      </trkpt>
      <trkpt lat="45.27907" lon="6.18958">
        <ele>1518.06</ele>
        <time>2018-02-10T08:23:14Z</time>
      </trkpt>
      <trkpt lat="45.27908" lon="6.18959">
        <ele>1514.69</ele>
        <time>2018-02-10T08:23:17Z</time>
      </trkpt>
      <trkpt lat="45.2791" lon="6.18968">
        <ele>1515.66</ele>
        <time>2018-02-10T08:23:45Z</time>
      </trkpt>
      <trkpt lat="45.27906" lon="6.18958">
        <ele>1515.18</ele>
        <time>2018-02-10T08:24:20Z</time>
      </trkpt>
      <trkpt lat="45.27906" lon="6.18962">
        <ele>1515.18</ele>
        <time>2018-02-10T08:24:51Z</time>
      </trkpt>
      <trkpt lat="45.27907" lon="6.1895">
        <ele>1516.14</ele>
        <time>2018-02-10T08:25:12Z</time>
      </trkpt>
      <trkpt lat="45.27913" lon="6.18952">
        <ele>1517.58</ele>
        <time>2018-02-10T08:25:36Z</time>
      </trkpt>
      <trkpt lat="45.27924" lon="6.18936">
        <ele>1518.06</ele>
        <time>2018-02-10T08:26:01Z</time>
      </trkpt>
      <trkpt lat="45.27931" lon="6.18918">
        <ele>1520.94</ele>
        <time>2018-02-10T08:26:19Z</time>
      </trkpt>
      <trkpt lat="45.27926" lon="6.18907">
        <ele>1520.94</ele>
        <time>2018-02-10T08:26:37Z</time>
      </trkpt>
      <trkpt lat="45.27922" lon="6.18896">
        <ele>1522.87</ele>
        <time>2018-02-10T08:26:55Z</time>
      </trkpt>
      <trkpt lat="45.2792" lon="6.18887">
        <ele>1523.83</ele>
        <time>2018-02-10T08:27:10Z</time>
      </trkpt>
      <trkpt lat="45.27921" lon="6.1887">
        <ele>1523.83</ele>
        <time>2018-02-10T08:27:29Z</time>
      </trkpt>
      <trkpt lat="45.27921" lon="6.18841">
        <ele>1524.31</ele>
        <time>2018-02-10T08:27:47Z</time>
      </trkpt>
      <trkpt lat="45.27921" lon="6.18838">
        <ele>1524.31</ele>
        <time>2018-02-10T08:27:49Z</time>
      </trkpt>
      <trkpt lat="45.27925" lon="6.18816">
        <ele>1524.79</ele>
        <time>2018-02-10T08:28:08Z</time>
      </trkpt>
      <trkpt lat="45.27929" lon="6.18795">
        <ele>1526.71</ele>
        <time>2018-02-10T08:28:25Z</time>
      </trkpt>
      <trkpt lat="45.27929" lon="6.18771">
        <ele>1527.67</ele>
        <time>2018-02-10T08:28:42Z</time>
      </trkpt>
      <trkpt lat="45.27926" lon="6.18757">
        <ele>1524.31</ele>
        <time>2018-02-10T08:28:49Z</time>
      </trkpt>
      <trkpt lat="45.27919" lon="6.18734">
        <ele>1522.39</ele>
        <time>2018-02-10T08:29:02Z</time>
      </trkpt>
      <trkpt lat="45.27917" lon="6.18715">
        <ele>1525.27</ele>
        <time>2018-02-10T08:29:18Z</time>
      </trkpt>
      <trkpt lat="45.27911" lon="6.18687">
        <ele>1526.71</ele>
        <time>2018-02-10T08:29:38Z</time>
      </trkpt>
      <trkpt lat="45.27909" lon="6.18667">
        <ele>1527.19</ele>
        <time>2018-02-10T08:29:54Z</time>
      </trkpt>
      <trkpt lat="45.2791" lon="6.1865">
        <ele>1529.11</ele>
        <time>2018-02-10T08:30:10Z</time>
      </trkpt>
      <trkpt lat="45.2791" lon="6.18632">
        <ele>1530.08</ele>
        <time>2018-02-10T08:30:25Z</time>
      </trkpt>
      <trkpt lat="45.27907" lon="6.18613">
        <ele>1532.96</ele>
        <time>2018-02-10T08:30:42Z</time>
      </trkpt>
      <trkpt lat="45.27907" lon="6.18592">
        <ele>1533.92</ele>
        <time>2018-02-10T08:30:58Z</time>
      </trkpt>
      <trkpt lat="45.27906" lon="6.18575">
        <ele>1535.36</ele>
        <time>2018-02-10T08:31:13Z</time>
      </trkpt>
      <trkpt lat="45.27903" lon="6.1856">
        <ele>1537.77</ele>
        <time>2018-02-10T08:31:28Z</time>
      </trkpt>
      <trkpt lat="45.27899" lon="6.18544">
        <ele>1540.17</ele>
        <time>2018-02-10T08:31:49Z</time>
      </trkpt>
      <trkpt lat="45.27898" lon="6.18531">
        <ele>1543.05</ele>
        <time>2018-02-10T08:32:03Z</time>
      </trkpt>
      <trkpt lat="45.27897" lon="6.1852">
        <ele>1545.94</ele>
        <time>2018-02-10T08:32:17Z</time>
      </trkpt>
      <trkpt lat="45.279" lon="6.18509">
        <ele>1548.82</ele>
        <time>2018-02-10T08:32:29Z</time>
      </trkpt>
      <trkpt lat="45.27899" lon="6.18492">
        <ele>1550.74</ele>
        <time>2018-02-10T08:32:45Z</time>
      </trkpt>
      <trkpt lat="45.27898" lon="6.18474">
        <ele>1553.15</ele>
        <time>2018-02-10T08:33:01Z</time>
      </trkpt>
      <trkpt lat="45.27895" lon="6.18455">
        <ele>1555.55</ele>
        <time>2018-02-10T08:33:18Z</time>
      </trkpt>
      <trkpt lat="45.279" lon="6.1844">
        <ele>1558.43</ele>
        <time>2018-02-10T08:33:36Z</time>
      </trkpt>
      <trkpt lat="45.27898" lon="6.18422">
        <ele>1561.8</ele>
        <time>2018-02-10T08:33:55Z</time>
      </trkpt>
      <trkpt lat="45.27898" lon="6.18412">
        <ele>1564.68</ele>
        <time>2018-02-10T08:34:14Z</time>
      </trkpt>
      <trkpt lat="45.27906" lon="6.18402">
        <ele>1567.09</ele>
        <time>2018-02-10T08:34:32Z</time>
      </trkpt>
      <trkpt lat="45.27914" lon="6.18399">
        <ele>1567.57</ele>
        <time>2018-02-10T08:34:48Z</time>
      </trkpt>
      <trkpt lat="45.27911" lon="6.18411">
        <ele>1568.53</ele>
        <time>2018-02-10T08:35:02Z</time>
      </trkpt>
      <trkpt lat="45.27916" lon="6.1842">
        <ele>1570.45</ele>
        <time>2018-02-10T08:35:17Z</time>
      </trkpt>
      <trkpt lat="45.27921" lon="6.18422">
        <ele>1572.37</ele>
        <time>2018-02-10T08:35:26Z</time>
      </trkpt>
      <trkpt lat="45.27925" lon="6.18416">
        <ele>1574.3</ele>
        <time>2018-02-10T08:35:39Z</time>
      </trkpt>
      <trkpt lat="45.27934" lon="6.18405">
        <ele>1577.66</ele>
        <time>2018-02-10T08:35:55Z</time>
      </trkpt>
      <trkpt lat="45.27941" lon="6.18391">
        <ele>1579.1</ele>
        <time>2018-02-10T08:36:09Z</time>
      </trkpt>
      <trkpt lat="45.27948" lon="6.18378">
        <ele>1581.51</ele>
        <time>2018-02-10T08:36:24Z</time>
      </trkpt>
      <trkpt lat="45.2795" lon="6.18366">
        <ele>1583.91</ele>
        <time>2018-02-10T08:36:36Z</time>
      </trkpt>
      <trkpt lat="45.27954" lon="6.18354">
        <ele>1585.83</ele>
        <time>2018-02-10T08:36:51Z</time>
      </trkpt>
      <trkpt lat="45.27958" lon="6.18342">
        <ele>1587.75</ele>
        <time>2018-02-10T08:37:04Z</time>
      </trkpt>
      <trkpt lat="45.27965" lon="6.1833">
        <ele>1588.72</ele>
        <time>2018-02-10T08:37:18Z</time>
      </trkpt>
      <trkpt lat="45.27971" lon="6.18316">
        <ele>1590.64</ele>
        <time>2018-02-10T08:37:32Z</time>
      </trkpt>
      <trkpt lat="45.2798" lon="6.18302">
        <ele>1591.6</ele>
        <time>2018-02-10T08:37:47Z</time>
      </trkpt>
      <trkpt lat="45.27988" lon="6.18292">
        <ele>1593.52</ele>
        <time>2018-02-10T08:38:00Z</time>
      </trkpt>
      <trkpt lat="45.28001" lon="6.18271">
        <ele>1593.52</ele>
        <time>2018-02-10T08:38:18Z</time>
      </trkpt>
      <trkpt lat="45.28001" lon="6.18258">
        <ele>1595.45</ele>
        <time>2018-02-10T08:38:31Z</time>
      </trkpt>
      <trkpt lat="45.28002" lon="6.18244">
        <ele>1597.85</ele>
        <time>2018-02-10T08:38:46Z</time>
      </trkpt>
      <trkpt lat="45.28003" lon="6.1823">
        <ele>1598.33</ele>
        <time>2018-02-10T08:38:58Z</time>
      </trkpt>
      <trkpt lat="45.28001" lon="6.1822">
        <ele>1599.29</ele>
        <time>2018-02-10T08:39:06Z</time>
      </trkpt>
      <trkpt lat="45.27992" lon="6.18212">
        <ele>1600.25</ele>
        <time>2018-02-10T08:39:19Z</time>
      </trkpt>
      <trkpt lat="45.27992" lon="6.18199">
        <ele>1603.62</ele>
        <time>2018-02-10T08:39:34Z</time>
      </trkpt>
      <trkpt lat="45.27989" lon="6.18186">
        <ele>1604.58</ele>
        <time>2018-02-10T08:39:48Z</time>
      </trkpt>
      <trkpt lat="45.27986" lon="6.18169">
        <ele>1606.98</ele>
        <time>2018-02-10T08:40:02Z</time>
      </trkpt>
      <trkpt lat="45.27988" lon="6.18157">
        <ele>1608.9</ele>
        <time>2018-02-10T08:40:15Z</time>
      </trkpt>
      <trkpt lat="45.27989" lon="6.18141">
        <ele>1610.35</ele>
        <time>2018-02-10T08:40:28Z</time>
      </trkpt>
      <trkpt lat="45.2799" lon="6.18119">
        <ele>1610.83</ele>
        <time>2018-02-10T08:40:45Z</time>
      </trkpt>
      <trkpt lat="45.27988" lon="6.18101">
        <ele>1611.79</ele>
        <time>2018-02-10T08:41:01Z</time>
      </trkpt>
      <trkpt lat="45.27986" lon="6.18085">
        <ele>1614.19</ele>
        <time>2018-02-10T08:41:14Z</time>
      </trkpt>
      <trkpt lat="45.27985" lon="6.18072">
        <ele>1616.11</ele>
        <time>2018-02-10T08:41:27Z</time>
      </trkpt>
      <trkpt lat="45.27985" lon="6.18058">
        <ele>1618.52</ele>
        <time>2018-02-10T08:41:40Z</time>
      </trkpt>
      <trkpt lat="45.27986" lon="6.18043">
        <ele>1620.92</ele>
        <time>2018-02-10T08:41:54Z</time>
      </trkpt>
      <trkpt lat="45.27985" lon="6.1803">
        <ele>1622.84</ele>
        <time>2018-02-10T08:42:07Z</time>
      </trkpt>
      <trkpt lat="45.27984" lon="6.18014">
        <ele>1624.28</ele>
        <time>2018-02-10T08:42:22Z</time>
      </trkpt>
      <trkpt lat="45.27984" lon="6.18001">
        <ele>1626.21</ele>
        <time>2018-02-10T08:42:35Z</time>
      </trkpt>
      <trkpt lat="45.27984" lon="6.17986">
        <ele>1628.61</ele>
        <time>2018-02-10T08:42:49Z</time>
      </trkpt>
      <trkpt lat="45.27985" lon="6.17967">
        <ele>1630.53</ele>
        <time>2018-02-10T08:43:05Z</time>
      </trkpt>
      <trkpt lat="45.27985" lon="6.17952">
        <ele>1631.98</ele>
        <time>2018-02-10T08:43:17Z</time>
      </trkpt>
      <trkpt lat="45.27986" lon="6.17936">
        <ele>1632.94</ele>
        <time>2018-02-10T08:43:31Z</time>
      </trkpt>
      <trkpt lat="45.27986" lon="6.17916">
        <ele>1636.3</ele>
        <time>2018-02-10T08:43:48Z</time>
      </trkpt>
      <trkpt lat="45.27989" lon="6.17903">
        <ele>1638.22</ele>
        <time>2018-02-10T08:44:02Z</time>
      </trkpt>
      <trkpt lat="45.27994" lon="6.17887">
        <ele>1639.19</ele>
        <time>2018-02-10T08:44:16Z</time>
      </trkpt>
      <trkpt lat="45.27994" lon="6.17886">
        <ele>1640.15</ele>
        <time>2018-02-10T08:44:17Z</time>
      </trkpt>
      <trkpt lat="45.27996" lon="6.17868">
        <ele>1640.63</ele>
        <time>2018-02-10T08:44:32Z</time>
      </trkpt>
      <trkpt lat="45.27999" lon="6.17855">
        <ele>1643.03</ele>
        <time>2018-02-10T08:44:46Z</time>
      </trkpt>
      <trkpt lat="45.28" lon="6.1784">
        <ele>1644.47</ele>
        <time>2018-02-10T08:45:01Z</time>
      </trkpt>
      <trkpt lat="45.28004" lon="6.1782">
        <ele>1645.43</ele>
        <time>2018-02-10T08:45:17Z</time>
      </trkpt>
      <trkpt lat="45.28006" lon="6.1781">
        <ele>1647.36</ele>
        <time>2018-02-10T08:45:30Z</time>
      </trkpt>
      <trkpt lat="45.28009" lon="6.17792">
        <ele>1649.28</ele>
        <time>2018-02-10T08:45:46Z</time>
      </trkpt>
      <trkpt lat="45.28009" lon="6.17781">
        <ele>1651.2</ele>
        <time>2018-02-10T08:45:57Z</time>
      </trkpt>
      <trkpt lat="45.28009" lon="6.17764">
        <ele>1654.09</ele>
        <time>2018-02-10T08:46:15Z</time>
      </trkpt>
      <trkpt lat="45.28009" lon="6.17762">
        <ele>1654.09</ele>
        <time>2018-02-10T08:46:17Z</time>
      </trkpt>
      <trkpt lat="45.2801" lon="6.17747">
        <ele>1656.01</ele>
        <time>2018-02-10T08:46:31Z</time>
      </trkpt>
      <trkpt lat="45.28012" lon="6.17734">
        <ele>1657.93</ele>
        <time>2018-02-10T08:46:47Z</time>
      </trkpt>
      <trkpt lat="45.28011" lon="6.17717">
        <ele>1659.85</ele>
        <time>2018-02-10T08:47:01Z</time>
      </trkpt>
      <trkpt lat="45.28012" lon="6.17706">
        <ele>1662.26</ele>
        <time>2018-02-10T08:47:15Z</time>
      </trkpt>
      <trkpt lat="45.28015" lon="6.17689">
        <ele>1664.66</ele>
        <time>2018-02-10T08:47:30Z</time>
      </trkpt>
      <trkpt lat="45.28016" lon="6.17674">
        <ele>1665.62</ele>
        <time>2018-02-10T08:47:45Z</time>
      </trkpt>
      <trkpt lat="45.28016" lon="6.1766">
        <ele>1668.02</ele>
        <time>2018-02-10T08:47:59Z</time>
      </trkpt>
      <trkpt lat="45.28018" lon="6.17653">
        <ele>1669.47</ele>
        <time>2018-02-10T08:48:11Z</time>
      </trkpt>
      <trkpt lat="45.28019" lon="6.17634">
        <ele>1671.87</ele>
        <time>2018-02-10T08:48:26Z</time>
      </trkpt>
      <trkpt lat="45.28022" lon="6.17622">
        <ele>1672.83</ele>
        <time>2018-02-10T08:48:38Z</time>
      </trkpt>
      <trkpt lat="45.28021" lon="6.17606">
        <ele>1673.79</ele>
        <time>2018-02-10T08:48:52Z</time>
      </trkpt>
      <trkpt lat="45.2802" lon="6.17591">
        <ele>1675.23</ele>
        <time>2018-02-10T08:49:07Z</time>
      </trkpt>
      <trkpt lat="45.28022" lon="6.17577">
        <ele>1676.2</ele>
        <time>2018-02-10T08:49:20Z</time>
      </trkpt>
      <trkpt lat="45.28025" lon="6.1756">
        <ele>1677.64</ele>
        <time>2018-02-10T08:49:34Z</time>
      </trkpt>
      <trkpt lat="45.28027" lon="6.17547">
        <ele>1679.08</ele>
        <time>2018-02-10T08:49:47Z</time>
      </trkpt>
      <trkpt lat="45.28027" lon="6.17532">
        <ele>1681</ele>
        <time>2018-02-10T08:50:02Z</time>
      </trkpt>
      <trkpt lat="45.28026" lon="6.17516">
        <ele>1682.93</ele>
        <time>2018-02-10T08:50:16Z</time>
      </trkpt>
      <trkpt lat="45.28026" lon="6.17503">
        <ele>1683.89</ele>
        <time>2018-02-10T08:50:28Z</time>
      </trkpt>
      <trkpt lat="45.28027" lon="6.17491">
        <ele>1684.37</ele>
        <time>2018-02-10T08:50:42Z</time>
      </trkpt>
      <trkpt lat="45.28026" lon="6.17475">
        <ele>1685.81</ele>
        <time>2018-02-10T08:50:56Z</time>
      </trkpt>
      <trkpt lat="45.28025" lon="6.17457">
        <ele>1688.21</ele>
        <time>2018-02-10T08:51:13Z</time>
      </trkpt>
      <trkpt lat="45.28026" lon="6.17458">
        <ele>1688.69</ele>
        <time>2018-02-10T08:51:33Z</time>
      </trkpt>
      <trkpt lat="45.28026" lon="6.17442">
        <ele>1690.14</ele>
        <time>2018-02-10T08:51:47Z</time>
      </trkpt>
      <trkpt lat="45.28025" lon="6.17429">
        <ele>1691.1</ele>
        <time>2018-02-10T08:51:59Z</time>
      </trkpt>
      <trkpt lat="45.28024" lon="6.17413">
        <ele>1691.58</ele>
        <time>2018-02-10T08:52:13Z</time>
      </trkpt>
      <trkpt lat="45.28021" lon="6.17398">
        <ele>1693.5</ele>
        <time>2018-02-10T08:52:27Z</time>
      </trkpt>
      <trkpt lat="45.28018" lon="6.17381">
        <ele>1696.38</ele>
        <time>2018-02-10T08:52:43Z</time>
      </trkpt>
      <trkpt lat="45.28016" lon="6.17369">
        <ele>1698.79</ele>
        <time>2018-02-10T08:52:58Z</time>
      </trkpt>
      <trkpt lat="45.28012" lon="6.17355">
        <ele>1702.15</ele>
        <time>2018-02-10T08:53:12Z</time>
      </trkpt>
      <trkpt lat="45.28011" lon="6.17339">
        <ele>1704.07</ele>
        <time>2018-02-10T08:53:27Z</time>
      </trkpt>
      <trkpt lat="45.28009" lon="6.1733">
        <ele>1706</ele>
        <time>2018-02-10T08:53:39Z</time>
      </trkpt>
      <trkpt lat="45.28007" lon="6.17314">
        <ele>1706.96</ele>
        <time>2018-02-10T08:53:56Z</time>
      </trkpt>
      <trkpt lat="45.28004" lon="6.173">
        <ele>1708.88</ele>
        <time>2018-02-10T08:54:09Z</time>
      </trkpt>
      <trkpt lat="45.28004" lon="6.17287">
        <ele>1711.76</ele>
        <time>2018-02-10T08:54:23Z</time>
      </trkpt>
      <trkpt lat="45.28006" lon="6.17282">
        <ele>1712.73</ele>
        <time>2018-02-10T08:54:30Z</time>
      </trkpt>
      <trkpt lat="45.28006" lon="6.17262">
        <ele>1714.65</ele>
        <time>2018-02-10T08:54:47Z</time>
      </trkpt>
      <trkpt lat="45.28008" lon="6.17247">
        <ele>1717.53</ele>
        <time>2018-02-10T08:55:03Z</time>
      </trkpt>
      <trkpt lat="45.2801" lon="6.17229">
        <ele>1718.97</ele>
        <time>2018-02-10T08:55:19Z</time>
      </trkpt>
      <trkpt lat="45.28013" lon="6.17213">
        <ele>1719.46</ele>
        <time>2018-02-10T08:55:33Z</time>
      </trkpt>
      <trkpt lat="45.28016" lon="6.17197">
        <ele>1721.38</ele>
        <time>2018-02-10T08:55:47Z</time>
      </trkpt>
      <trkpt lat="45.28016" lon="6.17185">
        <ele>1722.82</ele>
        <time>2018-02-10T08:56:01Z</time>
      </trkpt>
      <trkpt lat="45.28018" lon="6.17171">
        <ele>1724.74</ele>
        <time>2018-02-10T08:56:15Z</time>
      </trkpt>
      <trkpt lat="45.28022" lon="6.17153">
        <ele>1726.67</ele>
        <time>2018-02-10T08:56:30Z</time>
      </trkpt>
      <trkpt lat="45.28023" lon="6.17136">
        <ele>1727.63</ele>
        <time>2018-02-10T08:56:44Z</time>
      </trkpt>
      <trkpt lat="45.28024" lon="6.17123">
        <ele>1727.63</ele>
        <time>2018-02-10T08:56:56Z</time>
      </trkpt>
      <trkpt lat="45.28026" lon="6.17117">
        <ele>1728.59</ele>
        <time>2018-02-10T08:57:02Z</time>
      </trkpt>
      <trkpt lat="45.28028" lon="6.171">
        <ele>1730.03</ele>
        <time>2018-02-10T08:57:16Z</time>
      </trkpt>
      <trkpt lat="45.28034" lon="6.17086">
        <ele>1732.43</ele>
        <time>2018-02-10T08:57:30Z</time>
      </trkpt>
      <trkpt lat="45.28037" lon="6.17071">
        <ele>1734.36</ele>
        <time>2018-02-10T08:57:44Z</time>
      </trkpt>
      <trkpt lat="45.2804" lon="6.17056">
        <ele>1736.28</ele>
        <time>2018-02-10T08:57:58Z</time>
      </trkpt>
      <trkpt lat="45.28044" lon="6.17046">
        <ele>1737.72</ele>
        <time>2018-02-10T08:58:11Z</time>
      </trkpt>
      <trkpt lat="45.2805" lon="6.17037">
        <ele>1740.6</ele>
        <time>2018-02-10T08:58:26Z</time>
      </trkpt>
      <trkpt lat="45.28053" lon="6.1702">
        <ele>1742.53</ele>
        <time>2018-02-10T08:58:40Z</time>
      </trkpt>
      <trkpt lat="45.28056" lon="6.17001">
        <ele>1745.89</ele>
        <time>2018-02-10T08:58:56Z</time>
      </trkpt>
      <trkpt lat="45.28062" lon="6.1699">
        <ele>1748.29</ele>
        <time>2018-02-10T08:59:10Z</time>
      </trkpt>
      <trkpt lat="45.28062" lon="6.16978">
        <ele>1751.18</ele>
        <time>2018-02-10T08:59:26Z</time>
      </trkpt>
      <trkpt lat="45.28062" lon="6.16969">
        <ele>1753.58</ele>
        <time>2018-02-10T08:59:40Z</time>
      </trkpt>
      <trkpt lat="45.28063" lon="6.16958">
        <ele>1756.95</ele>
        <time>2018-02-10T08:59:55Z</time>
      </trkpt>
      <trkpt lat="45.28065" lon="6.16953">
        <ele>1757.91</ele>
        <time>2018-02-10T09:00:08Z</time>
      </trkpt>
      <trkpt lat="45.28071" lon="6.16941">
        <ele>1760.31</ele>
        <time>2018-02-10T09:00:24Z</time>
      </trkpt>
      <trkpt lat="45.28077" lon="6.16928">
        <ele>1763.2</ele>
        <time>2018-02-10T09:00:40Z</time>
      </trkpt>
      <trkpt lat="45.28081" lon="6.16917">
        <ele>1765.6</ele>
        <time>2018-02-10T09:00:54Z</time>
      </trkpt>
      <trkpt lat="45.28085" lon="6.16907">
        <ele>1767.52</ele>
        <time>2018-02-10T09:01:10Z</time>
      </trkpt>
      <trkpt lat="45.28087" lon="6.16898">
        <ele>1770.89</ele>
        <time>2018-02-10T09:01:24Z</time>
      </trkpt>
      <trkpt lat="45.28092" lon="6.16887">
        <ele>1773.77</ele>
        <time>2018-02-10T09:01:40Z</time>
      </trkpt>
      <trkpt lat="45.28097" lon="6.16873">
        <ele>1777.13</ele>
        <time>2018-02-10T09:01:57Z</time>
      </trkpt>
      <trkpt lat="45.28105" lon="6.1686">
        <ele>1780.02</ele>
        <time>2018-02-10T09:02:14Z</time>
      </trkpt>
      <trkpt lat="45.28107" lon="6.1685">
        <ele>1781.94</ele>
        <time>2018-02-10T09:02:29Z</time>
      </trkpt>
      <trkpt lat="45.28111" lon="6.16841">
        <ele>1784.82</ele>
        <time>2018-02-10T09:02:44Z</time>
      </trkpt>
      <trkpt lat="45.28116" lon="6.16832">
        <ele>1787.71</ele>
        <time>2018-02-10T09:02:59Z</time>
      </trkpt>
      <trkpt lat="45.28121" lon="6.16822">
        <ele>1790.11</ele>
        <time>2018-02-10T09:03:14Z</time>
      </trkpt>
      <trkpt lat="45.28127" lon="6.16811">
        <ele>1792.03</ele>
        <time>2018-02-10T09:03:28Z</time>
      </trkpt>
      <trkpt lat="45.28128" lon="6.16798">
        <ele>1794.92</ele>
        <time>2018-02-10T09:03:43Z</time>
      </trkpt>
      <trkpt lat="45.28128" lon="6.16785">
        <ele>1796.36</ele>
        <time>2018-02-10T09:03:58Z</time>
      </trkpt>
      <trkpt lat="45.28128" lon="6.16773">
        <ele>1798.76</ele>
        <time>2018-02-10T09:04:11Z</time>
      </trkpt>
      <trkpt lat="45.28125" lon="6.1676">
        <ele>1802.13</ele>
        <time>2018-02-10T09:04:27Z</time>
      </trkpt>
      <trkpt lat="45.28123" lon="6.16749">
        <ele>1803.57</ele>
        <time>2018-02-10T09:04:41Z</time>
      </trkpt>
      <trkpt lat="45.28123" lon="6.16732">
        <ele>1805.97</ele>
        <time>2018-02-10T09:04:56Z</time>
      </trkpt>
      <trkpt lat="45.28121" lon="6.16718">
        <ele>1806.45</ele>
        <time>2018-02-10T09:05:10Z</time>
      </trkpt>
      <trkpt lat="45.28119" lon="6.16709">
        <ele>1808.38</ele>
        <time>2018-02-10T09:05:23Z</time>
      </trkpt>
      <trkpt lat="45.28115" lon="6.16696">
        <ele>1809.34</ele>
        <time>2018-02-10T09:05:36Z</time>
      </trkpt>
      <trkpt lat="45.28113" lon="6.16681">
        <ele>1811.26</ele>
        <time>2018-02-10T09:05:50Z</time>
      </trkpt>
      <trkpt lat="45.28115" lon="6.16669">
        <ele>1813.18</ele>
        <time>2018-02-10T09:06:05Z</time>
      </trkpt>
      <trkpt lat="45.28117" lon="6.16655">
        <ele>1816.07</ele>
        <time>2018-02-10T09:06:20Z</time>
      </trkpt>
      <trkpt lat="45.28117" lon="6.1664">
        <ele>1817.99</ele>
        <time>2018-02-10T09:06:37Z</time>
      </trkpt>
      <trkpt lat="45.28126" lon="6.16635">
        <ele>1819.43</ele>
        <time>2018-02-10T09:06:50Z</time>
      </trkpt>
      <trkpt lat="45.28131" lon="6.16625">
        <ele>1822.8</ele>
        <time>2018-02-10T09:07:06Z</time>
      </trkpt>
      <trkpt lat="45.28138" lon="6.16615">
        <ele>1823.76</ele>
        <time>2018-02-10T09:07:20Z</time>
      </trkpt>
      <trkpt lat="45.28143" lon="6.16601">
        <ele>1823.28</ele>
        <time>2018-02-10T09:07:31Z</time>
      </trkpt>
      <trkpt lat="45.28143" lon="6.16582">
        <ele>1824.72</ele>
        <time>2018-02-10T09:07:47Z</time>
      </trkpt>
      <trkpt lat="45.28144" lon="6.16563">
        <ele>1825.2</ele>
        <time>2018-02-10T09:08:03Z</time>
      </trkpt>
      <trkpt lat="45.28143" lon="6.16548">
        <ele>1825.2</ele>
        <time>2018-02-10T09:08:17Z</time>
      </trkpt>
      <trkpt lat="45.28139" lon="6.16535">
        <ele>1826.64</ele>
        <time>2018-02-10T09:08:32Z</time>
      </trkpt>
      <trkpt lat="45.28138" lon="6.16528">
        <ele>1827.12</ele>
        <time>2018-02-10T09:08:48Z</time>
      </trkpt>
      <trkpt lat="45.28138" lon="6.16513">
        <ele>1828.56</ele>
        <time>2018-02-10T09:09:03Z</time>
      </trkpt>
      <trkpt lat="45.28137" lon="6.16496">
        <ele>1830.01</ele>
        <time>2018-02-10T09:09:20Z</time>
      </trkpt>
      <trkpt lat="45.28138" lon="6.16483">
        <ele>1830.97</ele>
        <time>2018-02-10T09:09:34Z</time>
      </trkpt>
      <trkpt lat="45.2814" lon="6.16464">
        <ele>1833.37</ele>
        <time>2018-02-10T09:09:50Z</time>
      </trkpt>
      <trkpt lat="45.28141" lon="6.16445">
        <ele>1833.85</ele>
        <time>2018-02-10T09:10:07Z</time>
      </trkpt>
      <trkpt lat="45.28145" lon="6.16429">
        <ele>1834.81</ele>
        <time>2018-02-10T09:10:23Z</time>
      </trkpt>
      <trkpt lat="45.28147" lon="6.16412">
        <ele>1834.81</ele>
        <time>2018-02-10T09:10:38Z</time>
      </trkpt>
      <trkpt lat="45.28148" lon="6.16395">
        <ele>1834.33</ele>
        <time>2018-02-10T09:10:53Z</time>
      </trkpt>
      <trkpt lat="45.28149" lon="6.16379">
        <ele>1832.89</ele>
        <time>2018-02-10T09:11:07Z</time>
      </trkpt>
      <trkpt lat="45.28146" lon="6.16364">
        <ele>1833.85</ele>
        <time>2018-02-10T09:11:22Z</time>
      </trkpt>
      <trkpt lat="45.28146" lon="6.16349">
        <ele>1834.81</ele>
        <time>2018-02-10T09:11:36Z</time>
      </trkpt>
      <trkpt lat="45.28147" lon="6.16335">
        <ele>1837.22</ele>
        <time>2018-02-10T09:11:50Z</time>
      </trkpt>
      <trkpt lat="45.28148" lon="6.1632">
        <ele>1839.14</ele>
        <time>2018-02-10T09:12:05Z</time>
      </trkpt>
      <trkpt lat="45.2815" lon="6.16305">
        <ele>1841.06</ele>
        <time>2018-02-10T09:12:21Z</time>
      </trkpt>
      <trkpt lat="45.28151" lon="6.16295">
        <ele>1843.95</ele>
        <time>2018-02-10T09:12:34Z</time>
      </trkpt>
      <trkpt lat="45.28151" lon="6.16285">
        <ele>1846.35</ele>
        <time>2018-02-10T09:12:48Z</time>
      </trkpt>
      <trkpt lat="45.28152" lon="6.16275">
        <ele>1848.75</ele>
        <time>2018-02-10T09:13:02Z</time>
      </trkpt>
      <trkpt lat="45.2815" lon="6.16265">
        <ele>1850.68</ele>
        <time>2018-02-10T09:13:14Z</time>
      </trkpt>
      <trkpt lat="45.28153" lon="6.16254">
        <ele>1854.04</ele>
        <time>2018-02-10T09:13:30Z</time>
      </trkpt>
      <trkpt lat="45.28154" lon="6.16244">
        <ele>1856.44</ele>
        <time>2018-02-10T09:13:43Z</time>
      </trkpt>
      <trkpt lat="45.28156" lon="6.16233">
        <ele>1859.33</ele>
        <time>2018-02-10T09:13:59Z</time>
      </trkpt>
      <trkpt lat="45.2816" lon="6.16223">
        <ele>1862.69</ele>
        <time>2018-02-10T09:14:15Z</time>
      </trkpt>
      <trkpt lat="45.28163" lon="6.16215">
        <ele>1866.06</ele>
        <time>2018-02-10T09:14:30Z</time>
      </trkpt>
      <trkpt lat="45.28164" lon="6.16204">
        <ele>1868.46</ele>
        <time>2018-02-10T09:14:46Z</time>
      </trkpt>
      <trkpt lat="45.28165" lon="6.16194">
        <ele>1871.34</ele>
        <time>2018-02-10T09:15:01Z</time>
      </trkpt>
      <trkpt lat="45.28168" lon="6.16188">
        <ele>1873.75</ele>
        <time>2018-02-10T09:15:12Z</time>
      </trkpt>
      <trkpt lat="45.28173" lon="6.16182">
        <ele>1875.67</ele>
        <time>2018-02-10T09:15:26Z</time>
      </trkpt>
      <trkpt lat="45.28177" lon="6.16181">
        <ele>1876.63</ele>
        <time>2018-02-10T09:15:42Z</time>
      </trkpt>
      <trkpt lat="45.2818" lon="6.1618">
        <ele>1877.59</ele>
        <time>2018-02-10T09:16:06Z</time>
      </trkpt>
      <trkpt lat="45.28179" lon="6.1618">
        <ele>1877.11</ele>
        <time>2018-02-10T09:16:32Z</time>
      </trkpt>
      <trkpt lat="45.28178" lon="6.16178">
        <ele>1876.63</ele>
        <time>2018-02-10T09:16:51Z</time>
      </trkpt>
      <trkpt lat="45.28178" lon="6.16178">
        <ele>1877.11</ele>
        <time>2018-02-10T09:17:27Z</time>
      </trkpt>
      <trkpt lat="45.28176" lon="6.16179">
        <ele>1876.15</ele>
        <time>2018-02-10T09:17:55Z</time>
      </trkpt>
      <trkpt lat="45.28178" lon="6.1618">
        <ele>1876.15</ele>
        <time>2018-02-10T09:18:20Z</time>
      </trkpt>
      <trkpt lat="45.28179" lon="6.16179">
        <ele>1876.63</ele>
        <time>2018-02-10T09:18:41Z</time>
      </trkpt>
      <trkpt lat="45.28175" lon="6.16177">
        <ele>1876.63</ele>
        <time>2018-02-10T09:19:08Z</time>
      </trkpt>
      <trkpt lat="45.2818" lon="6.16179">
        <ele>1876.15</ele>
        <time>2018-02-10T09:19:44Z</time>
      </trkpt>
      <trkpt lat="45.28178" lon="6.16178">
        <ele>1876.15</ele>
        <time>2018-02-10T09:20:25Z</time>
      </trkpt>
      <trkpt lat="45.28178" lon="6.1618">
        <ele>1876.15</ele>
        <time>2018-02-10T09:20:50Z</time>
      </trkpt>
      <trkpt lat="45.28178" lon="6.1618">
        <ele>1876.15</ele>
        <time>2018-02-10T09:21:03Z</time>
      </trkpt>
      <trkpt lat="45.28176" lon="6.1618">
        <ele>1876.15</ele>
        <time>2018-02-10T09:21:33Z</time>
      </trkpt>
      <trkpt lat="45.28182" lon="6.16179">
        <ele>1877.59</ele>
        <time>2018-02-10T09:21:58Z</time>
      </trkpt>
      <trkpt lat="45.28191" lon="6.16175">
        <ele>1880.96</ele>
        <time>2018-02-10T09:22:19Z</time>
      </trkpt>
      <trkpt lat="45.28189" lon="6.16174">
        <ele>1880.96</ele>
        <time>2018-02-10T09:22:42Z</time>
      </trkpt>
      <trkpt lat="45.28185" lon="6.16165">
        <ele>1880.48</ele>
        <time>2018-02-10T09:23:17Z</time>
      </trkpt>
      <trkpt lat="45.28184" lon="6.16176">
        <ele>1880.96</ele>
        <time>2018-02-10T09:23:41Z</time>
      </trkpt>
      <trkpt lat="45.2818" lon="6.16175">
        <ele>1880.48</ele>
        <time>2018-02-10T09:24:18Z</time>
      </trkpt>
      <trkpt lat="45.28187" lon="6.16172">
        <ele>1880</ele>
        <time>2018-02-10T09:24:47Z</time>
      </trkpt>
      <trkpt lat="45.28182" lon="6.16175">
        <ele>1880</ele>
        <time>2018-02-10T09:25:13Z</time>
      </trkpt>
      <trkpt lat="45.28192" lon="6.16176">
        <ele>1881.44</ele>
        <time>2018-02-10T09:25:32Z</time>
      </trkpt>
      <trkpt lat="45.28203" lon="6.16176">
        <ele>1884.8</ele>
        <time>2018-02-10T09:25:48Z</time>
      </trkpt>
      <trkpt lat="45.28212" lon="6.16171">
        <ele>1887.69</ele>
        <time>2018-02-10T09:26:05Z</time>
      </trkpt>
      <trkpt lat="45.28219" lon="6.16167">
        <ele>1891.05</ele>
        <time>2018-02-10T09:26:20Z</time>
      </trkpt>
      <trkpt lat="45.28231" lon="6.16169">
        <ele>1893.45</ele>
        <time>2018-02-10T09:26:35Z</time>
      </trkpt>
      <trkpt lat="45.28238" lon="6.16164">
        <ele>1896.34</ele>
        <time>2018-02-10T09:26:52Z</time>
      </trkpt>
      <trkpt lat="45.28244" lon="6.16157">
        <ele>1898.26</ele>
        <time>2018-02-10T09:27:06Z</time>
      </trkpt>
      <trkpt lat="45.28247" lon="6.16152">
        <ele>1900.66</ele>
        <time>2018-02-10T09:27:18Z</time>
      </trkpt>
      <trkpt lat="45.28255" lon="6.16145">
        <ele>1903.07</ele>
        <time>2018-02-10T09:27:34Z</time>
      </trkpt>
      <trkpt lat="45.28262" lon="6.16134">
        <ele>1906.43</ele>
        <time>2018-02-10T09:27:54Z</time>
      </trkpt>
      <trkpt lat="45.28267" lon="6.16124">
        <ele>1909.32</ele>
        <time>2018-02-10T09:28:10Z</time>
      </trkpt>
      <trkpt lat="45.28272" lon="6.16115">
        <ele>1911.72</ele>
        <time>2018-02-10T09:28:27Z</time>
      </trkpt>
      <trkpt lat="45.28278" lon="6.1611">
        <ele>1914.6</ele>
        <time>2018-02-10T09:28:43Z</time>
      </trkpt>
      <trkpt lat="45.28282" lon="6.16099">
        <ele>1917.97</ele>
        <time>2018-02-10T09:28:57Z</time>
      </trkpt>
      <trkpt lat="45.28287" lon="6.16093">
        <ele>1920.37</ele>
        <time>2018-02-10T09:29:14Z</time>
      </trkpt>
      <trkpt lat="45.2829" lon="6.16082">
        <ele>1922.77</ele>
        <time>2018-02-10T09:29:28Z</time>
      </trkpt>
      <trkpt lat="45.28288" lon="6.16072">
        <ele>1924.7</ele>
        <time>2018-02-10T09:29:41Z</time>
      </trkpt>
      <trkpt lat="45.28291" lon="6.16061">
        <ele>1927.1</ele>
        <time>2018-02-10T09:29:56Z</time>
      </trkpt>
      <trkpt lat="45.283" lon="6.16061">
        <ele>1929.98</ele>
        <time>2018-02-10T09:30:12Z</time>
      </trkpt>
      <trkpt lat="45.28309" lon="6.16063">
        <ele>1933.35</ele>
        <time>2018-02-10T09:30:29Z</time>
      </trkpt>
      <trkpt lat="45.28317" lon="6.16062">
        <ele>1936.23</ele>
        <time>2018-02-10T09:30:46Z</time>
      </trkpt>
      <trkpt lat="45.28321" lon="6.16051">
        <ele>1938.64</ele>
        <time>2018-02-10T09:31:02Z</time>
      </trkpt>
      <trkpt lat="45.28326" lon="6.16041">
        <ele>1942</ele>
        <time>2018-02-10T09:31:18Z</time>
      </trkpt>
      <trkpt lat="45.28332" lon="6.16033">
        <ele>1944.4</ele>
        <time>2018-02-10T09:31:36Z</time>
      </trkpt>
      <trkpt lat="45.2834" lon="6.16031">
        <ele>1947.77</ele>
        <time>2018-02-10T09:31:50Z</time>
      </trkpt>
      <trkpt lat="45.28349" lon="6.16025">
        <ele>1950.65</ele>
        <time>2018-02-10T09:32:08Z</time>
      </trkpt>
      <trkpt lat="45.28346" lon="6.16016">
        <ele>1952.57</ele>
        <time>2018-02-10T09:32:21Z</time>
      </trkpt>
      <trkpt lat="45.28343" lon="6.16006">
        <ele>1955.46</ele>
        <time>2018-02-10T09:32:36Z</time>
      </trkpt>
      <trkpt lat="45.28352" lon="6.15993">
        <ele>1958.82</ele>
        <time>2018-02-10T09:32:56Z</time>
      </trkpt>
      <trkpt lat="45.28356" lon="6.15986">
        <ele>1961.71</ele>
        <time>2018-02-10T09:33:11Z</time>
      </trkpt>
      <trkpt lat="45.28362" lon="6.15976">
        <ele>1963.63</ele>
        <time>2018-02-10T09:33:28Z</time>
      </trkpt>
      <trkpt lat="45.2836" lon="6.15967">
        <ele>1966.51</ele>
        <time>2018-02-10T09:33:42Z</time>
      </trkpt>
      <trkpt lat="45.28362" lon="6.15958">
        <ele>1967.96</ele>
        <time>2018-02-10T09:33:56Z</time>
      </trkpt>
      <trkpt lat="45.28362" lon="6.15953">
        <ele>1971.32</ele>
        <time>2018-02-10T09:34:10Z</time>
      </trkpt>
      <trkpt lat="45.28362" lon="6.15943">
        <ele>1974.2</ele>
        <time>2018-02-10T09:34:23Z</time>
      </trkpt>
      <trkpt lat="45.28368" lon="6.15935">
        <ele>1976.13</ele>
        <time>2018-02-10T09:34:38Z</time>
      </trkpt>
      <trkpt lat="45.28368" lon="6.15922">
        <ele>1978.53</ele>
        <time>2018-02-10T09:34:53Z</time>
      </trkpt>
      <trkpt lat="45.28366" lon="6.15908">
        <ele>1980.93</ele>
        <time>2018-02-10T09:35:08Z</time>
      </trkpt>
      <trkpt lat="45.2837" lon="6.15894">
        <ele>1982.38</ele>
        <time>2018-02-10T09:35:22Z</time>
      </trkpt>
      <trkpt lat="45.2837" lon="6.15882">
        <ele>1984.3</ele>
        <time>2018-02-10T09:35:36Z</time>
      </trkpt>
      <trkpt lat="45.28372" lon="6.15868">
        <ele>1987.18</ele>
        <time>2018-02-10T09:35:53Z</time>
      </trkpt>
      <trkpt lat="45.28377" lon="6.15863">
        <ele>1989.59</ele>
        <time>2018-02-10T09:36:07Z</time>
      </trkpt>
      <trkpt lat="45.28389" lon="6.15861">
        <ele>1992.47</ele>
        <time>2018-02-10T09:36:25Z</time>
      </trkpt>
      <trkpt lat="45.28395" lon="6.15855">
        <ele>1995.83</ele>
        <time>2018-02-10T09:36:43Z</time>
      </trkpt>
      <trkpt lat="45.28393" lon="6.15839">
        <ele>1997.76</ele>
        <time>2018-02-10T09:36:59Z</time>
      </trkpt>
      <trkpt lat="45.28392" lon="6.15828">
        <ele>2000.16</ele>
        <time>2018-02-10T09:37:14Z</time>
      </trkpt>
      <trkpt lat="45.28394" lon="6.15816">
        <ele>2001.6</ele>
        <time>2018-02-10T09:37:27Z</time>
      </trkpt>
      <trkpt lat="45.28397" lon="6.15803">
        <ele>2003.52</ele>
        <time>2018-02-10T09:37:41Z</time>
      </trkpt>
      <trkpt lat="45.284" lon="6.15793">
        <ele>2005.93</ele>
        <time>2018-02-10T09:37:54Z</time>
      </trkpt>
      <trkpt lat="45.2841" lon="6.15788">
        <ele>2008.81</ele>
        <time>2018-02-10T09:38:12Z</time>
      </trkpt>
      <trkpt lat="45.2841" lon="6.15775">
        <ele>2011.22</ele>
        <time>2018-02-10T09:38:28Z</time>
      </trkpt>
      <trkpt lat="45.28408" lon="6.15763">
        <ele>2013.62</ele>
        <time>2018-02-10T09:38:46Z</time>
      </trkpt>
      <trkpt lat="45.28406" lon="6.15758">
        <ele>2016.02</ele>
        <time>2018-02-10T09:38:57Z</time>
      </trkpt>
      <trkpt lat="45.28406" lon="6.15743">
        <ele>2017.94</ele>
        <time>2018-02-10T09:39:11Z</time>
      </trkpt>
      <trkpt lat="45.28411" lon="6.15733">
        <ele>2020.83</ele>
        <time>2018-02-10T09:39:28Z</time>
      </trkpt>
      <trkpt lat="45.2842" lon="6.1574">
        <ele>2022.75</ele>
        <time>2018-02-10T09:39:44Z</time>
      </trkpt>
      <trkpt lat="45.28429" lon="6.15741">
        <ele>2025.64</ele>
        <time>2018-02-10T09:40:01Z</time>
      </trkpt>
      <trkpt lat="45.28426" lon="6.1573">
        <ele>2027.56</ele>
        <time>2018-02-10T09:40:15Z</time>
      </trkpt>
      <trkpt lat="45.28423" lon="6.15718">
        <ele>2029.48</ele>
        <time>2018-02-10T09:40:28Z</time>
      </trkpt>
      <trkpt lat="45.28423" lon="6.15703">
        <ele>2031.88</ele>
        <time>2018-02-10T09:40:45Z</time>
      </trkpt>
      <trkpt lat="45.28433" lon="6.15702">
        <ele>2033.33</ele>
        <time>2018-02-10T09:40:59Z</time>
      </trkpt>
      <trkpt lat="45.28439" lon="6.15698">
        <ele>2036.69</ele>
        <time>2018-02-10T09:41:15Z</time>
      </trkpt>
      <trkpt lat="45.28441" lon="6.15688">
        <ele>2038.61</ele>
        <time>2018-02-10T09:41:31Z</time>
      </trkpt>
      <trkpt lat="45.28439" lon="6.15677">
        <ele>2040.54</ele>
        <time>2018-02-10T09:41:45Z</time>
      </trkpt>
      <trkpt lat="45.28439" lon="6.15668">
        <ele>2042.94</ele>
        <time>2018-02-10T09:41:59Z</time>
      </trkpt>
      <trkpt lat="45.28444" lon="6.15668">
        <ele>2043.9</ele>
        <time>2018-02-10T09:42:13Z</time>
      </trkpt>
      <trkpt lat="45.28454" lon="6.1567">
        <ele>2047.75</ele>
        <time>2018-02-10T09:42:33Z</time>
      </trkpt>
      <trkpt lat="45.28461" lon="6.15667">
        <ele>2050.15</ele>
        <time>2018-02-10T09:42:52Z</time>
      </trkpt>
      <trkpt lat="45.28457" lon="6.15659">
        <ele>2051.59</ele>
        <time>2018-02-10T09:43:08Z</time>
      </trkpt>
      <trkpt lat="45.28454" lon="6.15649">
        <ele>2053.51</ele>
        <time>2018-02-10T09:43:23Z</time>
      </trkpt>
      <trkpt lat="45.28451" lon="6.1564">
        <ele>2055.92</ele>
        <time>2018-02-10T09:43:37Z</time>
      </trkpt>
      <trkpt lat="45.28449" lon="6.15632">
        <ele>2058.8</ele>
        <time>2018-02-10T09:43:51Z</time>
      </trkpt>
      <trkpt lat="45.28446" lon="6.15622">
        <ele>2060.72</ele>
        <time>2018-02-10T09:44:06Z</time>
      </trkpt>
      <trkpt lat="45.28445" lon="6.15614">
        <ele>2063.13</ele>
        <time>2018-02-10T09:44:19Z</time>
      </trkpt>
      <trkpt lat="45.28443" lon="6.15604">
        <ele>2065.53</ele>
        <time>2018-02-10T09:44:34Z</time>
      </trkpt>
      <trkpt lat="45.28443" lon="6.15596">
        <ele>2067.93</ele>
        <time>2018-02-10T09:44:48Z</time>
      </trkpt>
      <trkpt lat="45.28443" lon="6.15588">
        <ele>2070.34</ele>
        <time>2018-02-10T09:45:03Z</time>
      </trkpt>
      <trkpt lat="45.28443" lon="6.15577">
        <ele>2072.74</ele>
        <time>2018-02-10T09:45:20Z</time>
      </trkpt>
      <trkpt lat="45.28442" lon="6.15568">
        <ele>2076.1</ele>
        <time>2018-02-10T09:45:36Z</time>
      </trkpt>
      <trkpt lat="45.28441" lon="6.15557">
        <ele>2078.03</ele>
        <time>2018-02-10T09:45:51Z</time>
      </trkpt>
      <trkpt lat="45.28442" lon="6.15545">
        <ele>2080.43</ele>
        <time>2018-02-10T09:46:06Z</time>
      </trkpt>
      <trkpt lat="45.28441" lon="6.15535">
        <ele>2082.35</ele>
        <time>2018-02-10T09:46:21Z</time>
      </trkpt>
      <trkpt lat="45.2844" lon="6.15525">
        <ele>2085.72</ele>
        <time>2018-02-10T09:46:38Z</time>
      </trkpt>
      <trkpt lat="45.28439" lon="6.15512">
        <ele>2088.12</ele>
        <time>2018-02-10T09:46:54Z</time>
      </trkpt>
      <trkpt lat="45.28439" lon="6.15502">
        <ele>2090.52</ele>
        <time>2018-02-10T09:47:09Z</time>
      </trkpt>
      <trkpt lat="45.28442" lon="6.15495">
        <ele>2092.93</ele>
        <time>2018-02-10T09:47:23Z</time>
      </trkpt>
      <trkpt lat="45.28447" lon="6.15483">
        <ele>2095.33</ele>
        <time>2018-02-10T09:47:42Z</time>
      </trkpt>
      <trkpt lat="45.28454" lon="6.15487">
        <ele>2097.73</ele>
        <time>2018-02-10T09:47:59Z</time>
      </trkpt>
      <trkpt lat="45.28463" lon="6.15488">
        <ele>2099.66</ele>
        <time>2018-02-10T09:48:19Z</time>
      </trkpt>
      <trkpt lat="45.28459" lon="6.1548">
        <ele>2101.58</ele>
        <time>2018-02-10T09:48:33Z</time>
      </trkpt>
      <trkpt lat="45.28458" lon="6.15467">
        <ele>2103.02</ele>
        <time>2018-02-10T09:48:50Z</time>
      </trkpt>
      <trkpt lat="45.28457" lon="6.15455">
        <ele>2104.94</ele>
        <time>2018-02-10T09:49:06Z</time>
      </trkpt>
      <trkpt lat="45.28454" lon="6.15447">
        <ele>2107.35</ele>
        <time>2018-02-10T09:49:21Z</time>
      </trkpt>
      <trkpt lat="45.28462" lon="6.15442">
        <ele>2109.75</ele>
        <time>2018-02-10T09:49:37Z</time>
      </trkpt>
      <trkpt lat="45.2847" lon="6.15449">
        <ele>2112.15</ele>
        <time>2018-02-10T09:49:53Z</time>
      </trkpt>
      <trkpt lat="45.28469" lon="6.15439">
        <ele>2113.6</ele>
        <time>2018-02-10T09:50:07Z</time>
      </trkpt>
      <trkpt lat="45.28469" lon="6.15426">
        <ele>2115.52</ele>
        <time>2018-02-10T09:50:22Z</time>
      </trkpt>
      <trkpt lat="45.28473" lon="6.15416">
        <ele>2117.44</ele>
        <time>2018-02-10T09:50:38Z</time>
      </trkpt>
      <trkpt lat="45.28475" lon="6.15406">
        <ele>2120.32</ele>
        <time>2018-02-10T09:50:55Z</time>
      </trkpt>
      <trkpt lat="45.28476" lon="6.15395">
        <ele>2122.25</ele>
        <time>2018-02-10T09:51:11Z</time>
      </trkpt>
      <trkpt lat="45.28477" lon="6.15382">
        <ele>2125.61</ele>
        <time>2018-02-10T09:51:28Z</time>
      </trkpt>
      <trkpt lat="45.28478" lon="6.15374">
        <ele>2128.5</ele>
        <time>2018-02-10T09:51:46Z</time>
      </trkpt>
      <trkpt lat="45.28476" lon="6.15362">
        <ele>2131.38</ele>
        <time>2018-02-10T09:52:02Z</time>
      </trkpt>
      <trkpt lat="45.28476" lon="6.15352">
        <ele>2133.78</ele>
        <time>2018-02-10T09:52:17Z</time>
      </trkpt>
      <trkpt lat="45.28476" lon="6.1534">
        <ele>2135.71</ele>
        <time>2018-02-10T09:52:34Z</time>
      </trkpt>
      <trkpt lat="45.2848" lon="6.15333">
        <ele>2137.63</ele>
        <time>2018-02-10T09:52:48Z</time>
      </trkpt>
      <trkpt lat="45.28478" lon="6.15325">
        <ele>2140.51</ele>
        <time>2018-02-10T09:53:03Z</time>
      </trkpt>
      <trkpt lat="45.28482" lon="6.15316">
        <ele>2142.92</ele>
        <time>2018-02-10T09:53:18Z</time>
      </trkpt>
      <trkpt lat="45.28487" lon="6.15312">
        <ele>2145.32</ele>
        <time>2018-02-10T09:53:30Z</time>
      </trkpt>
      <trkpt lat="45.28495" lon="6.15312">
        <ele>2147.72</ele>
        <time>2018-02-10T09:53:45Z</time>
      </trkpt>
      <trkpt lat="45.28498" lon="6.15312">
        <ele>2148.2</ele>
        <time>2018-02-10T09:53:49Z</time>
      </trkpt>
      <trkpt lat="45.28501" lon="6.15309">
        <ele>2150.61</ele>
        <time>2018-02-10T09:54:01Z</time>
      </trkpt>
      <trkpt lat="45.28501" lon="6.15301">
        <ele>2151.57</ele>
        <time>2018-02-10T09:54:13Z</time>
      </trkpt>
      <trkpt lat="45.28503" lon="6.1529">
        <ele>2153.97</ele>
        <time>2018-02-10T09:54:27Z</time>
      </trkpt>
      <trkpt lat="45.28503" lon="6.15279">
        <ele>2155.89</ele>
        <time>2018-02-10T09:54:41Z</time>
      </trkpt>
      <trkpt lat="45.28503" lon="6.15275">
        <ele>2156.86</ele>
        <time>2018-02-10T09:54:54Z</time>
      </trkpt>
      <trkpt lat="45.28506" lon="6.15278">
        <ele>2158.3</ele>
        <time>2018-02-10T09:55:09Z</time>
      </trkpt>
      <trkpt lat="45.28511" lon="6.15282">
        <ele>2159.74</ele>
        <time>2018-02-10T09:55:22Z</time>
      </trkpt>
      <trkpt lat="45.28516" lon="6.15287">
        <ele>2162.14</ele>
        <time>2018-02-10T09:55:36Z</time>
      </trkpt>
      <trkpt lat="45.28518" lon="6.15286">
        <ele>2162.62</ele>
        <time>2018-02-10T09:55:47Z</time>
      </trkpt>
      <trkpt lat="45.28517" lon="6.15278">
        <ele>2163.58</ele>
        <time>2018-02-10T09:55:59Z</time>
      </trkpt>
      <trkpt lat="45.28518" lon="6.15267">
        <ele>2165.51</ele>
        <time>2018-02-10T09:56:14Z</time>
      </trkpt>
      <trkpt lat="45.28517" lon="6.15257">
        <ele>2168.39</ele>
        <time>2018-02-10T09:56:30Z</time>
      </trkpt>
      <trkpt lat="45.28519" lon="6.15247">
        <ele>2171.76</ele>
        <time>2018-02-10T09:56:46Z</time>
      </trkpt>
      <trkpt lat="45.28527" lon="6.15247">
        <ele>2174.16</ele>
        <time>2018-02-10T09:57:02Z</time>
      </trkpt>
      <trkpt lat="45.28535" lon="6.15247">
        <ele>2176.56</ele>
        <time>2018-02-10T09:57:20Z</time>
      </trkpt>
      <trkpt lat="45.28534" lon="6.1524">
        <ele>2178</ele>
        <time>2018-02-10T09:57:33Z</time>
      </trkpt>
      <trkpt lat="45.28533" lon="6.15233">
        <ele>2179.93</ele>
        <time>2018-02-10T09:57:49Z</time>
      </trkpt>
      <trkpt lat="45.28529" lon="6.15232">
        <ele>2179.93</ele>
        <time>2018-02-10T09:58:12Z</time>
      </trkpt>
      <trkpt lat="45.2853" lon="6.15234">
        <ele>2180.41</ele>
        <time>2018-02-10T09:58:19Z</time>
      </trkpt>
      <trkpt lat="45.2853" lon="6.15233">
        <ele>2179.93</ele>
        <time>2018-02-10T09:58:45Z</time>
      </trkpt>
      <trkpt lat="45.28531" lon="6.1523">
        <ele>2179.93</ele>
        <time>2018-02-10T09:59:09Z</time>
      </trkpt>
      <trkpt lat="45.28533" lon="6.15233">
        <ele>2179.93</ele>
        <time>2018-02-10T09:59:34Z</time>
      </trkpt>
      <trkpt lat="45.28533" lon="6.15232">
        <ele>2179.93</ele>
        <time>2018-02-10T09:59:53Z</time>
      </trkpt>
      <trkpt lat="45.2853" lon="6.15223">
        <ele>2179.93</ele>
        <time>2018-02-10T10:00:27Z</time>
      </trkpt>
      <trkpt lat="45.28534" lon="6.15226">
        <ele>2179.93</ele>
        <time>2018-02-10T10:00:58Z</time>
      </trkpt>
      <trkpt lat="45.28533" lon="6.1522">
        <ele>2181.37</ele>
        <time>2018-02-10T10:01:17Z</time>
      </trkpt>
      <trkpt lat="45.28536" lon="6.15222">
        <ele>2182.81</ele>
        <time>2018-02-10T10:01:29Z</time>
      </trkpt>
      <trkpt lat="45.2854" lon="6.15222">
        <ele>2185.21</ele>
        <time>2018-02-10T10:01:41Z</time>
      </trkpt>
      <trkpt lat="45.2854" lon="6.15213">
        <ele>2187.62</ele>
        <time>2018-02-10T10:01:58Z</time>
      </trkpt>
      <trkpt lat="45.28541" lon="6.15211">
        <ele>2189.54</ele>
        <time>2018-02-10T10:02:11Z</time>
      </trkpt>
      <trkpt lat="45.28552" lon="6.15215">
        <ele>2191.46</ele>
        <time>2018-02-10T10:02:28Z</time>
      </trkpt>
      <trkpt lat="45.28549" lon="6.15208">
        <ele>2192.9</ele>
        <time>2018-02-10T10:02:41Z</time>
      </trkpt>
      <trkpt lat="45.28545" lon="6.152">
        <ele>2195.79</ele>
        <time>2018-02-10T10:02:56Z</time>
      </trkpt>
      <trkpt lat="45.28547" lon="6.15197">
        <ele>2196.75</ele>
        <time>2018-02-10T10:03:12Z</time>
      </trkpt>
      <trkpt lat="45.28554" lon="6.15196">
        <ele>2198.67</ele>
        <time>2018-02-10T10:03:26Z</time>
      </trkpt>
      <trkpt lat="45.28561" lon="6.152">
        <ele>2200.59</ele>
        <time>2018-02-10T10:03:38Z</time>
      </trkpt>
      <trkpt lat="45.28558" lon="6.15195">
        <ele>2202.04</ele>
        <time>2018-02-10T10:03:50Z</time>
      </trkpt>
      <trkpt lat="45.28556" lon="6.15183">
        <ele>2203.96</ele>
        <time>2018-02-10T10:04:03Z</time>
      </trkpt>
      <trkpt lat="45.28557" lon="6.15173">
        <ele>2205.88</ele>
        <time>2018-02-10T10:04:17Z</time>
      </trkpt>
      <trkpt lat="45.28565" lon="6.15174">
        <ele>2208.29</ele>
        <time>2018-02-10T10:04:32Z</time>
      </trkpt>
      <trkpt lat="45.28574" lon="6.15169">
        <ele>2210.21</ele>
        <time>2018-02-10T10:04:45Z</time>
      </trkpt>
      <trkpt lat="45.28581" lon="6.15164">
        <ele>2212.13</ele>
        <time>2018-02-10T10:04:59Z</time>
      </trkpt>
      <trkpt lat="45.28587" lon="6.15162">
        <ele>2215.5</ele>
        <time>2018-02-10T10:05:13Z</time>
      </trkpt>
      <trkpt lat="45.28595" lon="6.15153">
        <ele>2217.9</ele>
        <time>2018-02-10T10:05:29Z</time>
      </trkpt>
      <trkpt lat="45.28601" lon="6.15148">
        <ele>2220.3</ele>
        <time>2018-02-10T10:05:44Z</time>
      </trkpt>
      <trkpt lat="45.28604" lon="6.15142">
        <ele>2222.22</ele>
        <time>2018-02-10T10:05:56Z</time>
      </trkpt>
      <trkpt lat="45.2861" lon="6.15136">
        <ele>2225.11</ele>
        <time>2018-02-10T10:06:12Z</time>
      </trkpt>
      <trkpt lat="45.28616" lon="6.15144">
        <ele>2226.55</ele>
        <time>2018-02-10T10:06:25Z</time>
      </trkpt>
      <trkpt lat="45.28623" lon="6.15153">
        <ele>2229.43</ele>
        <time>2018-02-10T10:06:39Z</time>
      </trkpt>
      <trkpt lat="45.28628" lon="6.15153">
        <ele>2230.4</ele>
        <time>2018-02-10T10:06:54Z</time>
      </trkpt>
      <trkpt lat="45.28631" lon="6.15142">
        <ele>2231.84</ele>
        <time>2018-02-10T10:07:07Z</time>
      </trkpt>
      <trkpt lat="45.28637" lon="6.15135">
        <ele>2233.76</ele>
        <time>2018-02-10T10:07:20Z</time>
      </trkpt>
      <trkpt lat="45.28642" lon="6.15124">
        <ele>2237.13</ele>
        <time>2018-02-10T10:07:34Z</time>
      </trkpt>
      <trkpt lat="45.28643" lon="6.15113">
        <ele>2238.09</ele>
        <time>2018-02-10T10:07:48Z</time>
      </trkpt>
      <trkpt lat="45.28649" lon="6.151">
        <ele>2239.05</ele>
        <time>2018-02-10T10:08:03Z</time>
      </trkpt>
      <trkpt lat="45.28649" lon="6.15093">
        <ele>2240.49</ele>
        <time>2018-02-10T10:08:16Z</time>
      </trkpt>
      <trkpt lat="45.28649" lon="6.15085">
        <ele>2241.93</ele>
        <time>2018-02-10T10:08:28Z</time>
      </trkpt>
      <trkpt lat="45.28651" lon="6.15076">
        <ele>2244.33</ele>
        <time>2018-02-10T10:08:43Z</time>
      </trkpt>
      <trkpt lat="45.28643" lon="6.1508">
        <ele>2243.85</ele>
        <time>2018-02-10T10:09:07Z</time>
      </trkpt>
      <trkpt lat="45.28645" lon="6.15076">
        <ele>2243.85</ele>
        <time>2018-02-10T10:09:32Z</time>
      </trkpt>
      <trkpt lat="45.28647" lon="6.15066">
        <ele>2245.3</ele>
        <time>2018-02-10T10:09:52Z</time>
      </trkpt>
      <trkpt lat="45.28651" lon="6.15054">
        <ele>2246.74</ele>
        <time>2018-02-10T10:10:06Z</time>
      </trkpt>
      <trkpt lat="45.28655" lon="6.15047">
        <ele>2249.14</ele>
        <time>2018-02-10T10:10:21Z</time>
      </trkpt>
      <trkpt lat="45.28658" lon="6.15037">
        <ele>2252.51</ele>
        <time>2018-02-10T10:10:37Z</time>
      </trkpt>
      <trkpt lat="45.28656" lon="6.15026">
        <ele>2254.91</ele>
        <time>2018-02-10T10:10:54Z</time>
      </trkpt>
      <trkpt lat="45.28653" lon="6.15014">
        <ele>2258.75</ele>
        <time>2018-02-10T10:11:10Z</time>
      </trkpt>
      <trkpt lat="45.28655" lon="6.15006">
        <ele>2261.16</ele>
        <time>2018-02-10T10:11:24Z</time>
      </trkpt>
      <trkpt lat="45.2866" lon="6.14996">
        <ele>2262.6</ele>
        <time>2018-02-10T10:11:38Z</time>
      </trkpt>
      <trkpt lat="45.28668" lon="6.15001">
        <ele>2264.52</ele>
        <time>2018-02-10T10:11:51Z</time>
      </trkpt>
      <trkpt lat="45.2867" lon="6.1501">
        <ele>2266.93</ele>
        <time>2018-02-10T10:12:06Z</time>
      </trkpt>
      <trkpt lat="45.28675" lon="6.15016">
        <ele>2268.85</ele>
        <time>2018-02-10T10:12:19Z</time>
      </trkpt>
      <trkpt lat="45.28683" lon="6.15023">
        <ele>2271.25</ele>
        <time>2018-02-10T10:12:36Z</time>
      </trkpt>
      <trkpt lat="45.28687" lon="6.15024">
        <ele>2272.69</ele>
        <time>2018-02-10T10:12:50Z</time>
      </trkpt>
      <trkpt lat="45.28692" lon="6.15027">
        <ele>2274.62</ele>
        <time>2018-02-10T10:13:04Z</time>
      </trkpt>
      <trkpt lat="45.28699" lon="6.15027">
        <ele>2277.02</ele>
        <time>2018-02-10T10:13:23Z</time>
      </trkpt>
      <trkpt lat="45.28706" lon="6.15029">
        <ele>2278.94</ele>
        <time>2018-02-10T10:13:39Z</time>
      </trkpt>
      <trkpt lat="45.28711" lon="6.15033">
        <ele>2280.38</ele>
        <time>2018-02-10T10:13:55Z</time>
      </trkpt>
      <trkpt lat="45.28718" lon="6.15033">
        <ele>2281.83</ele>
        <time>2018-02-10T10:14:09Z</time>
      </trkpt>
      <trkpt lat="45.28726" lon="6.15025">
        <ele>2284.71</ele>
        <time>2018-02-10T10:14:29Z</time>
      </trkpt>
      <trkpt lat="45.28729" lon="6.15023">
        <ele>2287.11</ele>
        <time>2018-02-10T10:14:44Z</time>
      </trkpt>
      <trkpt lat="45.2872" lon="6.1502">
        <ele>2288.08</ele>
        <time>2018-02-10T10:14:59Z</time>
      </trkpt>
      <trkpt lat="45.28714" lon="6.15014">
        <ele>2290.48</ele>
        <time>2018-02-10T10:15:15Z</time>
      </trkpt>
      <trkpt lat="45.28708" lon="6.15007">
        <ele>2290.96</ele>
        <time>2018-02-10T10:15:34Z</time>
      </trkpt>
      <trkpt lat="45.28705" lon="6.15012">
        <ele>2291.92</ele>
        <time>2018-02-10T10:16:03Z</time>
      </trkpt>
      <trkpt lat="45.28708" lon="6.15011">
        <ele>2292.88</ele>
        <time>2018-02-10T10:16:20Z</time>
      </trkpt>
      <trkpt lat="45.28707" lon="6.15006">
        <ele>2293.84</ele>
        <time>2018-02-10T10:16:32Z</time>
      </trkpt>
      <trkpt lat="45.28708" lon="6.15006">
        <ele>2293.84</ele>
        <time>2018-02-10T10:16:49Z</time>
      </trkpt>
      <trkpt lat="45.28707" lon="6.15012">
        <ele>2294.32</ele>
        <time>2018-02-10T10:17:13Z</time>
      </trkpt>
      <trkpt lat="45.28704" lon="6.15005">
        <ele>2294.8</ele>
        <time>2018-02-10T10:17:28Z</time>
      </trkpt>
      <trkpt lat="45.28704" lon="6.15004">
        <ele>2295.77</ele>
        <time>2018-02-10T10:17:40Z</time>
      </trkpt>
      <trkpt lat="45.28702" lon="6.14989">
        <ele>2297.21</ele>
        <time>2018-02-10T10:18:01Z</time>
      </trkpt>
      <trkpt lat="45.28721" lon="6.14996">
        <ele>2299.13</ele>
        <time>2018-02-10T10:18:17Z</time>
      </trkpt>
      <trkpt lat="45.28722" lon="6.14999">
        <ele>2300.57</ele>
        <time>2018-02-10T10:18:33Z</time>
      </trkpt>
      <trkpt lat="45.28728" lon="6.14998">
        <ele>2301.05</ele>
        <time>2018-02-10T10:18:44Z</time>
      </trkpt>
      <trkpt lat="45.28726" lon="6.14997">
        <ele>2302.01</ele>
        <time>2018-02-10T10:18:59Z</time>
      </trkpt>
      <trkpt lat="45.2872" lon="6.14994">
        <ele>2302.49</ele>
        <time>2018-02-10T10:19:15Z</time>
      </trkpt>
      <trkpt lat="45.2872" lon="6.14993">
        <ele>2302.49</ele>
        <time>2018-02-10T10:19:49Z</time>
      </trkpt>
      <trkpt lat="45.28716" lon="6.14986">
        <ele>2303.46</ele>
        <time>2018-02-10T10:20:04Z</time>
      </trkpt>
      <trkpt lat="45.28712" lon="6.14979">
        <ele>2304.9</ele>
        <time>2018-02-10T10:20:19Z</time>
      </trkpt>
      <trkpt lat="45.28716" lon="6.14986">
        <ele>2305.86</ele>
        <time>2018-02-10T10:20:33Z</time>
      </trkpt>
      <trkpt lat="45.28725" lon="6.14994">
        <ele>2305.86</ele>
        <time>2018-02-10T10:20:45Z</time>
      </trkpt>
      <trkpt lat="45.28722" lon="6.14989">
        <ele>2307.3</ele>
        <time>2018-02-10T10:21:00Z</time>
      </trkpt>
      <trkpt lat="45.28716" lon="6.14976">
        <ele>2308.26</ele>
        <time>2018-02-10T10:21:15Z</time>
      </trkpt>
      <trkpt lat="45.28711" lon="6.14968">
        <ele>2309.22</ele>
        <time>2018-02-10T10:21:29Z</time>
      </trkpt>
      <trkpt lat="45.28715" lon="6.14975">
        <ele>2310.19</ele>
        <time>2018-02-10T10:21:45Z</time>
      </trkpt>
      <trkpt lat="45.28721" lon="6.14982">
        <ele>2310.67</ele>
        <time>2018-02-10T10:21:58Z</time>
      </trkpt>
      <trkpt lat="45.28726" lon="6.14983">
        <ele>2312.11</ele>
        <time>2018-02-10T10:22:10Z</time>
      </trkpt>
      <trkpt lat="45.28735" lon="6.14974">
        <ele>2314.51</ele>
        <time>2018-02-10T10:22:23Z</time>
      </trkpt>
      <trkpt lat="45.28741" lon="6.14973">
        <ele>2314.51</ele>
        <time>2018-02-10T10:22:46Z</time>
      </trkpt>
      <trkpt lat="45.28741" lon="6.14971">
        <ele>2314.99</ele>
        <time>2018-02-10T10:23:04Z</time>
      </trkpt>
      <trkpt lat="45.2874" lon="6.14968">
        <ele>2315.47</ele>
        <time>2018-02-10T10:23:24Z</time>
      </trkpt>
      <trkpt lat="45.28731" lon="6.14973">
        <ele>2315.47</ele>
        <time>2018-02-10T10:23:59Z</time>
      </trkpt>
      <trkpt lat="45.28726" lon="6.14972">
        <ele>2315.95</ele>
        <time>2018-02-10T10:24:40Z</time>
      </trkpt>
      <trkpt lat="45.28724" lon="6.14971">
        <ele>2315.47</ele>
        <time>2018-02-10T10:25:14Z</time>
      </trkpt>
      <trkpt lat="45.28725" lon="6.14972">
        <ele>2314.99</ele>
        <time>2018-02-10T10:25:50Z</time>
      </trkpt>
      <trkpt lat="45.28728" lon="6.14965">
        <ele>2315.47</ele>
        <time>2018-02-10T10:26:25Z</time>
      </trkpt>
      <trkpt lat="45.2873" lon="6.14966">
        <ele>2316.43</ele>
        <time>2018-02-10T10:26:41Z</time>
      </trkpt>
      <trkpt lat="45.28729" lon="6.14968">
        <ele>2315.95</ele>
        <time>2018-02-10T10:27:00Z</time>
      </trkpt>
      <trkpt lat="45.28725" lon="6.14966">
        <ele>2315.95</ele>
        <time>2018-02-10T10:27:27Z</time>
      </trkpt>
      <trkpt lat="45.28725" lon="6.14959">
        <ele>2317.4</ele>
        <time>2018-02-10T10:27:46Z</time>
      </trkpt>
      <trkpt lat="45.28726" lon="6.14952">
        <ele>2319.32</ele>
        <time>2018-02-10T10:28:03Z</time>
      </trkpt>
      <trkpt lat="45.28735" lon="6.14959">
        <ele>2319.8</ele>
        <time>2018-02-10T10:28:18Z</time>
      </trkpt>
      <trkpt lat="45.28742" lon="6.14963">
        <ele>2321.24</ele>
        <time>2018-02-10T10:28:32Z</time>
      </trkpt>
      <trkpt lat="45.28747" lon="6.14963">
        <ele>2322.68</ele>
        <time>2018-02-10T10:28:46Z</time>
      </trkpt>
      <trkpt lat="45.28749" lon="6.14955">
        <ele>2324.61</ele>
        <time>2018-02-10T10:29:00Z</time>
      </trkpt>
      <trkpt lat="45.28749" lon="6.14953">
        <ele>2325.09</ele>
        <time>2018-02-10T10:29:15Z</time>
      </trkpt>
      <trkpt lat="45.28747" lon="6.14945">
        <ele>2327.97</ele>
        <time>2018-02-10T10:29:32Z</time>
      </trkpt>
      <trkpt lat="45.28744" lon="6.14934">
        <ele>2330.85</ele>
        <time>2018-02-10T10:29:51Z</time>
      </trkpt>
      <trkpt lat="45.28749" lon="6.14936">
        <ele>2330.37</ele>
        <time>2018-02-10T10:30:10Z</time>
      </trkpt>
      <trkpt lat="45.28758" lon="6.14934">
        <ele>2332.3</ele>
        <time>2018-02-10T10:30:24Z</time>
      </trkpt>
      <trkpt lat="45.28762" lon="6.14933">
        <ele>2333.74</ele>
        <time>2018-02-10T10:30:38Z</time>
      </trkpt>
      <trkpt lat="45.28766" lon="6.14931">
        <ele>2337.1</ele>
        <time>2018-02-10T10:30:55Z</time>
      </trkpt>
      <trkpt lat="45.28759" lon="6.14931">
        <ele>2338.06</ele>
        <time>2018-02-10T10:31:11Z</time>
      </trkpt>
      <trkpt lat="45.28756" lon="6.1492">
        <ele>2340.95</ele>
        <time>2018-02-10T10:31:29Z</time>
      </trkpt>
      <trkpt lat="45.28755" lon="6.14912">
        <ele>2344.31</ele>
        <time>2018-02-10T10:31:46Z</time>
      </trkpt>
      <trkpt lat="45.28754" lon="6.14906">
        <ele>2345.27</ele>
        <time>2018-02-10T10:32:03Z</time>
      </trkpt>
      <trkpt lat="45.28756" lon="6.14902">
        <ele>2346.72</ele>
        <time>2018-02-10T10:32:19Z</time>
      </trkpt>
      <trkpt lat="45.28766" lon="6.14903">
        <ele>2348.16</ele>
        <time>2018-02-10T10:32:35Z</time>
      </trkpt>
      <trkpt lat="45.2877" lon="6.149">
        <ele>2351.04</ele>
        <time>2018-02-10T10:32:50Z</time>
      </trkpt>
      <trkpt lat="45.28773" lon="6.149">
        <ele>2352.96</ele>
        <time>2018-02-10T10:33:07Z</time>
      </trkpt>
      <trkpt lat="45.28778" lon="6.14899">
        <ele>2354.89</ele>
        <time>2018-02-10T10:33:23Z</time>
      </trkpt>
      <trkpt lat="45.28781" lon="6.14896">
        <ele>2355.85</ele>
        <time>2018-02-10T10:33:39Z</time>
      </trkpt>
      <trkpt lat="45.28786" lon="6.14892">
        <ele>2359.21</ele>
        <time>2018-02-10T10:33:57Z</time>
      </trkpt>
      <trkpt lat="45.28785" lon="6.14888">
        <ele>2360.17</ele>
        <time>2018-02-10T10:34:13Z</time>
      </trkpt>
      <trkpt lat="45.28783" lon="6.1488">
        <ele>2362.1</ele>
        <time>2018-02-10T10:34:30Z</time>
      </trkpt>
      <trkpt lat="45.28778" lon="6.14871">
        <ele>2364.5</ele>
        <time>2018-02-10T10:34:46Z</time>
      </trkpt>
      <trkpt lat="45.28777" lon="6.14862">
        <ele>2365.94</ele>
        <time>2018-02-10T10:35:02Z</time>
      </trkpt>
      <trkpt lat="45.28774" lon="6.14853">
        <ele>2368.35</ele>
        <time>2018-02-10T10:35:17Z</time>
      </trkpt>
      <trkpt lat="45.28774" lon="6.14843">
        <ele>2369.31</ele>
        <time>2018-02-10T10:35:33Z</time>
      </trkpt>
      <trkpt lat="45.28776" lon="6.14833">
        <ele>2371.23</ele>
        <time>2018-02-10T10:35:47Z</time>
      </trkpt>
      <trkpt lat="45.28777" lon="6.14824">
        <ele>2372.67</ele>
        <time>2018-02-10T10:36:02Z</time>
      </trkpt>
      <trkpt lat="45.28776" lon="6.14817">
        <ele>2374.59</ele>
        <time>2018-02-10T10:36:16Z</time>
      </trkpt>
      <trkpt lat="45.28777" lon="6.14811">
        <ele>2376.52</ele>
        <time>2018-02-10T10:36:29Z</time>
      </trkpt>
      <trkpt lat="45.28777" lon="6.14811">
        <ele>2376.52</ele>
        <time>2018-02-10T10:36:47Z</time>
      </trkpt>
      <trkpt lat="45.28778" lon="6.14806">
        <ele>2377.48</ele>
        <time>2018-02-10T10:37:00Z</time>
      </trkpt>
      <trkpt lat="45.28776" lon="6.14803">
        <ele>2378.92</ele>
        <time>2018-02-10T10:37:16Z</time>
      </trkpt>
      <trkpt lat="45.28774" lon="6.14803">
        <ele>2378.92</ele>
        <time>2018-02-10T10:37:46Z</time>
      </trkpt>
      <trkpt lat="45.28773" lon="6.14801">
        <ele>2378.92</ele>
        <time>2018-02-10T10:38:08Z</time>
      </trkpt>
      <trkpt lat="45.28781" lon="6.14802">
        <ele>2380.84</ele>
        <time>2018-02-10T10:44:52Z</time>
      </trkpt>
      <trkpt lat="45.2879" lon="6.1481">
        <ele>2382.76</ele>
        <time>2018-02-10T10:45:12Z</time>
      </trkpt>
      <trkpt lat="45.28795" lon="6.14814">
        <ele>2384.21</ele>
        <time>2018-02-10T10:45:27Z</time>
      </trkpt>
      <trkpt lat="45.28799" lon="6.14817">
        <ele>2385.17</ele>
        <time>2018-02-10T10:45:45Z</time>
      </trkpt>
      <trkpt lat="45.28804" lon="6.14822">
        <ele>2387.09</ele>
        <time>2018-02-10T10:46:00Z</time>
      </trkpt>
      <trkpt lat="45.28805" lon="6.14823">
        <ele>2386.61</ele>
        <time>2018-02-10T10:46:01Z</time>
      </trkpt>
      <trkpt lat="45.28811" lon="6.14828">
        <ele>2389.01</ele>
        <time>2018-02-10T10:46:15Z</time>
      </trkpt>
      <trkpt lat="45.28817" lon="6.14834">
        <ele>2391.42</ele>
        <time>2018-02-10T10:46:33Z</time>
      </trkpt>
      <trkpt lat="45.28816" lon="6.14823">
        <ele>2392.38</ele>
        <time>2018-02-10T10:46:46Z</time>
      </trkpt>
      <trkpt lat="45.28816" lon="6.14814">
        <ele>2393.82</ele>
        <time>2018-02-10T10:47:01Z</time>
      </trkpt>
      <trkpt lat="45.28815" lon="6.14808">
        <ele>2395.74</ele>
        <time>2018-02-10T10:47:14Z</time>
      </trkpt>
      <trkpt lat="45.28819" lon="6.14813">
        <ele>2396.22</ele>
        <time>2018-02-10T10:47:26Z</time>
      </trkpt>
      <trkpt lat="45.28822" lon="6.14818">
        <ele>2397.67</ele>
        <time>2018-02-10T10:47:40Z</time>
      </trkpt>
      <trkpt lat="45.28827" lon="6.14823">
        <ele>2400.07</ele>
        <time>2018-02-10T10:47:56Z</time>
      </trkpt>
      <trkpt lat="45.28831" lon="6.14828">
        <ele>2402.47</ele>
        <time>2018-02-10T10:48:14Z</time>
      </trkpt>
      <trkpt lat="45.28836" lon="6.14831">
        <ele>2403.43</ele>
        <time>2018-02-10T10:48:28Z</time>
      </trkpt>
      <trkpt lat="45.28835" lon="6.14822">
        <ele>2404.88</ele>
        <time>2018-02-10T10:48:45Z</time>
      </trkpt>
      <trkpt lat="45.28834" lon="6.14813">
        <ele>2406.32</ele>
        <time>2018-02-10T10:48:59Z</time>
      </trkpt>
      <trkpt lat="45.28833" lon="6.14805">
        <ele>2409.2</ele>
        <time>2018-02-10T10:49:15Z</time>
      </trkpt>
      <trkpt lat="45.28838" lon="6.14806">
        <ele>2410.16</ele>
        <time>2018-02-10T10:49:28Z</time>
      </trkpt>
      <trkpt lat="45.28847" lon="6.14812">
        <ele>2412.09</ele>
        <time>2018-02-10T10:49:45Z</time>
      </trkpt>
      <trkpt lat="45.28853" lon="6.14809">
        <ele>2414.49</ele>
        <time>2018-02-10T10:50:00Z</time>
      </trkpt>
      <trkpt lat="45.28855" lon="6.14798">
        <ele>2416.41</ele>
        <time>2018-02-10T10:50:12Z</time>
      </trkpt>
      <trkpt lat="45.28859" lon="6.14801">
        <ele>2417.85</ele>
        <time>2018-02-10T10:50:26Z</time>
      </trkpt>
      <trkpt lat="45.28864" lon="6.14809">
        <ele>2420.74</ele>
        <time>2018-02-10T10:50:44Z</time>
      </trkpt>
      <trkpt lat="45.2887" lon="6.14813">
        <ele>2422.18</ele>
        <time>2018-02-10T10:50:58Z</time>
      </trkpt>
      <trkpt lat="45.28874" lon="6.14818">
        <ele>2423.62</ele>
        <time>2018-02-10T10:51:11Z</time>
      </trkpt>
      <trkpt lat="45.28875" lon="6.14806">
        <ele>2424.58</ele>
        <time>2018-02-10T10:51:25Z</time>
      </trkpt>
      <trkpt lat="45.28875" lon="6.14797">
        <ele>2426.99</ele>
        <time>2018-02-10T10:51:37Z</time>
      </trkpt>
      <trkpt lat="45.28876" lon="6.14788">
        <ele>2428.43</ele>
        <time>2018-02-10T10:51:51Z</time>
      </trkpt>
      <trkpt lat="45.28876" lon="6.14778">
        <ele>2430.35</ele>
        <time>2018-02-10T10:52:05Z</time>
      </trkpt>
      <trkpt lat="45.28875" lon="6.14769">
        <ele>2432.75</ele>
        <time>2018-02-10T10:52:20Z</time>
      </trkpt>
      <trkpt lat="45.28872" lon="6.14762">
        <ele>2433.71</ele>
        <time>2018-02-10T10:52:33Z</time>
      </trkpt>
      <trkpt lat="45.28881" lon="6.14766">
        <ele>2436.12</ele>
        <time>2018-02-10T10:52:46Z</time>
      </trkpt>
      <trkpt lat="45.28881" lon="6.14767">
        <ele>2438.04</ele>
        <time>2018-02-10T10:53:48Z</time>
      </trkpt>
      <trkpt lat="45.28884" lon="6.14764">
        <ele>2438.04</ele>
        <time>2018-02-10T10:54:06Z</time>
      </trkpt>
      <trkpt lat="45.2889" lon="6.14766">
        <ele>2439</ele>
        <time>2018-02-10T10:54:21Z</time>
      </trkpt>
      <trkpt lat="45.28899" lon="6.14768">
        <ele>2441.89</ele>
        <time>2018-02-10T10:54:36Z</time>
      </trkpt>
      <trkpt lat="45.289" lon="6.14768">
        <ele>2441.89</ele>
        <time>2018-02-10T10:54:38Z</time>
      </trkpt>
      <trkpt lat="45.28909" lon="6.14763">
        <ele>2444.29</ele>
        <time>2018-02-10T10:54:51Z</time>
      </trkpt>
      <trkpt lat="45.28914" lon="6.14756">
        <ele>2446.21</ele>
        <time>2018-02-10T10:55:05Z</time>
      </trkpt>
      <trkpt lat="45.28918" lon="6.14747">
        <ele>2448.62</ele>
        <time>2018-02-10T10:55:20Z</time>
      </trkpt>
      <trkpt lat="45.28915" lon="6.1474">
        <ele>2450.54</ele>
        <time>2018-02-10T10:55:33Z</time>
      </trkpt>
      <trkpt lat="45.28905" lon="6.14731">
        <ele>2453.42</ele>
        <time>2018-02-10T10:55:47Z</time>
      </trkpt>
      <trkpt lat="45.28896" lon="6.14723">
        <ele>2454.86</ele>
        <time>2018-02-10T10:56:01Z</time>
      </trkpt>
      <trkpt lat="45.28894" lon="6.14715">
        <ele>2456.79</ele>
        <time>2018-02-10T10:56:16Z</time>
      </trkpt>
      <trkpt lat="45.28895" lon="6.14706">
        <ele>2459.67</ele>
        <time>2018-02-10T10:56:34Z</time>
      </trkpt>
      <trkpt lat="45.28897" lon="6.14708">
        <ele>2459.67</ele>
        <time>2018-02-10T10:56:46Z</time>
      </trkpt>
      <trkpt lat="45.28901" lon="6.14708">
        <ele>2460.63</ele>
        <time>2018-02-10T10:57:00Z</time>
      </trkpt>
      <trkpt lat="45.28908" lon="6.1471">
        <ele>2461.11</ele>
        <time>2018-02-10T10:57:16Z</time>
      </trkpt>
      <trkpt lat="45.28914" lon="6.14711">
        <ele>2463.52</ele>
        <time>2018-02-10T10:57:29Z</time>
      </trkpt>
      <trkpt lat="45.2892" lon="6.14708">
        <ele>2466.4</ele>
        <time>2018-02-10T10:57:45Z</time>
      </trkpt>
      <trkpt lat="45.28928" lon="6.14708">
        <ele>2468.8</ele>
        <time>2018-02-10T10:58:00Z</time>
      </trkpt>
      <trkpt lat="45.28925" lon="6.14702">
        <ele>2469.76</ele>
        <time>2018-02-10T10:58:10Z</time>
      </trkpt>
      <trkpt lat="45.28915" lon="6.14691">
        <ele>2471.69</ele>
        <time>2018-02-10T10:58:26Z</time>
      </trkpt>
      <trkpt lat="45.28912" lon="6.14682">
        <ele>2474.09</ele>
        <time>2018-02-10T10:58:40Z</time>
      </trkpt>
      <trkpt lat="45.28908" lon="6.14677">
        <ele>2476.01</ele>
        <time>2018-02-10T10:58:57Z</time>
      </trkpt>
      <trkpt lat="45.2891" lon="6.14669">
        <ele>2478.42</ele>
        <time>2018-02-10T10:59:12Z</time>
      </trkpt>
      <trkpt lat="45.28905" lon="6.14665">
        <ele>2478.9</ele>
        <time>2018-02-10T10:59:30Z</time>
      </trkpt>
      <trkpt lat="45.28903" lon="6.14659">
        <ele>2478.9</ele>
        <time>2018-02-10T10:59:54Z</time>
      </trkpt>
      <trkpt lat="45.28921" lon="6.14675">
        <ele>2481.3</ele>
        <time>2018-02-10T11:03:09Z</time>
      </trkpt>
      <trkpt lat="45.2893" lon="6.14673">
        <ele>2483.7</ele>
        <time>2018-02-10T11:03:23Z</time>
      </trkpt>
      <trkpt lat="45.28936" lon="6.14668">
        <ele>2485.63</ele>
        <time>2018-02-10T11:03:36Z</time>
      </trkpt>
      <trkpt lat="45.28932" lon="6.14653">
        <ele>2488.51</ele>
        <time>2018-02-10T11:03:51Z</time>
      </trkpt>
      <trkpt lat="45.28935" lon="6.1465">
        <ele>2490.43</ele>
        <time>2018-02-10T11:04:04Z</time>
      </trkpt>
      <trkpt lat="45.28938" lon="6.14643">
        <ele>2491.39</ele>
        <time>2018-02-10T11:04:22Z</time>
      </trkpt>
      <trkpt lat="45.28946" lon="6.1465">
        <ele>2492.84</ele>
        <time>2018-02-10T11:04:34Z</time>
      </trkpt>
      <trkpt lat="45.2895" lon="6.1465">
        <ele>2494.76</ele>
        <time>2018-02-10T11:04:48Z</time>
      </trkpt>
      <trkpt lat="45.28953" lon="6.14639">
        <ele>2498.12</ele>
        <time>2018-02-10T11:05:01Z</time>
      </trkpt>
      <trkpt lat="45.28947" lon="6.14623">
        <ele>2500.05</ele>
        <time>2018-02-10T11:05:16Z</time>
      </trkpt>
      <trkpt lat="45.28947" lon="6.14612">
        <ele>2502.45</ele>
        <time>2018-02-10T11:05:33Z</time>
      </trkpt>
      <trkpt lat="45.28947" lon="6.14604">
        <ele>2504.37</ele>
        <time>2018-02-10T11:05:44Z</time>
      </trkpt>
      <trkpt lat="45.28953" lon="6.14603">
        <ele>2505.81</ele>
        <time>2018-02-10T11:05:55Z</time>
      </trkpt>
      <trkpt lat="45.28965" lon="6.14601">
        <ele>2508.22</ele>
        <time>2018-02-10T11:06:13Z</time>
      </trkpt>
      <trkpt lat="45.28969" lon="6.14602">
        <ele>2510.62</ele>
        <time>2018-02-10T11:06:28Z</time>
      </trkpt>
      <trkpt lat="45.28967" lon="6.14591">
        <ele>2512.54</ele>
        <time>2018-02-10T11:06:40Z</time>
      </trkpt>
      <trkpt lat="45.28962" lon="6.14577">
        <ele>2514.95</ele>
        <time>2018-02-10T11:06:56Z</time>
      </trkpt>
      <trkpt lat="45.2896" lon="6.14568">
        <ele>2517.35</ele>
        <time>2018-02-10T11:07:13Z</time>
      </trkpt>
      <trkpt lat="45.28963" lon="6.14565">
        <ele>2518.79</ele>
        <time>2018-02-10T11:07:28Z</time>
      </trkpt>
      <trkpt lat="45.28973" lon="6.14568">
        <ele>2520.23</ele>
        <time>2018-02-10T11:07:44Z</time>
      </trkpt>
      <trkpt lat="45.2898" lon="6.14571">
        <ele>2523.12</ele>
        <time>2018-02-10T11:07:59Z</time>
      </trkpt>
      <trkpt lat="45.28989" lon="6.14577">
        <ele>2525.52</ele>
        <time>2018-02-10T11:08:14Z</time>
      </trkpt>
      <trkpt lat="45.28989" lon="6.14564">
        <ele>2527.44</ele>
        <time>2018-02-10T11:08:27Z</time>
      </trkpt>
      <trkpt lat="45.28984" lon="6.14548">
        <ele>2529.37</ele>
        <time>2018-02-10T11:08:43Z</time>
      </trkpt>
      <trkpt lat="45.28988" lon="6.1454">
        <ele>2531.29</ele>
        <time>2018-02-10T11:08:57Z</time>
      </trkpt>
      <trkpt lat="45.29" lon="6.14538">
        <ele>2534.17</ele>
        <time>2018-02-10T11:09:14Z</time>
      </trkpt>
      <trkpt lat="45.29003" lon="6.14538">
        <ele>2535.13</ele>
        <time>2018-02-10T11:09:22Z</time>
      </trkpt>
      <trkpt lat="45.2901" lon="6.14545">
        <ele>2537.06</ele>
        <time>2018-02-10T11:09:34Z</time>
      </trkpt>
      <trkpt lat="45.29015" lon="6.14556">
        <ele>2539.46</ele>
        <time>2018-02-10T11:09:50Z</time>
      </trkpt>
      <trkpt lat="45.29018" lon="6.14552">
        <ele>2540.42</ele>
        <time>2018-02-10T11:10:01Z</time>
      </trkpt>
      <trkpt lat="45.29019" lon="6.14541">
        <ele>2542.82</ele>
        <time>2018-02-10T11:10:14Z</time>
      </trkpt>
      <trkpt lat="45.29026" lon="6.1453">
        <ele>2544.27</ele>
        <time>2018-02-10T11:10:29Z</time>
      </trkpt>
      <trkpt lat="45.29025" lon="6.14521">
        <ele>2546.67</ele>
        <time>2018-02-10T11:10:43Z</time>
      </trkpt>
      <trkpt lat="45.29028" lon="6.14511">
        <ele>2548.59</ele>
        <time>2018-02-10T11:10:57Z</time>
      </trkpt>
      <trkpt lat="45.29033" lon="6.1451">
        <ele>2550.03</ele>
        <time>2018-02-10T11:11:13Z</time>
      </trkpt>
      <trkpt lat="45.29042" lon="6.14506">
        <ele>2551</ele>
        <time>2018-02-10T11:16:24Z</time>
      </trkpt>
      <trkpt lat="45.29046" lon="6.14505">
        <ele>2550.51</ele>
        <time>2018-02-10T11:16:41Z</time>
      </trkpt>
      <trkpt lat="45.29046" lon="6.14507">
        <ele>2551.48</ele>
        <time>2018-02-10T11:17:01Z</time>
      </trkpt>
      <trkpt lat="45.29046" lon="6.14516">
        <ele>2554.36</ele>
        <time>2018-02-10T11:17:15Z</time>
      </trkpt>
      <trkpt lat="45.29051" lon="6.14518">
        <ele>2556.28</ele>
        <time>2018-02-10T11:17:29Z</time>
      </trkpt>
      <trkpt lat="45.29058" lon="6.14509">
        <ele>2558.69</ele>
        <time>2018-02-10T11:17:45Z</time>
      </trkpt>
      <trkpt lat="45.29064" lon="6.14507">
        <ele>2561.09</ele>
        <time>2018-02-10T11:17:56Z</time>
      </trkpt>
      <trkpt lat="45.29072" lon="6.14506">
        <ele>2561.57</ele>
        <time>2018-02-10T11:18:06Z</time>
      </trkpt>
      <trkpt lat="45.2908" lon="6.14507">
        <ele>2563.01</ele>
        <time>2018-02-10T11:18:19Z</time>
      </trkpt>
      <trkpt lat="45.29085" lon="6.14508">
        <ele>2563.97</ele>
        <time>2018-02-10T11:18:31Z</time>
      </trkpt>
      <trkpt lat="45.29097" lon="6.14506">
        <ele>2566.38</ele>
        <time>2018-02-10T11:18:48Z</time>
      </trkpt>
      <trkpt lat="45.29101" lon="6.14499">
        <ele>2569.74</ele>
        <time>2018-02-10T11:19:03Z</time>
      </trkpt>
      <trkpt lat="45.29106" lon="6.14497">
        <ele>2571.18</ele>
        <time>2018-02-10T11:19:20Z</time>
      </trkpt>
      <trkpt lat="45.29112" lon="6.14497">
        <ele>2573.11</ele>
        <time>2018-02-10T11:19:32Z</time>
      </trkpt>
      <trkpt lat="45.29119" lon="6.14489">
        <ele>2574.07</ele>
        <time>2018-02-10T11:19:47Z</time>
      </trkpt>
      <trkpt lat="45.29125" lon="6.14488">
        <ele>2576.95</ele>
        <time>2018-02-10T11:20:02Z</time>
      </trkpt>
      <trkpt lat="45.2913" lon="6.14485">
        <ele>2579.35</ele>
        <time>2018-02-10T11:20:18Z</time>
      </trkpt>
      <trkpt lat="45.29139" lon="6.14483">
        <ele>2582.24</ele>
        <time>2018-02-10T11:20:35Z</time>
      </trkpt>
      <trkpt lat="45.29148" lon="6.14478">
        <ele>2584.16</ele>
        <time>2018-02-10T11:20:51Z</time>
      </trkpt>
      <trkpt lat="45.29154" lon="6.14475">
        <ele>2584.64</ele>
        <time>2018-02-10T11:21:01Z</time>
      </trkpt>
      <trkpt lat="45.29162" lon="6.14473">
        <ele>2585.6</ele>
        <time>2018-02-10T11:21:11Z</time>
      </trkpt>
      <trkpt lat="45.29168" lon="6.14469">
        <ele>2587.53</ele>
        <time>2018-02-10T11:21:23Z</time>
      </trkpt>
      <trkpt lat="45.29172" lon="6.14466">
        <ele>2589.45</ele>
        <time>2018-02-10T11:21:38Z</time>
      </trkpt>
      <trkpt lat="45.29179" lon="6.14459">
        <ele>2589.93</ele>
        <time>2018-02-10T11:21:51Z</time>
      </trkpt>
      <trkpt lat="45.29184" lon="6.14452">
        <ele>2591.85</ele>
        <time>2018-02-10T11:22:05Z</time>
      </trkpt>
      <trkpt lat="45.29186" lon="6.14445">
        <ele>2594.25</ele>
        <time>2018-02-10T11:22:17Z</time>
      </trkpt>
      <trkpt lat="45.29189" lon="6.14437">
        <ele>2596.18</ele>
        <time>2018-02-10T11:22:31Z</time>
      </trkpt>
      <trkpt lat="45.29187" lon="6.14431">
        <ele>2598.58</ele>
        <time>2018-02-10T11:22:46Z</time>
      </trkpt>
      <trkpt lat="45.29192" lon="6.14441">
        <ele>2598.58</ele>
        <time>2018-02-10T11:22:57Z</time>
      </trkpt>
      <trkpt lat="45.29196" lon="6.1445">
        <ele>2600.5</ele>
        <time>2018-02-10T11:23:11Z</time>
      </trkpt>
      <trkpt lat="45.29201" lon="6.14457">
        <ele>2602.43</ele>
        <time>2018-02-10T11:23:25Z</time>
      </trkpt>
      <trkpt lat="45.29208" lon="6.14463">
        <ele>2605.31</ele>
        <time>2018-02-10T11:23:38Z</time>
      </trkpt>
      <trkpt lat="45.29213" lon="6.14467">
        <ele>2606.75</ele>
        <time>2018-02-10T11:23:54Z</time>
      </trkpt>
      <trkpt lat="45.29215" lon="6.14456">
        <ele>2609.16</ele>
        <time>2018-02-10T11:24:08Z</time>
      </trkpt>
      <trkpt lat="45.29217" lon="6.14448">
        <ele>2611.08</ele>
        <time>2018-02-10T11:24:23Z</time>
      </trkpt>
      <trkpt lat="45.2922" lon="6.14441">
        <ele>2612.52</ele>
        <time>2018-02-10T11:24:36Z</time>
      </trkpt>
      <trkpt lat="45.29219" lon="6.14433">
        <ele>2614.44</ele>
        <time>2018-02-10T11:24:48Z</time>
      </trkpt>
      <trkpt lat="45.29223" lon="6.14426">
        <ele>2615.88</ele>
        <time>2018-02-10T11:25:01Z</time>
      </trkpt>
      <trkpt lat="45.29221" lon="6.14414">
        <ele>2617.81</ele>
        <time>2018-02-10T11:25:16Z</time>
      </trkpt>
      <trkpt lat="45.29221" lon="6.14404">
        <ele>2618.77</ele>
        <time>2018-02-10T11:25:31Z</time>
      </trkpt>
      <trkpt lat="45.29224" lon="6.14398">
        <ele>2621.65</ele>
        <time>2018-02-10T11:25:46Z</time>
      </trkpt>
      <trkpt lat="45.29236" lon="6.14396">
        <ele>2623.58</ele>
        <time>2018-02-10T11:26:01Z</time>
      </trkpt>
      <trkpt lat="45.29246" lon="6.14398">
        <ele>2624.06</ele>
        <time>2018-02-10T11:26:18Z</time>
      </trkpt>
      <trkpt lat="45.29252" lon="6.14391">
        <ele>2625.98</ele>
        <time>2018-02-10T11:26:32Z</time>
      </trkpt>
      <trkpt lat="45.29258" lon="6.14388">
        <ele>2628.38</ele>
        <time>2018-02-10T11:26:47Z</time>
      </trkpt>
      <trkpt lat="45.29259" lon="6.14388">
        <ele>2628.38</ele>
        <time>2018-02-10T11:26:48Z</time>
      </trkpt>
      <trkpt lat="45.29266" lon="6.14383">
        <ele>2630.3</ele>
        <time>2018-02-10T11:27:06Z</time>
      </trkpt>
      <trkpt lat="45.2927" lon="6.14385">
        <ele>2632.71</ele>
        <time>2018-02-10T11:27:22Z</time>
      </trkpt>
      <trkpt lat="45.2927" lon="6.14394">
        <ele>2634.15</ele>
        <time>2018-02-10T11:27:35Z</time>
      </trkpt>
      <trkpt lat="45.29271" lon="6.14404">
        <ele>2636.07</ele>
        <time>2018-02-10T11:27:50Z</time>
      </trkpt>
      <trkpt lat="45.2927" lon="6.14412">
        <ele>2637.03</ele>
        <time>2018-02-10T11:28:03Z</time>
      </trkpt>
      <trkpt lat="45.29272" lon="6.14419">
        <ele>2639.44</ele>
        <time>2018-02-10T11:28:17Z</time>
      </trkpt>
      <trkpt lat="45.29274" lon="6.14426">
        <ele>2641.36</ele>
        <time>2018-02-10T11:28:33Z</time>
      </trkpt>
      <trkpt lat="45.29276" lon="6.14432">
        <ele>2642.8</ele>
        <time>2018-02-10T11:28:47Z</time>
      </trkpt>
      <trkpt lat="45.29278" lon="6.14425">
        <ele>2644.24</ele>
        <time>2018-02-10T11:29:03Z</time>
      </trkpt>
      <trkpt lat="45.29283" lon="6.14415">
        <ele>2645.69</ele>
        <time>2018-02-10T11:29:17Z</time>
      </trkpt>
      <trkpt lat="45.29287" lon="6.14407">
        <ele>2647.61</ele>
        <time>2018-02-10T11:29:31Z</time>
      </trkpt>
      <trkpt lat="45.29287" lon="6.14403">
        <ele>2648.57</ele>
        <time>2018-02-10T11:29:38Z</time>
      </trkpt>
      <trkpt lat="45.29291" lon="6.14394">
        <ele>2649.53</ele>
        <time>2018-02-10T11:29:53Z</time>
      </trkpt>
      <trkpt lat="45.29296" lon="6.14392">
        <ele>2651.93</ele>
        <time>2018-02-10T11:30:09Z</time>
      </trkpt>
      <trkpt lat="45.29297" lon="6.14387">
        <ele>2653.38</ele>
        <time>2018-02-10T11:30:23Z</time>
      </trkpt>
      <trkpt lat="45.293" lon="6.14379">
        <ele>2655.78</ele>
        <time>2018-02-10T11:30:38Z</time>
      </trkpt>
      <trkpt lat="45.29302" lon="6.14369">
        <ele>2657.7</ele>
        <time>2018-02-10T11:30:54Z</time>
      </trkpt>
      <trkpt lat="45.29303" lon="6.14368">
        <ele>2658.18</ele>
        <time>2018-02-10T11:30:55Z</time>
      </trkpt>
      <trkpt lat="45.29307" lon="6.14365">
        <ele>2659.14</ele>
        <time>2018-02-10T11:31:09Z</time>
      </trkpt>
      <trkpt lat="45.29312" lon="6.14375">
        <ele>2660.11</ele>
        <time>2018-02-10T11:31:23Z</time>
      </trkpt>
      <trkpt lat="45.29317" lon="6.14385">
        <ele>2662.51</ele>
        <time>2018-02-10T11:31:39Z</time>
      </trkpt>
      <trkpt lat="45.29317" lon="6.14386">
        <ele>2662.51</ele>
        <time>2018-02-10T11:31:41Z</time>
      </trkpt>
      <trkpt lat="45.29322" lon="6.14393">
        <ele>2663.95</ele>
        <time>2018-02-10T11:31:52Z</time>
      </trkpt>
      <trkpt lat="45.29325" lon="6.14401">
        <ele>2666.35</ele>
        <time>2018-02-10T11:32:07Z</time>
      </trkpt>
      <trkpt lat="45.29329" lon="6.14407">
        <ele>2667.31</ele>
        <time>2018-02-10T11:32:21Z</time>
      </trkpt>
      <trkpt lat="45.29332" lon="6.14417">
        <ele>2669.72</ele>
        <time>2018-02-10T11:32:38Z</time>
      </trkpt>
      <trkpt lat="45.29337" lon="6.14422">
        <ele>2672.6</ele>
        <time>2018-02-10T11:32:55Z</time>
      </trkpt>
      <trkpt lat="45.29341" lon="6.14405">
        <ele>2674.52</ele>
        <time>2018-02-10T11:33:12Z</time>
      </trkpt>
      <trkpt lat="45.29345" lon="6.14394">
        <ele>2676.45</ele>
        <time>2018-02-10T11:33:27Z</time>
      </trkpt>
      <trkpt lat="45.29346" lon="6.14385">
        <ele>2678.85</ele>
        <time>2018-02-10T11:33:42Z</time>
      </trkpt>
      <trkpt lat="45.2935" lon="6.1438">
        <ele>2679.33</ele>
        <time>2018-02-10T11:33:55Z</time>
      </trkpt>
      <trkpt lat="45.29353" lon="6.14371">
        <ele>2681.25</ele>
        <time>2018-02-10T11:34:09Z</time>
      </trkpt>
      <trkpt lat="45.29361" lon="6.14367">
        <ele>2684.14</ele>
        <time>2018-02-10T11:34:25Z</time>
      </trkpt>
      <trkpt lat="45.29369" lon="6.14365">
        <ele>2685.58</ele>
        <time>2018-02-10T11:34:38Z</time>
      </trkpt>
      <trkpt lat="45.29371" lon="6.14361">
        <ele>2687.5</ele>
        <time>2018-02-10T11:34:51Z</time>
      </trkpt>
      <trkpt lat="45.29376" lon="6.14365">
        <ele>2689.43</ele>
        <time>2018-02-10T11:35:03Z</time>
      </trkpt>
      <trkpt lat="45.29381" lon="6.14374">
        <ele>2691.35</ele>
        <time>2018-02-10T11:35:19Z</time>
      </trkpt>
      <trkpt lat="45.29387" lon="6.14378">
        <ele>2693.75</ele>
        <time>2018-02-10T11:35:35Z</time>
      </trkpt>
      <trkpt lat="45.29389" lon="6.14371">
        <ele>2695.19</ele>
        <time>2018-02-10T11:35:50Z</time>
      </trkpt>
      <trkpt lat="45.29395" lon="6.14362">
        <ele>2697.12</ele>
        <time>2018-02-10T11:36:03Z</time>
      </trkpt>
      <trkpt lat="45.29399" lon="6.14354">
        <ele>2699.52</ele>
        <time>2018-02-10T11:36:17Z</time>
      </trkpt>
      <trkpt lat="45.29404" lon="6.14352">
        <ele>2700.48</ele>
        <time>2018-02-10T11:36:30Z</time>
      </trkpt>
      <trkpt lat="45.29408" lon="6.14351">
        <ele>2703.85</ele>
        <time>2018-02-10T11:36:43Z</time>
      </trkpt>
      <trkpt lat="45.29414" lon="6.14362">
        <ele>2705.29</ele>
        <time>2018-02-10T11:37:00Z</time>
      </trkpt>
      <trkpt lat="45.29418" lon="6.14368">
        <ele>2707.69</ele>
        <time>2018-02-10T11:37:15Z</time>
      </trkpt>
      <trkpt lat="45.29425" lon="6.14375">
        <ele>2709.61</ele>
        <time>2018-02-10T11:37:33Z</time>
      </trkpt>
      <trkpt lat="45.29428" lon="6.1438">
        <ele>2711.06</ele>
        <time>2018-02-10T11:37:49Z</time>
      </trkpt>
      <trkpt lat="45.29429" lon="6.14375">
        <ele>2712.98</ele>
        <time>2018-02-10T11:38:02Z</time>
      </trkpt>
      <trkpt lat="45.29432" lon="6.14359">
        <ele>2714.42</ele>
        <time>2018-02-10T11:38:17Z</time>
      </trkpt>
      <trkpt lat="45.29435" lon="6.14354">
        <ele>2716.34</ele>
        <time>2018-02-10T11:38:30Z</time>
      </trkpt>
      <trkpt lat="45.29438" lon="6.14348">
        <ele>2717.78</ele>
        <time>2018-02-10T11:38:42Z</time>
      </trkpt>
      <trkpt lat="45.29439" lon="6.14342">
        <ele>2720.19</ele>
        <time>2018-02-10T11:38:54Z</time>
      </trkpt>
      <trkpt lat="45.29448" lon="6.14348">
        <ele>2721.15</ele>
        <time>2018-02-10T11:39:09Z</time>
      </trkpt>
      <trkpt lat="45.29455" lon="6.14355">
        <ele>2723.55</ele>
        <time>2018-02-10T11:39:25Z</time>
      </trkpt>
      <trkpt lat="45.29461" lon="6.1436">
        <ele>2725.48</ele>
        <time>2018-02-10T11:39:40Z</time>
      </trkpt>
      <trkpt lat="45.2947" lon="6.14354">
        <ele>2726.92</ele>
        <time>2018-02-10T11:39:56Z</time>
      </trkpt>
      <trkpt lat="45.29477" lon="6.14346">
        <ele>2729.32</ele>
        <time>2018-02-10T11:40:14Z</time>
      </trkpt>
      <trkpt lat="45.29481" lon="6.1434">
        <ele>2731.24</ele>
        <time>2018-02-10T11:40:28Z</time>
      </trkpt>
      <trkpt lat="45.29485" lon="6.14337">
        <ele>2733.65</ele>
        <time>2018-02-10T11:40:43Z</time>
      </trkpt>
      <trkpt lat="45.29488" lon="6.14332">
        <ele>2735.57</ele>
        <time>2018-02-10T11:41:00Z</time>
      </trkpt>
      <trkpt lat="45.29489" lon="6.14342">
        <ele>2736.05</ele>
        <time>2018-02-10T11:41:38Z</time>
      </trkpt>
      <trkpt lat="45.29488" lon="6.14349">
        <ele>2737.01</ele>
        <time>2018-02-10T11:42:00Z</time>
      </trkpt>
      <trkpt lat="45.29491" lon="6.14358">
        <ele>2739.89</ele>
        <time>2018-02-10T11:42:15Z</time>
      </trkpt>
      <trkpt lat="45.29494" lon="6.14363">
        <ele>2742.3</ele>
        <time>2018-02-10T11:42:29Z</time>
      </trkpt>
      <trkpt lat="45.29489" lon="6.14351">
        <ele>2742.78</ele>
        <time>2018-02-10T11:42:46Z</time>
      </trkpt>
      <trkpt lat="45.29494" lon="6.14344">
        <ele>2743.74</ele>
        <time>2018-02-10T11:43:02Z</time>
      </trkpt>
      <trkpt lat="45.295" lon="6.14339">
        <ele>2745.66</ele>
        <time>2018-02-10T11:43:15Z</time>
      </trkpt>
      <trkpt lat="45.29504" lon="6.14333">
        <ele>2747.59</ele>
        <time>2018-02-10T11:43:28Z</time>
      </trkpt>
      <trkpt lat="45.29506" lon="6.1434">
        <ele>2749.03</ele>
        <time>2018-02-10T11:43:42Z</time>
      </trkpt>
      <trkpt lat="45.29508" lon="6.14353">
        <ele>2750.47</ele>
        <time>2018-02-10T11:43:58Z</time>
      </trkpt>
      <trkpt lat="45.2951" lon="6.14362">
        <ele>2752.87</ele>
        <time>2018-02-10T11:44:14Z</time>
      </trkpt>
      <trkpt lat="45.29511" lon="6.14373">
        <ele>2754.8</ele>
        <time>2018-02-10T11:44:30Z</time>
      </trkpt>
      <trkpt lat="45.29512" lon="6.14377">
        <ele>2756.72</ele>
        <time>2018-02-10T11:44:44Z</time>
      </trkpt>
      <trkpt lat="45.29514" lon="6.14361">
        <ele>2757.2</ele>
        <time>2018-02-10T11:44:57Z</time>
      </trkpt>
      <trkpt lat="45.29518" lon="6.14348">
        <ele>2759.6</ele>
        <time>2018-02-10T11:45:14Z</time>
      </trkpt>
      <trkpt lat="45.2952" lon="6.14344">
        <ele>2761.52</ele>
        <time>2018-02-10T11:45:29Z</time>
      </trkpt>
      <trkpt lat="45.29523" lon="6.14357">
        <ele>2762.49</ele>
        <time>2018-02-10T11:45:43Z</time>
      </trkpt>
      <trkpt lat="45.29525" lon="6.14368">
        <ele>2764.89</ele>
        <time>2018-02-10T11:45:58Z</time>
      </trkpt>
      <trkpt lat="45.29525" lon="6.14378">
        <ele>2767.29</ele>
        <time>2018-02-10T11:46:13Z</time>
      </trkpt>
      <trkpt lat="45.29528" lon="6.14368">
        <ele>2767.77</ele>
        <time>2018-02-10T11:46:27Z</time>
      </trkpt>
      <trkpt lat="45.29528" lon="6.14355">
        <ele>2769.21</ele>
        <time>2018-02-10T11:46:42Z</time>
      </trkpt>
      <trkpt lat="45.29529" lon="6.14346">
        <ele>2771.14</ele>
        <time>2018-02-10T11:46:57Z</time>
      </trkpt>
      <trkpt lat="45.29531" lon="6.14347">
        <ele>2772.58</ele>
        <time>2018-02-10T11:47:09Z</time>
      </trkpt>
      <trkpt lat="45.29534" lon="6.14359">
        <ele>2774.5</ele>
        <time>2018-02-10T11:47:24Z</time>
      </trkpt>
      <trkpt lat="45.29536" lon="6.14369">
        <ele>2776.42</ele>
        <time>2018-02-10T11:47:39Z</time>
      </trkpt>
      <trkpt lat="45.29537" lon="6.14369">
        <ele>2777.39</ele>
        <time>2018-02-10T11:47:52Z</time>
      </trkpt>
      <trkpt lat="45.29535" lon="6.14358">
        <ele>2777.87</ele>
        <time>2018-02-10T11:48:08Z</time>
      </trkpt>
      <trkpt lat="45.29537" lon="6.14348">
        <ele>2780.27</ele>
        <time>2018-02-10T11:48:24Z</time>
      </trkpt>
      <trkpt lat="45.29537" lon="6.14341">
        <ele>2782.19</ele>
        <time>2018-02-10T11:48:37Z</time>
      </trkpt>
      <trkpt lat="45.29539" lon="6.14344">
        <ele>2783.63</ele>
        <time>2018-02-10T11:48:52Z</time>
      </trkpt>
      <trkpt lat="45.29544" lon="6.14354">
        <ele>2784.6</ele>
        <time>2018-02-10T11:49:04Z</time>
      </trkpt>
      <trkpt lat="45.29547" lon="6.1436">
        <ele>2786.52</ele>
        <time>2018-02-10T11:49:15Z</time>
      </trkpt>
      <trkpt lat="45.29545" lon="6.14355">
        <ele>2787</ele>
        <time>2018-02-10T11:49:30Z</time>
      </trkpt>
      <trkpt lat="45.29546" lon="6.14345">
        <ele>2788.92</ele>
        <time>2018-02-10T11:49:43Z</time>
      </trkpt>
      <trkpt lat="45.29546" lon="6.14337">
        <ele>2790.84</ele>
        <time>2018-02-10T11:49:56Z</time>
      </trkpt>
      <trkpt lat="45.29549" lon="6.14335">
        <ele>2791.81</ele>
        <time>2018-02-10T11:50:09Z</time>
      </trkpt>
      <trkpt lat="45.29555" lon="6.14345">
        <ele>2793.25</ele>
        <time>2018-02-10T11:50:22Z</time>
      </trkpt>
      <trkpt lat="45.29559" lon="6.14352">
        <ele>2795.17</ele>
        <time>2018-02-10T11:50:36Z</time>
      </trkpt>
      <trkpt lat="45.2956" lon="6.1436">
        <ele>2797.09</ele>
        <time>2018-02-10T11:50:51Z</time>
      </trkpt>
      <trkpt lat="45.29559" lon="6.1435">
        <ele>2797.09</ele>
        <time>2018-02-10T11:51:06Z</time>
      </trkpt>
      <trkpt lat="45.29557" lon="6.1434">
        <ele>2799.5</ele>
        <time>2018-02-10T11:51:21Z</time>
      </trkpt>
      <trkpt lat="45.29556" lon="6.14332">
        <ele>2800.46</ele>
        <time>2018-02-10T11:51:42Z</time>
      </trkpt>
      <trkpt lat="45.29559" lon="6.14329">
        <ele>2802.38</ele>
        <time>2018-02-10T11:51:53Z</time>
      </trkpt>
      <trkpt lat="45.29566" lon="6.14343">
        <ele>2803.34</ele>
        <time>2018-02-10T11:52:06Z</time>
      </trkpt>
      <trkpt lat="45.2957" lon="6.14351">
        <ele>2805.26</ele>
        <time>2018-02-10T11:52:20Z</time>
      </trkpt>
      <trkpt lat="45.29568" lon="6.14345">
        <ele>2805.75</ele>
        <time>2018-02-10T11:52:34Z</time>
      </trkpt>
      <trkpt lat="45.29566" lon="6.14335">
        <ele>2807.67</ele>
        <time>2018-02-10T11:52:48Z</time>
      </trkpt>
      <trkpt lat="45.29567" lon="6.1432">
        <ele>2809.59</ele>
        <time>2018-02-10T11:53:04Z</time>
      </trkpt>
      <trkpt lat="45.29575" lon="6.14332">
        <ele>2811.03</ele>
        <time>2018-02-10T11:53:23Z</time>
      </trkpt>
      <trkpt lat="45.29579" lon="6.1434">
        <ele>2811.99</ele>
        <time>2018-02-10T11:53:35Z</time>
      </trkpt>
      <trkpt lat="45.29578" lon="6.14332">
        <ele>2814.4</ele>
        <time>2018-02-10T11:53:49Z</time>
      </trkpt>
      <trkpt lat="45.29576" lon="6.14323">
        <ele>2815.36</ele>
        <time>2018-02-10T11:54:04Z</time>
      </trkpt>
      <trkpt lat="45.29581" lon="6.1432">
        <ele>2817.76</ele>
        <time>2018-02-10T11:54:19Z</time>
      </trkpt>
      <trkpt lat="45.29582" lon="6.14316">
        <ele>2818.72</ele>
        <time>2018-02-10T11:54:26Z</time>
      </trkpt>
      <trkpt lat="45.29589" lon="6.14345">
        <ele>2818.24</ele>
        <time>2018-02-10T12:17:35Z</time>
      </trkpt>
      <trkpt lat="45.2959" lon="6.14344">
        <ele>2817.76</ele>
        <time>2018-02-10T12:18:06Z</time>
      </trkpt>
      <trkpt lat="45.29603" lon="6.14339">
        <ele>2824.01</ele>
        <time>2018-02-10T12:41:08Z</time>
      </trkpt>
      <trkpt lat="45.29605" lon="6.14345">
        <ele>2823.53</ele>
        <time>2018-02-10T12:41:31Z</time>
      </trkpt>
      <trkpt lat="45.29605" lon="6.14346">
        <ele>2823.53</ele>
        <time>2018-02-10T12:41:32Z</time>
      </trkpt>
      <trkpt lat="45.29607" lon="6.14353">
        <ele>2823.05</ele>
        <time>2018-02-10T12:41:36Z</time>
      </trkpt>
      <trkpt lat="45.29613" lon="6.14367">
        <ele>2822.09</ele>
        <time>2018-02-10T12:41:44Z</time>
      </trkpt>
      <trkpt lat="45.29618" lon="6.14364">
        <ele>2818.24</ele>
        <time>2018-02-10T12:41:48Z</time>
      </trkpt>
      <trkpt lat="45.2962" lon="6.14363">
        <ele>2818.24</ele>
        <time>2018-02-10T12:41:49Z</time>
      </trkpt>
      <trkpt lat="45.29623" lon="6.14369">
        <ele>2815.84</ele>
        <time>2018-02-10T12:41:51Z</time>
      </trkpt>
      <trkpt lat="45.29629" lon="6.1437">
        <ele>2811.51</ele>
        <time>2018-02-10T12:41:54Z</time>
      </trkpt>
      <trkpt lat="45.29634" lon="6.14378">
        <ele>2807.19</ele>
        <time>2018-02-10T12:41:58Z</time>
      </trkpt>
      <trkpt lat="45.29641" lon="6.14384">
        <ele>2802.86</ele>
        <time>2018-02-10T12:42:02Z</time>
      </trkpt>
      <trkpt lat="45.29642" lon="6.14387">
        <ele>2798.54</ele>
        <time>2018-02-10T12:42:05Z</time>
      </trkpt>
      <trkpt lat="45.29641" lon="6.14385">
        <ele>2799.02</ele>
        <time>2018-02-10T12:42:06Z</time>
      </trkpt>
      <trkpt lat="45.29632" lon="6.14379">
        <ele>2799.02</ele>
        <time>2018-02-10T12:42:25Z</time>
      </trkpt>
      <trkpt lat="45.29637" lon="6.14375">
        <ele>2795.65</ele>
        <time>2018-02-10T12:42:30Z</time>
      </trkpt>
      <trkpt lat="45.29641" lon="6.14372">
        <ele>2794.69</ele>
        <time>2018-02-10T12:42:32Z</time>
      </trkpt>
      <trkpt lat="45.29641" lon="6.14375">
        <ele>2795.17</ele>
        <time>2018-02-10T12:42:36Z</time>
      </trkpt>
      <trkpt lat="45.29646" lon="6.14387">
        <ele>2791.81</ele>
        <time>2018-02-10T12:42:40Z</time>
      </trkpt>
      <trkpt lat="45.29655" lon="6.14375">
        <ele>2787.96</ele>
        <time>2018-02-10T12:42:43Z</time>
      </trkpt>
      <trkpt lat="45.29673" lon="6.14359">
        <ele>2784.12</ele>
        <time>2018-02-10T12:42:51Z</time>
      </trkpt>
      <trkpt lat="45.29686" lon="6.14354">
        <ele>2781.71</ele>
        <time>2018-02-10T12:42:58Z</time>
      </trkpt>
      <trkpt lat="45.29688" lon="6.14361">
        <ele>2778.35</ele>
        <time>2018-02-10T12:43:01Z</time>
      </trkpt>
      <trkpt lat="45.29686" lon="6.14364">
        <ele>2777.87</ele>
        <time>2018-02-10T12:43:02Z</time>
      </trkpt>
      <trkpt lat="45.29692" lon="6.14367">
        <ele>2773.06</ele>
        <time>2018-02-10T12:43:07Z</time>
      </trkpt>
      <trkpt lat="45.29692" lon="6.14369">
        <ele>2773.06</ele>
        <time>2018-02-10T12:43:18Z</time>
      </trkpt>
      <trkpt lat="45.29708" lon="6.14369">
        <ele>2768.25</ele>
        <time>2018-02-10T12:43:23Z</time>
      </trkpt>
      <trkpt lat="45.29723" lon="6.14368">
        <ele>2765.37</ele>
        <time>2018-02-10T12:43:27Z</time>
      </trkpt>
      <trkpt lat="45.2974" lon="6.14373">
        <ele>2762</ele>
        <time>2018-02-10T12:43:32Z</time>
      </trkpt>
      <trkpt lat="45.29746" lon="6.14376">
        <ele>2760.08</ele>
        <time>2018-02-10T12:43:34Z</time>
      </trkpt>
      <trkpt lat="45.29754" lon="6.14379">
        <ele>2757.68</ele>
        <time>2018-02-10T12:43:36Z</time>
      </trkpt>
      <trkpt lat="45.29769" lon="6.14388">
        <ele>2754.8</ele>
        <time>2018-02-10T12:43:42Z</time>
      </trkpt>
      <trkpt lat="45.29775" lon="6.14389">
        <ele>2754.31</ele>
        <time>2018-02-10T12:43:56Z</time>
      </trkpt>
      <trkpt lat="45.29778" lon="6.14393">
        <ele>2754.31</ele>
        <time>2018-02-10T12:44:12Z</time>
      </trkpt>
      <trkpt lat="45.29793" lon="6.14406">
        <ele>2749.99</ele>
        <time>2018-02-10T12:44:23Z</time>
      </trkpt>
      <trkpt lat="45.29796" lon="6.14409">
        <ele>2748.55</ele>
        <time>2018-02-10T12:44:25Z</time>
      </trkpt>
      <trkpt lat="45.29784" lon="6.14418">
        <ele>2744.22</ele>
        <time>2018-02-10T12:44:30Z</time>
      </trkpt>
      <trkpt lat="45.29787" lon="6.14427">
        <ele>2738.93</ele>
        <time>2018-02-10T12:44:34Z</time>
      </trkpt>
      <trkpt lat="45.29785" lon="6.14438">
        <ele>2735.09</ele>
        <time>2018-02-10T12:44:37Z</time>
      </trkpt>
      <trkpt lat="45.29785" lon="6.14443">
        <ele>2731.72</ele>
        <time>2018-02-10T12:44:39Z</time>
      </trkpt>
      <trkpt lat="45.29783" lon="6.14449">
        <ele>2726.92</ele>
        <time>2018-02-10T12:44:41Z</time>
      </trkpt>
      <trkpt lat="45.29782" lon="6.14455">
        <ele>2722.59</ele>
        <time>2018-02-10T12:44:43Z</time>
      </trkpt>
      <trkpt lat="45.29782" lon="6.1446">
        <ele>2718.75</ele>
        <time>2018-02-10T12:44:45Z</time>
      </trkpt>
      <trkpt lat="45.29784" lon="6.14461">
        <ele>2717.3</ele>
        <time>2018-02-10T12:44:47Z</time>
      </trkpt>
      <trkpt lat="45.29783" lon="6.14467">
        <ele>2712.5</ele>
        <time>2018-02-10T12:44:49Z</time>
      </trkpt>
      <trkpt lat="45.29777" lon="6.14482">
        <ele>2707.21</ele>
        <time>2018-02-10T12:44:53Z</time>
      </trkpt>
      <trkpt lat="45.29776" lon="6.14485">
        <ele>2705.29</ele>
        <time>2018-02-10T12:44:54Z</time>
      </trkpt>
      <trkpt lat="45.29782" lon="6.14501">
        <ele>2699.04</ele>
        <time>2018-02-10T12:44:58Z</time>
      </trkpt>
      <trkpt lat="45.2978" lon="6.14504">
        <ele>2695.19</ele>
        <time>2018-02-10T12:45:00Z</time>
      </trkpt>
      <trkpt lat="45.29778" lon="6.14506">
        <ele>2695.19</ele>
        <time>2018-02-10T12:45:01Z</time>
      </trkpt>
      <trkpt lat="45.29776" lon="6.1452">
        <ele>2692.79</ele>
        <time>2018-02-10T12:45:05Z</time>
      </trkpt>
      <trkpt lat="45.29769" lon="6.14543">
        <ele>2688.46</ele>
        <time>2018-02-10T12:45:09Z</time>
      </trkpt>
      <trkpt lat="45.29759" lon="6.1457">
        <ele>2684.14</ele>
        <time>2018-02-10T12:45:16Z</time>
      </trkpt>
      <trkpt lat="45.29752" lon="6.14578">
        <ele>2682.7</ele>
        <time>2018-02-10T12:45:19Z</time>
      </trkpt>
      <trkpt lat="45.29748" lon="6.14584">
        <ele>2682.7</ele>
        <time>2018-02-10T12:45:21Z</time>
      </trkpt>
      <trkpt lat="45.29746" lon="6.14591">
        <ele>2681.73</ele>
        <time>2018-02-10T12:45:22Z</time>
      </trkpt>
      <trkpt lat="45.29741" lon="6.14634">
        <ele>2676.93</ele>
        <time>2018-02-10T12:45:27Z</time>
      </trkpt>
      <trkpt lat="45.29736" lon="6.14643">
        <ele>2673.56</ele>
        <time>2018-02-10T12:45:29Z</time>
      </trkpt>
      <trkpt lat="45.29736" lon="6.14645">
        <ele>2672.6</ele>
        <time>2018-02-10T12:45:30Z</time>
      </trkpt>
      <trkpt lat="45.29742" lon="6.14644">
        <ele>2667.31</ele>
        <time>2018-02-10T12:45:34Z</time>
      </trkpt>
      <trkpt lat="45.29745" lon="6.14644">
        <ele>2667.31</ele>
        <time>2018-02-10T12:45:43Z</time>
      </trkpt>
      <trkpt lat="45.29745" lon="6.14656">
        <ele>2666.83</ele>
        <time>2018-02-10T12:46:02Z</time>
      </trkpt>
      <trkpt lat="45.29745" lon="6.14657">
        <ele>2666.83</ele>
        <time>2018-02-10T12:46:03Z</time>
      </trkpt>
      <trkpt lat="45.29749" lon="6.14671">
        <ele>2662.03</ele>
        <time>2018-02-10T12:46:07Z</time>
      </trkpt>
      <trkpt lat="45.29752" lon="6.14683">
        <ele>2656.74</ele>
        <time>2018-02-10T12:46:09Z</time>
      </trkpt>
      <trkpt lat="45.29754" lon="6.14691">
        <ele>2653.38</ele>
        <time>2018-02-10T12:46:10Z</time>
      </trkpt>
      <trkpt lat="45.2976" lon="6.14719">
        <ele>2644.24</ele>
        <time>2018-02-10T12:46:14Z</time>
      </trkpt>
      <trkpt lat="45.29765" lon="6.14733">
        <ele>2640.4</ele>
        <time>2018-02-10T12:46:16Z</time>
      </trkpt>
      <trkpt lat="45.29769" lon="6.1474">
        <ele>2637.51</ele>
        <time>2018-02-10T12:46:17Z</time>
      </trkpt>
      <trkpt lat="45.29773" lon="6.14759">
        <ele>2634.15</ele>
        <time>2018-02-10T12:46:19Z</time>
      </trkpt>
      <trkpt lat="45.29777" lon="6.14783">
        <ele>2627.9</ele>
        <time>2018-02-10T12:46:21Z</time>
      </trkpt>
      <trkpt lat="45.29782" lon="6.14806">
        <ele>2623.09</ele>
        <time>2018-02-10T12:46:23Z</time>
      </trkpt>
      <trkpt lat="45.29783" lon="6.14826">
        <ele>2621.65</ele>
        <time>2018-02-10T12:46:24Z</time>
      </trkpt>
      <trkpt lat="45.29783" lon="6.14862">
        <ele>2618.77</ele>
        <time>2018-02-10T12:46:27Z</time>
      </trkpt>
      <trkpt lat="45.29782" lon="6.14881">
        <ele>2618.77</ele>
        <time>2018-02-10T12:46:29Z</time>
      </trkpt>
      <trkpt lat="45.29781" lon="6.14913">
        <ele>2616.85</ele>
        <time>2018-02-10T12:46:32Z</time>
      </trkpt>
      <trkpt lat="45.29781" lon="6.14959">
        <ele>2612.52</ele>
        <time>2018-02-10T12:46:36Z</time>
      </trkpt>
      <trkpt lat="45.29781" lon="6.14997">
        <ele>2609.16</ele>
        <time>2018-02-10T12:46:39Z</time>
      </trkpt>
      <trkpt lat="45.29778" lon="6.1504">
        <ele>2605.31</ele>
        <time>2018-02-10T12:46:42Z</time>
      </trkpt>
      <trkpt lat="45.29777" lon="6.15073">
        <ele>2601.46</ele>
        <time>2018-02-10T12:46:44Z</time>
      </trkpt>
      <trkpt lat="45.29776" lon="6.1509">
        <ele>2599.54</ele>
        <time>2018-02-10T12:46:45Z</time>
      </trkpt>
      <trkpt lat="45.29775" lon="6.15122">
        <ele>2596.66</ele>
        <time>2018-02-10T12:46:47Z</time>
      </trkpt>
      <trkpt lat="45.29772" lon="6.15165">
        <ele>2592.81</ele>
        <time>2018-02-10T12:46:50Z</time>
      </trkpt>
      <trkpt lat="45.29768" lon="6.1521">
        <ele>2589.45</ele>
        <time>2018-02-10T12:46:53Z</time>
      </trkpt>
      <trkpt lat="45.29762" lon="6.15251">
        <ele>2586.08</ele>
        <time>2018-02-10T12:46:56Z</time>
      </trkpt>
      <trkpt lat="45.29756" lon="6.15289">
        <ele>2582.72</ele>
        <time>2018-02-10T12:46:59Z</time>
      </trkpt>
      <trkpt lat="45.29754" lon="6.15305">
        <ele>2581.28</ele>
        <time>2018-02-10T12:47:00Z</time>
      </trkpt>
      <trkpt lat="45.29752" lon="6.15317">
        <ele>2579.84</ele>
        <time>2018-02-10T12:47:01Z</time>
      </trkpt>
      <trkpt lat="45.29751" lon="6.15338">
        <ele>2578.87</ele>
        <time>2018-02-10T12:47:03Z</time>
      </trkpt>
      <trkpt lat="45.29754" lon="6.15327">
        <ele>2577.91</ele>
        <time>2018-02-10T12:47:08Z</time>
      </trkpt>
      <trkpt lat="45.29765" lon="6.15299">
        <ele>2577.43</ele>
        <time>2018-02-10T12:47:12Z</time>
      </trkpt>
      <trkpt lat="45.29765" lon="6.15312">
        <ele>2574.55</ele>
        <time>2018-02-10T12:47:19Z</time>
      </trkpt>
      <trkpt lat="45.29765" lon="6.15322">
        <ele>2572.63</ele>
        <time>2018-02-10T12:47:22Z</time>
      </trkpt>
      <trkpt lat="45.29766" lon="6.15328">
        <ele>2572.14</ele>
        <time>2018-02-10T12:47:24Z</time>
      </trkpt>
      <trkpt lat="45.29772" lon="6.15328">
        <ele>2571.18</ele>
        <time>2018-02-10T12:47:26Z</time>
      </trkpt>
      <trkpt lat="45.2978" lon="6.15341">
        <ele>2569.26</ele>
        <time>2018-02-10T12:47:32Z</time>
      </trkpt>
      <trkpt lat="45.29779" lon="6.15347">
        <ele>2567.82</ele>
        <time>2018-02-10T12:47:33Z</time>
      </trkpt>
      <trkpt lat="45.2978" lon="6.15378">
        <ele>2565.42</ele>
        <time>2018-02-10T12:47:37Z</time>
      </trkpt>
      <trkpt lat="45.29778" lon="6.15415">
        <ele>2562.53</ele>
        <time>2018-02-10T12:47:42Z</time>
      </trkpt>
      <trkpt lat="45.29782" lon="6.15413">
        <ele>2562.53</ele>
        <time>2018-02-10T12:47:50Z</time>
      </trkpt>
      <trkpt lat="45.29811" lon="6.15374">
        <ele>2561.09</ele>
        <time>2018-02-10T12:48:08Z</time>
      </trkpt>
      <trkpt lat="45.29813" lon="6.15375">
        <ele>2561.57</ele>
        <time>2018-02-10T12:48:11Z</time>
      </trkpt>
      <trkpt lat="45.2982" lon="6.15384">
        <ele>2560.13</ele>
        <time>2018-02-10T12:48:17Z</time>
      </trkpt>
      <trkpt lat="45.29827" lon="6.15399">
        <ele>2556.28</ele>
        <time>2018-02-10T12:48:21Z</time>
      </trkpt>
      <trkpt lat="45.29845" lon="6.15408">
        <ele>2553.4</ele>
        <time>2018-02-10T12:48:24Z</time>
      </trkpt>
      <trkpt lat="45.29869" lon="6.15425">
        <ele>2548.59</ele>
        <time>2018-02-10T12:48:28Z</time>
      </trkpt>
      <trkpt lat="45.2989" lon="6.15428">
        <ele>2547.15</ele>
        <time>2018-02-10T12:48:34Z</time>
      </trkpt>
      <trkpt lat="45.29883" lon="6.15451">
        <ele>2543.79</ele>
        <time>2018-02-10T12:53:22Z</time>
      </trkpt>
      <trkpt lat="45.29881" lon="6.15477">
        <ele>2538.5</ele>
        <time>2018-02-10T12:53:25Z</time>
      </trkpt>
      <trkpt lat="45.29877" lon="6.15498">
        <ele>2532.73</ele>
        <time>2018-02-10T12:53:27Z</time>
      </trkpt>
      <trkpt lat="45.29873" lon="6.1552">
        <ele>2527.92</ele>
        <time>2018-02-10T12:53:29Z</time>
      </trkpt>
      <trkpt lat="45.29866" lon="6.15537">
        <ele>2525.04</ele>
        <time>2018-02-10T12:53:31Z</time>
      </trkpt>
      <trkpt lat="45.2984" lon="6.15583">
        <ele>2522.16</ele>
        <time>2018-02-10T12:53:42Z</time>
      </trkpt>
      <trkpt lat="45.29834" lon="6.15582">
        <ele>2521.19</ele>
        <time>2018-02-10T12:53:44Z</time>
      </trkpt>
      <trkpt lat="45.29829" lon="6.15581">
        <ele>2521.19</ele>
        <time>2018-02-10T12:53:46Z</time>
      </trkpt>
      <trkpt lat="45.29824" lon="6.15596">
        <ele>2517.35</ele>
        <time>2018-02-10T12:53:50Z</time>
      </trkpt>
      <trkpt lat="45.2982" lon="6.15608">
        <ele>2512.54</ele>
        <time>2018-02-10T12:53:52Z</time>
      </trkpt>
      <trkpt lat="45.29815" lon="6.15638">
        <ele>2504.85</ele>
        <time>2018-02-10T12:53:56Z</time>
      </trkpt>
      <trkpt lat="45.2981" lon="6.15653">
        <ele>2501.01</ele>
        <time>2018-02-10T12:53:58Z</time>
      </trkpt>
      <trkpt lat="45.29807" lon="6.15667">
        <ele>2496.2</ele>
        <time>2018-02-10T12:54:00Z</time>
      </trkpt>
      <trkpt lat="45.29804" lon="6.15675">
        <ele>2492.36</ele>
        <time>2018-02-10T12:54:01Z</time>
      </trkpt>
      <trkpt lat="45.29803" lon="6.15691">
        <ele>2489.47</ele>
        <time>2018-02-10T12:54:03Z</time>
      </trkpt>
      <trkpt lat="45.29796" lon="6.15707">
        <ele>2485.63</ele>
        <time>2018-02-10T12:54:05Z</time>
      </trkpt>
      <trkpt lat="45.29793" lon="6.15725">
        <ele>2481.3</ele>
        <time>2018-02-10T12:54:07Z</time>
      </trkpt>
      <trkpt lat="45.29784" lon="6.15739">
        <ele>2476.49</ele>
        <time>2018-02-10T12:54:09Z</time>
      </trkpt>
      <trkpt lat="45.29773" lon="6.1577">
        <ele>2468.32</ele>
        <time>2018-02-10T12:54:12Z</time>
      </trkpt>
      <trkpt lat="45.2976" lon="6.15787">
        <ele>2464</ele>
        <time>2018-02-10T12:54:14Z</time>
      </trkpt>
      <trkpt lat="45.29753" lon="6.15792">
        <ele>2462.55</ele>
        <time>2018-02-10T12:54:15Z</time>
      </trkpt>
      <trkpt lat="45.29736" lon="6.15812">
        <ele>2459.67</ele>
        <time>2018-02-10T12:54:19Z</time>
      </trkpt>
      <trkpt lat="45.29734" lon="6.15815">
        <ele>2460.63</ele>
        <time>2018-02-10T12:54:20Z</time>
      </trkpt>
      <trkpt lat="45.29727" lon="6.15827">
        <ele>2461.59</ele>
        <time>2018-02-10T12:54:34Z</time>
      </trkpt>
      <trkpt lat="45.29727" lon="6.15828">
        <ele>2461.11</ele>
        <time>2018-02-10T12:54:47Z</time>
      </trkpt>
      <trkpt lat="45.29721" lon="6.15847">
        <ele>2457.75</ele>
        <time>2018-02-10T12:54:55Z</time>
      </trkpt>
      <trkpt lat="45.29717" lon="6.15872">
        <ele>2454.38</ele>
        <time>2018-02-10T12:55:01Z</time>
      </trkpt>
      <trkpt lat="45.29714" lon="6.15884">
        <ele>2453.42</ele>
        <time>2018-02-10T12:55:03Z</time>
      </trkpt>
      <trkpt lat="45.29706" lon="6.15893">
        <ele>2450.06</ele>
        <time>2018-02-10T12:55:05Z</time>
      </trkpt>
      <trkpt lat="45.29699" lon="6.15898">
        <ele>2446.69</ele>
        <time>2018-02-10T12:55:07Z</time>
      </trkpt>
      <trkpt lat="45.29696" lon="6.15907">
        <ele>2444.77</ele>
        <time>2018-02-10T12:55:09Z</time>
      </trkpt>
      <trkpt lat="45.29688" lon="6.15933">
        <ele>2436.12</ele>
        <time>2018-02-10T12:55:14Z</time>
      </trkpt>
      <trkpt lat="45.29685" lon="6.1595">
        <ele>2433.23</ele>
        <time>2018-02-10T12:55:18Z</time>
      </trkpt>
      <trkpt lat="45.29683" lon="6.15964">
        <ele>2430.83</ele>
        <time>2018-02-10T12:55:21Z</time>
      </trkpt>
      <trkpt lat="45.29681" lon="6.15982">
        <ele>2426.99</ele>
        <time>2018-02-10T12:55:24Z</time>
      </trkpt>
      <trkpt lat="45.29676" lon="6.16017">
        <ele>2423.14</ele>
        <time>2018-02-10T12:55:27Z</time>
      </trkpt>
      <trkpt lat="45.29669" lon="6.16049">
        <ele>2419.78</ele>
        <time>2018-02-10T12:55:30Z</time>
      </trkpt>
      <trkpt lat="45.29668" lon="6.16058">
        <ele>2419.3</ele>
        <time>2018-02-10T12:55:31Z</time>
      </trkpt>
      <trkpt lat="45.2966" lon="6.16097">
        <ele>2413.53</ele>
        <time>2018-02-10T12:55:34Z</time>
      </trkpt>
      <trkpt lat="45.29659" lon="6.16121">
        <ele>2408.72</ele>
        <time>2018-02-10T12:55:36Z</time>
      </trkpt>
      <trkpt lat="45.29657" lon="6.16165">
        <ele>2401.51</ele>
        <time>2018-02-10T12:55:40Z</time>
      </trkpt>
      <trkpt lat="45.29663" lon="6.16183">
        <ele>2398.63</ele>
        <time>2018-02-10T12:55:43Z</time>
      </trkpt>
      <trkpt lat="45.29669" lon="6.16205">
        <ele>2393.82</ele>
        <time>2018-02-10T12:55:47Z</time>
      </trkpt>
      <trkpt lat="45.29672" lon="6.16229">
        <ele>2388.05</ele>
        <time>2018-02-10T12:55:50Z</time>
      </trkpt>
      <trkpt lat="45.29673" lon="6.16244">
        <ele>2383.25</ele>
        <time>2018-02-10T12:55:52Z</time>
      </trkpt>
      <trkpt lat="45.29676" lon="6.16263">
        <ele>2380.36</ele>
        <time>2018-02-10T12:55:55Z</time>
      </trkpt>
      <trkpt lat="45.29676" lon="6.16278">
        <ele>2377.96</ele>
        <time>2018-02-10T12:55:57Z</time>
      </trkpt>
      <trkpt lat="45.29675" lon="6.16286">
        <ele>2377</ele>
        <time>2018-02-10T12:55:58Z</time>
      </trkpt>
      <trkpt lat="45.29681" lon="6.16302">
        <ele>2375.07</ele>
        <time>2018-02-10T12:56:04Z</time>
      </trkpt>
      <trkpt lat="45.29695" lon="6.16307">
        <ele>2374.11</ele>
        <time>2018-02-10T12:56:15Z</time>
      </trkpt>
      <trkpt lat="45.29708" lon="6.16303">
        <ele>2374.11</ele>
        <time>2018-02-10T12:56:34Z</time>
      </trkpt>
      <trkpt lat="45.29712" lon="6.16309">
        <ele>2373.15</ele>
        <time>2018-02-10T12:56:38Z</time>
      </trkpt>
      <trkpt lat="45.29709" lon="6.16326">
        <ele>2367.86</ele>
        <time>2018-02-10T12:56:41Z</time>
      </trkpt>
      <trkpt lat="45.29706" lon="6.16336">
        <ele>2363.54</ele>
        <time>2018-02-10T12:56:43Z</time>
      </trkpt>
      <trkpt lat="45.29703" lon="6.16346">
        <ele>2359.21</ele>
        <time>2018-02-10T12:56:45Z</time>
      </trkpt>
      <trkpt lat="45.297" lon="6.16354">
        <ele>2354.41</ele>
        <time>2018-02-10T12:56:47Z</time>
      </trkpt>
      <trkpt lat="45.29695" lon="6.1637">
        <ele>2350.56</ele>
        <time>2018-02-10T12:56:49Z</time>
      </trkpt>
      <trkpt lat="45.29689" lon="6.16381">
        <ele>2349.6</ele>
        <time>2018-02-10T12:56:50Z</time>
      </trkpt>
      <trkpt lat="45.29671" lon="6.16412">
        <ele>2343.83</ele>
        <time>2018-02-10T12:56:52Z</time>
      </trkpt>
      <trkpt lat="45.29651" lon="6.16446">
        <ele>2337.1</ele>
        <time>2018-02-10T12:56:54Z</time>
      </trkpt>
      <trkpt lat="45.2963" lon="6.16471">
        <ele>2330.85</ele>
        <time>2018-02-10T12:56:56Z</time>
      </trkpt>
      <trkpt lat="45.29618" lon="6.16481">
        <ele>2329.89</ele>
        <time>2018-02-10T12:56:57Z</time>
      </trkpt>
      <trkpt lat="45.296" lon="6.16511">
        <ele>2325.09</ele>
        <time>2018-02-10T12:57:00Z</time>
      </trkpt>
      <trkpt lat="45.29593" lon="6.1652">
        <ele>2323.64</ele>
        <time>2018-02-10T12:57:01Z</time>
      </trkpt>
      <trkpt lat="45.29586" lon="6.16523">
        <ele>2323.64</ele>
        <time>2018-02-10T12:57:02Z</time>
      </trkpt>
      <trkpt lat="45.29555" lon="6.16521">
        <ele>2321.72</ele>
        <time>2018-02-10T12:57:08Z</time>
      </trkpt>
      <trkpt lat="45.29543" lon="6.16525">
        <ele>2319.32</ele>
        <time>2018-02-10T12:57:10Z</time>
      </trkpt>
      <trkpt lat="45.29535" lon="6.16529">
        <ele>2316.91</ele>
        <time>2018-02-10T12:57:11Z</time>
      </trkpt>
      <trkpt lat="45.29528" lon="6.16535">
        <ele>2316.43</ele>
        <time>2018-02-10T12:57:12Z</time>
      </trkpt>
      <trkpt lat="45.29525" lon="6.16542">
        <ele>2316.43</ele>
        <time>2018-02-10T12:57:13Z</time>
      </trkpt>
      <trkpt lat="45.29522" lon="6.16553">
        <ele>2314.99</ele>
        <time>2018-02-10T12:57:14Z</time>
      </trkpt>
      <trkpt lat="45.29515" lon="6.16585">
        <ele>2311.63</ele>
        <time>2018-02-10T12:57:17Z</time>
      </trkpt>
      <trkpt lat="45.29512" lon="6.16598">
        <ele>2310.19</ele>
        <time>2018-02-10T12:57:18Z</time>
      </trkpt>
      <trkpt lat="45.29508" lon="6.16618">
        <ele>2308.26</ele>
        <time>2018-02-10T12:57:20Z</time>
      </trkpt>
      <trkpt lat="45.29506" lon="6.16624">
        <ele>2308.26</ele>
        <time>2018-02-10T12:57:21Z</time>
      </trkpt>
      <trkpt lat="45.29501" lon="6.16634">
        <ele>2306.82</ele>
        <time>2018-02-10T12:57:22Z</time>
      </trkpt>
      <trkpt lat="45.29499" lon="6.16645">
        <ele>2304.42</ele>
        <time>2018-02-10T12:57:23Z</time>
      </trkpt>
      <trkpt lat="45.29502" lon="6.16671">
        <ele>2302.01</ele>
        <time>2018-02-10T12:57:25Z</time>
      </trkpt>
      <trkpt lat="45.29503" lon="6.16695">
        <ele>2299.13</ele>
        <time>2018-02-10T12:57:27Z</time>
      </trkpt>
      <trkpt lat="45.29514" lon="6.16743">
        <ele>2295.28</ele>
        <time>2018-02-10T12:57:32Z</time>
      </trkpt>
      <trkpt lat="45.2952" lon="6.1677">
        <ele>2292.4</ele>
        <time>2018-02-10T12:57:35Z</time>
      </trkpt>
      <trkpt lat="45.29523" lon="6.16789">
        <ele>2290.48</ele>
        <time>2018-02-10T12:57:37Z</time>
      </trkpt>
      <trkpt lat="45.29522" lon="6.16807">
        <ele>2287.59</ele>
        <time>2018-02-10T12:57:39Z</time>
      </trkpt>
      <trkpt lat="45.29526" lon="6.16823">
        <ele>2286.15</ele>
        <time>2018-02-10T12:57:40Z</time>
      </trkpt>
      <trkpt lat="45.29526" lon="6.16838">
        <ele>2284.71</ele>
        <time>2018-02-10T12:57:41Z</time>
      </trkpt>
      <trkpt lat="45.29526" lon="6.16853">
        <ele>2281.83</ele>
        <time>2018-02-10T12:57:42Z</time>
      </trkpt>
      <trkpt lat="45.29524" lon="6.16866">
        <ele>2280.87</ele>
        <time>2018-02-10T12:57:43Z</time>
      </trkpt>
      <trkpt lat="45.2953" lon="6.16887">
        <ele>2279.42</ele>
        <time>2018-02-10T12:57:45Z</time>
      </trkpt>
      <trkpt lat="45.29534" lon="6.16903">
        <ele>2278.94</ele>
        <time>2018-02-10T12:57:47Z</time>
      </trkpt>
      <trkpt lat="45.2954" lon="6.16915">
        <ele>2277.5</ele>
        <time>2018-02-10T12:57:49Z</time>
      </trkpt>
      <trkpt lat="45.29594" lon="6.16883">
        <ele>2276.54</ele>
        <time>2018-02-10T12:57:56Z</time>
      </trkpt>
      <trkpt lat="45.29677" lon="6.168">
        <ele>2276.54</ele>
        <time>2018-02-10T12:58:13Z</time>
      </trkpt>
      <trkpt lat="45.29706" lon="6.16802">
        <ele>2273.17</ele>
        <time>2018-02-10T12:58:23Z</time>
      </trkpt>
      <trkpt lat="45.29707" lon="6.16808">
        <ele>2272.69</ele>
        <time>2018-02-10T12:58:25Z</time>
      </trkpt>
      <trkpt lat="45.29706" lon="6.16825">
        <ele>2270.77</ele>
        <time>2018-02-10T12:58:28Z</time>
      </trkpt>
      <trkpt lat="45.29706" lon="6.1684">
        <ele>2269.81</ele>
        <time>2018-02-10T12:58:30Z</time>
      </trkpt>
      <trkpt lat="45.29706" lon="6.16847">
        <ele>2269.33</ele>
        <time>2018-02-10T12:58:31Z</time>
      </trkpt>
      <trkpt lat="45.29705" lon="6.16855">
        <ele>2268.85</ele>
        <time>2018-02-10T12:58:32Z</time>
      </trkpt>
      <trkpt lat="45.29706" lon="6.16868">
        <ele>2267.89</ele>
        <time>2018-02-10T12:58:34Z</time>
      </trkpt>
      <trkpt lat="45.29708" lon="6.16884">
        <ele>2267.89</ele>
        <time>2018-02-10T12:58:36Z</time>
      </trkpt>
      <trkpt lat="45.29709" lon="6.16894">
        <ele>2265.96</ele>
        <time>2018-02-10T12:58:37Z</time>
      </trkpt>
      <trkpt lat="45.2971" lon="6.16903">
        <ele>2265</ele>
        <time>2018-02-10T12:58:38Z</time>
      </trkpt>
      <trkpt lat="45.2972" lon="6.16911">
        <ele>2263.56</ele>
        <time>2018-02-10T12:58:44Z</time>
      </trkpt>
      <trkpt lat="45.29729" lon="6.16894">
        <ele>2264.52</ele>
        <time>2018-02-10T12:58:58Z</time>
      </trkpt>
      <trkpt lat="45.29731" lon="6.16891">
        <ele>2265</ele>
        <time>2018-02-10T12:59:01Z</time>
      </trkpt>
      <trkpt lat="45.29733" lon="6.16892">
        <ele>2263.56</ele>
        <time>2018-02-10T12:59:09Z</time>
      </trkpt>
      <trkpt lat="45.29734" lon="6.16891">
        <ele>2264.04</ele>
        <time>2018-02-10T12:59:10Z</time>
      </trkpt>
      <trkpt lat="45.29707" lon="6.16888">
        <ele>2263.56</ele>
        <time>2018-02-10T12:59:34Z</time>
      </trkpt>
      <trkpt lat="45.29682" lon="6.1689">
        <ele>2264.04</ele>
        <time>2018-02-10T12:59:52Z</time>
      </trkpt>
      <trkpt lat="45.29664" lon="6.16891">
        <ele>2263.56</ele>
        <time>2018-02-10T13:00:12Z</time>
      </trkpt>
      <trkpt lat="45.29662" lon="6.16892">
        <ele>2263.08</ele>
        <time>2018-02-10T13:00:18Z</time>
      </trkpt>
      <trkpt lat="45.29665" lon="6.16896">
        <ele>2263.08</ele>
        <time>2018-02-10T13:00:22Z</time>
      </trkpt>
      <trkpt lat="45.29666" lon="6.16898">
        <ele>2261.64</ele>
        <time>2018-02-10T13:00:25Z</time>
      </trkpt>
      <trkpt lat="45.29662" lon="6.16895">
        <ele>2260.68</ele>
        <time>2018-02-10T13:00:28Z</time>
      </trkpt>
      <trkpt lat="45.29659" lon="6.16907">
        <ele>2256.83</ele>
        <time>2018-02-10T13:00:31Z</time>
      </trkpt>
      <trkpt lat="45.29659" lon="6.16914">
        <ele>2254.91</ele>
        <time>2018-02-10T13:00:32Z</time>
      </trkpt>
      <trkpt lat="45.2966" lon="6.16923">
        <ele>2250.1</ele>
        <time>2018-02-10T13:00:35Z</time>
      </trkpt>
      <trkpt lat="45.2965" lon="6.16925">
        <ele>2248.18</ele>
        <time>2018-02-10T13:00:37Z</time>
      </trkpt>
      <trkpt lat="45.29645" lon="6.16933">
        <ele>2242.41</ele>
        <time>2018-02-10T13:00:39Z</time>
      </trkpt>
      <trkpt lat="45.29653" lon="6.1694">
        <ele>2240.97</ele>
        <time>2018-02-10T13:00:42Z</time>
      </trkpt>
      <trkpt lat="45.29661" lon="6.16946">
        <ele>2239.05</ele>
        <time>2018-02-10T13:00:45Z</time>
      </trkpt>
      <trkpt lat="45.29655" lon="6.1696">
        <ele>2235.68</ele>
        <time>2018-02-10T13:00:47Z</time>
      </trkpt>
      <trkpt lat="45.29648" lon="6.16975">
        <ele>2232.32</ele>
        <time>2018-02-10T13:00:49Z</time>
      </trkpt>
      <trkpt lat="45.29645" lon="6.16982">
        <ele>2228.95</ele>
        <time>2018-02-10T13:00:50Z</time>
      </trkpt>
      <trkpt lat="45.29645" lon="6.16985">
        <ele>2227.03</ele>
        <time>2018-02-10T13:00:53Z</time>
      </trkpt>
      <trkpt lat="45.29656" lon="6.16991">
        <ele>2224.63</ele>
        <time>2018-02-10T13:01:03Z</time>
      </trkpt>
      <trkpt lat="45.29665" lon="6.16985">
        <ele>2225.59</ele>
        <time>2018-02-10T13:01:08Z</time>
      </trkpt>
      <trkpt lat="45.29664" lon="6.16995">
        <ele>2220.78</ele>
        <time>2018-02-10T13:01:12Z</time>
      </trkpt>
      <trkpt lat="45.29661" lon="6.16999">
        <ele>2217.9</ele>
        <time>2018-02-10T13:01:13Z</time>
      </trkpt>
      <trkpt lat="45.29659" lon="6.16999">
        <ele>2217.42</ele>
        <time>2018-02-10T13:01:14Z</time>
      </trkpt>
      <trkpt lat="45.29655" lon="6.1698">
        <ele>2217.9</ele>
        <time>2018-02-10T13:01:31Z</time>
      </trkpt>
      <trkpt lat="45.29655" lon="6.1698">
        <ele>2216.94</ele>
        <time>2018-02-10T13:01:39Z</time>
      </trkpt>
      <trkpt lat="45.29649" lon="6.17005">
        <ele>2212.61</ele>
        <time>2018-02-10T13:01:46Z</time>
      </trkpt>
      <trkpt lat="45.29648" lon="6.17011">
        <ele>2209.25</ele>
        <time>2018-02-10T13:01:47Z</time>
      </trkpt>
      <trkpt lat="45.29647" lon="6.17024">
        <ele>2205.88</ele>
        <time>2018-02-10T13:01:49Z</time>
      </trkpt>
      <trkpt lat="45.29645" lon="6.17039">
        <ele>2200.59</ele>
        <time>2018-02-10T13:01:51Z</time>
      </trkpt>
      <trkpt lat="45.29643" lon="6.17049">
        <ele>2199.15</ele>
        <time>2018-02-10T13:01:53Z</time>
      </trkpt>
      <trkpt lat="45.29644" lon="6.17064">
        <ele>2194.35</ele>
        <time>2018-02-10T13:01:56Z</time>
      </trkpt>
      <trkpt lat="45.29646" lon="6.17077">
        <ele>2190.02</ele>
        <time>2018-02-10T13:01:59Z</time>
      </trkpt>
      <trkpt lat="45.2966" lon="6.17057">
        <ele>2189.06</ele>
        <time>2018-02-10T13:02:08Z</time>
      </trkpt>
      <trkpt lat="45.29669" lon="6.17074">
        <ele>2184.73</ele>
        <time>2018-02-10T13:02:13Z</time>
      </trkpt>
      <trkpt lat="45.29678" lon="6.17079">
        <ele>2179.93</ele>
        <time>2018-02-10T13:02:16Z</time>
      </trkpt>
      <trkpt lat="45.29685" lon="6.17089">
        <ele>2175.6</ele>
        <time>2018-02-10T13:02:18Z</time>
      </trkpt>
      <trkpt lat="45.29693" lon="6.17103">
        <ele>2169.83</ele>
        <time>2018-02-10T13:02:20Z</time>
      </trkpt>
      <trkpt lat="45.29695" lon="6.17107">
        <ele>2165.51</ele>
        <time>2018-02-10T13:02:21Z</time>
      </trkpt>
      <trkpt lat="45.297" lon="6.17113">
        <ele>2166.47</ele>
        <time>2018-02-10T13:02:22Z</time>
      </trkpt>
      <trkpt lat="45.29714" lon="6.17096">
        <ele>2167.91</ele>
        <time>2018-02-10T13:02:28Z</time>
      </trkpt>
      <trkpt lat="45.29712" lon="6.17096">
        <ele>2165.99</ele>
        <time>2018-02-10T13:02:35Z</time>
      </trkpt>
      <trkpt lat="45.29715" lon="6.17099">
        <ele>2166.47</ele>
        <time>2018-02-10T13:02:50Z</time>
      </trkpt>
      <trkpt lat="45.29707" lon="6.17102">
        <ele>2166.47</ele>
        <time>2018-02-10T13:03:10Z</time>
      </trkpt>
      <trkpt lat="45.29706" lon="6.17102">
        <ele>2165.99</ele>
        <time>2018-02-10T13:03:11Z</time>
      </trkpt>
      <trkpt lat="45.29717" lon="6.17116">
        <ele>2164.06</ele>
        <time>2018-02-10T13:03:17Z</time>
      </trkpt>
      <trkpt lat="45.29728" lon="6.17127">
        <ele>2160.7</ele>
        <time>2018-02-10T13:03:19Z</time>
      </trkpt>
      <trkpt lat="45.29753" lon="6.17141">
        <ele>2159.26</ele>
        <time>2018-02-10T13:03:23Z</time>
      </trkpt>
      <trkpt lat="45.29763" lon="6.17144">
        <ele>2156.86</ele>
        <time>2018-02-10T13:03:24Z</time>
      </trkpt>
      <trkpt lat="45.29778" lon="6.17136">
        <ele>2157.34</ele>
        <time>2018-02-10T13:03:29Z</time>
      </trkpt>
      <trkpt lat="45.29732" lon="6.17121">
        <ele>2157.82</ele>
        <time>2018-02-10T13:03:41Z</time>
      </trkpt>
      <trkpt lat="45.29728" lon="6.17121">
        <ele>2156.86</ele>
        <time>2018-02-10T13:03:43Z</time>
      </trkpt>
      <trkpt lat="45.29725" lon="6.17124">
        <ele>2157.34</ele>
        <time>2018-02-10T13:03:49Z</time>
      </trkpt>
      <trkpt lat="45.29731" lon="6.1714">
        <ele>2155.41</ele>
        <time>2018-02-10T13:03:53Z</time>
      </trkpt>
      <trkpt lat="45.29739" lon="6.17141">
        <ele>2151.57</ele>
        <time>2018-02-10T13:03:56Z</time>
      </trkpt>
      <trkpt lat="45.29746" lon="6.17143">
        <ele>2148.68</ele>
        <time>2018-02-10T13:03:58Z</time>
      </trkpt>
      <trkpt lat="45.29748" lon="6.17148">
        <ele>2147.24</ele>
        <time>2018-02-10T13:03:59Z</time>
      </trkpt>
      <trkpt lat="45.29755" lon="6.17157">
        <ele>2141.47</ele>
        <time>2018-02-10T13:04:02Z</time>
      </trkpt>
      <trkpt lat="45.29757" lon="6.17168">
        <ele>2137.15</ele>
        <time>2018-02-10T13:04:05Z</time>
      </trkpt>
      <trkpt lat="45.29757" lon="6.1717">
        <ele>2135.23</ele>
        <time>2018-02-10T13:04:06Z</time>
      </trkpt>
      <trkpt lat="45.29768" lon="6.17163">
        <ele>2132.82</ele>
        <time>2018-02-10T13:04:09Z</time>
      </trkpt>
      <trkpt lat="45.2978" lon="6.17179">
        <ele>2128.02</ele>
        <time>2018-02-10T13:04:13Z</time>
      </trkpt>
      <trkpt lat="45.29791" lon="6.17193">
        <ele>2121.77</ele>
        <time>2018-02-10T13:04:16Z</time>
      </trkpt>
      <trkpt lat="45.29798" lon="6.17201">
        <ele>2118.88</ele>
        <time>2018-02-10T13:04:18Z</time>
      </trkpt>
      <trkpt lat="45.29788" lon="6.17198">
        <ele>2118.4</ele>
        <time>2018-02-10T13:04:25Z</time>
      </trkpt>
      <trkpt lat="45.29784" lon="6.17199">
        <ele>2117.92</ele>
        <time>2018-02-10T13:04:29Z</time>
      </trkpt>
      <trkpt lat="45.2979" lon="6.17204">
        <ele>2114.56</ele>
        <time>2018-02-10T13:04:33Z</time>
      </trkpt>
      <trkpt lat="45.29794" lon="6.17211">
        <ele>2111.19</ele>
        <time>2018-02-10T13:04:35Z</time>
      </trkpt>
      <trkpt lat="45.29798" lon="6.17209">
        <ele>2107.83</ele>
        <time>2018-02-10T13:04:38Z</time>
      </trkpt>
      <trkpt lat="45.29795" lon="6.17207">
        <ele>2108.31</ele>
        <time>2018-02-10T13:05:04Z</time>
      </trkpt>
      <trkpt lat="45.298" lon="6.17205">
        <ele>2104.94</ele>
        <time>2018-02-10T13:05:09Z</time>
      </trkpt>
      <trkpt lat="45.29813" lon="6.17208">
        <ele>2102.06</ele>
        <time>2018-02-10T13:05:14Z</time>
      </trkpt>
      <trkpt lat="45.29817" lon="6.17209">
        <ele>2098.7</ele>
        <time>2018-02-10T13:05:18Z</time>
      </trkpt>
      <trkpt lat="45.29814" lon="6.17211">
        <ele>2098.21</ele>
        <time>2018-02-10T13:05:26Z</time>
      </trkpt>
      <trkpt lat="45.29816" lon="6.17219">
        <ele>2094.37</ele>
        <time>2018-02-10T13:05:30Z</time>
      </trkpt>
      <trkpt lat="45.29816" lon="6.17221">
        <ele>2093.41</ele>
        <time>2018-02-10T13:05:31Z</time>
      </trkpt>
      <trkpt lat="45.29817" lon="6.17221">
        <ele>2090.04</ele>
        <time>2018-02-10T13:05:41Z</time>
      </trkpt>
      <trkpt lat="45.29822" lon="6.1723">
        <ele>2085.24</ele>
        <time>2018-02-10T13:05:44Z</time>
      </trkpt>
      <trkpt lat="45.29828" lon="6.17247">
        <ele>2080.91</ele>
        <time>2018-02-10T13:05:48Z</time>
      </trkpt>
      <trkpt lat="45.29828" lon="6.17244">
        <ele>2078.03</ele>
        <time>2018-02-10T13:05:51Z</time>
      </trkpt>
      <trkpt lat="45.29831" lon="6.1724">
        <ele>2078.03</ele>
        <time>2018-02-10T13:06:00Z</time>
      </trkpt>
      <trkpt lat="45.29832" lon="6.17249">
        <ele>2074.66</ele>
        <time>2018-02-10T13:06:04Z</time>
      </trkpt>
      <trkpt lat="45.29833" lon="6.17251">
        <ele>2074.18</ele>
        <time>2018-02-10T13:06:05Z</time>
      </trkpt>
      <trkpt lat="45.29837" lon="6.17258">
        <ele>2072.26</ele>
        <time>2018-02-10T13:06:08Z</time>
      </trkpt>
      <trkpt lat="45.29841" lon="6.17256">
        <ele>2068.89</ele>
        <time>2018-02-10T13:06:11Z</time>
      </trkpt>
      <trkpt lat="45.29847" lon="6.17261">
        <ele>2066.01</ele>
        <time>2018-02-10T13:06:15Z</time>
      </trkpt>
      <trkpt lat="45.2985" lon="6.17263">
        <ele>2062.17</ele>
        <time>2018-02-10T13:06:16Z</time>
      </trkpt>
      <trkpt lat="45.29852" lon="6.17263">
        <ele>2061.68</ele>
        <time>2018-02-10T13:06:17Z</time>
      </trkpt>
      <trkpt lat="45.29857" lon="6.17274">
        <ele>2056.88</ele>
        <time>2018-02-10T13:06:19Z</time>
      </trkpt>
      <trkpt lat="45.29858" lon="6.17278">
        <ele>2055.92</ele>
        <time>2018-02-10T13:06:20Z</time>
      </trkpt>
      <trkpt lat="45.2985" lon="6.17276">
        <ele>2055.92</ele>
        <time>2018-02-10T13:06:28Z</time>
      </trkpt>
      <trkpt lat="45.29848" lon="6.17275">
        <ele>2055.92</ele>
        <time>2018-02-10T13:06:41Z</time>
      </trkpt>
      <trkpt lat="45.29851" lon="6.17278">
        <ele>2053.03</ele>
        <time>2018-02-10T13:06:44Z</time>
      </trkpt>
      <trkpt lat="45.29852" lon="6.1728">
        <ele>2051.59</ele>
        <time>2018-02-10T13:06:45Z</time>
      </trkpt>
      <trkpt lat="45.29857" lon="6.17283">
        <ele>2047.75</ele>
        <time>2018-02-10T13:06:47Z</time>
      </trkpt>
      <trkpt lat="45.29859" lon="6.17283">
        <ele>2047.75</ele>
        <time>2018-02-10T13:06:48Z</time>
      </trkpt>
      <trkpt lat="45.29863" lon="6.17292">
        <ele>2042.46</ele>
        <time>2018-02-10T13:06:51Z</time>
      </trkpt>
      <trkpt lat="45.29868" lon="6.17293">
        <ele>2039.09</ele>
        <time>2018-02-10T13:06:53Z</time>
      </trkpt>
      <trkpt lat="45.2987" lon="6.17294">
        <ele>2038.13</ele>
        <time>2018-02-10T13:06:54Z</time>
      </trkpt>
      <trkpt lat="45.29876" lon="6.17302">
        <ele>2033.81</ele>
        <time>2018-02-10T13:06:56Z</time>
      </trkpt>
      <trkpt lat="45.29886" lon="6.17306">
        <ele>2033.81</ele>
        <time>2018-02-10T13:07:02Z</time>
      </trkpt>
      <trkpt lat="45.29896" lon="6.17309">
        <ele>2029.96</ele>
        <time>2018-02-10T13:07:06Z</time>
      </trkpt>
      <trkpt lat="45.29901" lon="6.17308">
        <ele>2029</ele>
        <time>2018-02-10T13:07:08Z</time>
      </trkpt>
      <trkpt lat="45.29908" lon="6.17316">
        <ele>2025.64</ele>
        <time>2018-02-10T13:07:10Z</time>
      </trkpt>
      <trkpt lat="45.29918" lon="6.1732">
        <ele>2021.31</ele>
        <time>2018-02-10T13:07:12Z</time>
      </trkpt>
      <trkpt lat="45.29922" lon="6.17319">
        <ele>2021.31</ele>
        <time>2018-02-10T13:07:13Z</time>
      </trkpt>
      <trkpt lat="45.29937" lon="6.17326">
        <ele>2017.46</ele>
        <time>2018-02-10T13:07:16Z</time>
      </trkpt>
      <trkpt lat="45.29926" lon="6.17325">
        <ele>2013.62</ele>
        <time>2018-02-10T13:07:18Z</time>
      </trkpt>
      <trkpt lat="45.29894" lon="6.17324">
        <ele>2014.1</ele>
        <time>2018-02-10T13:07:23Z</time>
      </trkpt>
      <trkpt lat="45.29899" lon="6.17332">
        <ele>2009.77</ele>
        <time>2018-02-10T13:07:27Z</time>
      </trkpt>
      <trkpt lat="45.29903" lon="6.17331">
        <ele>2004.97</ele>
        <time>2018-02-10T13:07:30Z</time>
      </trkpt>
      <trkpt lat="45.29905" lon="6.1733">
        <ele>2004.97</ele>
        <time>2018-02-10T13:07:31Z</time>
      </trkpt>
      <trkpt lat="45.29907" lon="6.17323">
        <ele>2005.45</ele>
        <time>2018-02-10T13:07:55Z</time>
      </trkpt>
      <trkpt lat="45.29911" lon="6.17322">
        <ele>2004.97</ele>
        <time>2018-02-10T13:08:13Z</time>
      </trkpt>
      <trkpt lat="45.29918" lon="6.17334">
        <ele>2001.6</ele>
        <time>2018-02-10T13:08:17Z</time>
      </trkpt>
      <trkpt lat="45.29926" lon="6.17342">
        <ele>1997.28</ele>
        <time>2018-02-10T13:08:20Z</time>
      </trkpt>
      <trkpt lat="45.29932" lon="6.17348">
        <ele>1994.39</ele>
        <time>2018-02-10T13:08:22Z</time>
      </trkpt>
      <trkpt lat="45.29937" lon="6.17356">
        <ele>1989.1</ele>
        <time>2018-02-10T13:08:24Z</time>
      </trkpt>
      <trkpt lat="45.29943" lon="6.17363">
        <ele>1985.26</ele>
        <time>2018-02-10T13:08:26Z</time>
      </trkpt>
      <trkpt lat="45.29945" lon="6.17369">
        <ele>1981.41</ele>
        <time>2018-02-10T13:08:27Z</time>
      </trkpt>
      <trkpt lat="45.2995" lon="6.17383">
        <ele>1977.09</ele>
        <time>2018-02-10T13:08:30Z</time>
      </trkpt>
      <trkpt lat="45.29953" lon="6.1739">
        <ele>1973.24</ele>
        <time>2018-02-10T13:08:31Z</time>
      </trkpt>
      <trkpt lat="45.29953" lon="6.17393">
        <ele>1972.28</ele>
        <time>2018-02-10T13:08:32Z</time>
      </trkpt>
      <trkpt lat="45.29958" lon="6.17401">
        <ele>1969.4</ele>
        <time>2018-02-10T13:08:34Z</time>
      </trkpt>
      <trkpt lat="45.29962" lon="6.17407">
        <ele>1965.07</ele>
        <time>2018-02-10T13:08:35Z</time>
      </trkpt>
      <trkpt lat="45.29963" lon="6.17408">
        <ele>1963.63</ele>
        <time>2018-02-10T13:08:36Z</time>
      </trkpt>
      <trkpt lat="45.29978" lon="6.17398">
        <ele>1960.27</ele>
        <time>2018-02-10T13:08:43Z</time>
      </trkpt>
      <trkpt lat="45.29979" lon="6.17395">
        <ele>1960.75</ele>
        <time>2018-02-10T13:09:02Z</time>
      </trkpt>
      <trkpt lat="45.2998" lon="6.17395">
        <ele>1961.23</ele>
        <time>2018-02-10T13:09:19Z</time>
      </trkpt>
      <trkpt lat="45.29984" lon="6.17396">
        <ele>1960.75</ele>
        <time>2018-02-10T13:09:25Z</time>
      </trkpt>
      <trkpt lat="45.29986" lon="6.17405">
        <ele>1956.42</ele>
        <time>2018-02-10T13:09:33Z</time>
      </trkpt>
      <trkpt lat="45.29987" lon="6.17408">
        <ele>1954.5</ele>
        <time>2018-02-10T13:09:34Z</time>
      </trkpt>
      <trkpt lat="45.29988" lon="6.17415">
        <ele>1953.06</ele>
        <time>2018-02-10T13:09:36Z</time>
      </trkpt>
      <trkpt lat="45.29988" lon="6.17421">
        <ele>1950.17</ele>
        <time>2018-02-10T13:09:38Z</time>
      </trkpt>
      <trkpt lat="45.29987" lon="6.17429">
        <ele>1949.21</ele>
        <time>2018-02-10T13:09:40Z</time>
      </trkpt>
      <trkpt lat="45.29982" lon="6.17432">
        <ele>1947.29</ele>
        <time>2018-02-10T13:09:42Z</time>
      </trkpt>
      <trkpt lat="45.29979" lon="6.17433">
        <ele>1947.29</ele>
        <time>2018-02-10T13:09:43Z</time>
      </trkpt>
      <trkpt lat="45.29975" lon="6.17446">
        <ele>1942.48</ele>
        <time>2018-02-10T13:09:46Z</time>
      </trkpt>
      <trkpt lat="45.29973" lon="6.17454">
        <ele>1941.04</ele>
        <time>2018-02-10T13:09:48Z</time>
      </trkpt>
      <trkpt lat="45.29971" lon="6.1746">
        <ele>1940.56</ele>
        <time>2018-02-10T13:09:49Z</time>
      </trkpt>
      <trkpt lat="45.29963" lon="6.17473">
        <ele>1938.64</ele>
        <time>2018-02-10T13:09:57Z</time>
      </trkpt>
      <trkpt lat="45.29963" lon="6.17474">
        <ele>1939.12</ele>
        <time>2018-02-10T13:09:59Z</time>
      </trkpt>
      <trkpt lat="45.29961" lon="6.17489">
        <ele>1934.79</ele>
        <time>2018-02-10T13:10:03Z</time>
      </trkpt>
      <trkpt lat="45.29962" lon="6.17504">
        <ele>1930.46</ele>
        <time>2018-02-10T13:10:06Z</time>
      </trkpt>
      <trkpt lat="45.29962" lon="6.17503">
        <ele>1926.62</ele>
        <time>2018-02-10T13:10:10Z</time>
      </trkpt>
      <trkpt lat="45.29975" lon="6.17492">
        <ele>1926.62</ele>
        <time>2018-02-10T13:10:25Z</time>
      </trkpt>
      <trkpt lat="45.29982" lon="6.175">
        <ele>1923.74</ele>
        <time>2018-02-10T13:10:29Z</time>
      </trkpt>
      <trkpt lat="45.29984" lon="6.17507">
        <ele>1920.37</ele>
        <time>2018-02-10T13:10:33Z</time>
      </trkpt>
      <trkpt lat="45.29992" lon="6.17515">
        <ele>1917.49</ele>
        <time>2018-02-10T13:10:35Z</time>
      </trkpt>
      <trkpt lat="45.29995" lon="6.17526">
        <ele>1910.76</ele>
        <time>2018-02-10T13:10:39Z</time>
      </trkpt>
      <trkpt lat="45.29993" lon="6.17528">
        <ele>1910.76</ele>
        <time>2018-02-10T13:10:40Z</time>
      </trkpt>
      <trkpt lat="45.30008" lon="6.17519">
        <ele>1907.87</ele>
        <time>2018-02-10T13:10:44Z</time>
      </trkpt>
      <trkpt lat="45.30019" lon="6.17513">
        <ele>1909.32</ele>
        <time>2018-02-10T13:11:02Z</time>
      </trkpt>
      <trkpt lat="45.30018" lon="6.17515">
        <ele>1908.83</ele>
        <time>2018-02-10T13:11:04Z</time>
      </trkpt>
      <trkpt lat="45.30017" lon="6.17524">
        <ele>1904.99</ele>
        <time>2018-02-10T13:11:07Z</time>
      </trkpt>
      <trkpt lat="45.30016" lon="6.17536">
        <ele>1902.11</ele>
        <time>2018-02-10T13:11:13Z</time>
      </trkpt>
      <trkpt lat="45.30016" lon="6.17538">
        <ele>1900.18</ele>
        <time>2018-02-10T13:11:15Z</time>
      </trkpt>
      <trkpt lat="45.30027" lon="6.17544">
        <ele>1896.34</ele>
        <time>2018-02-10T13:11:19Z</time>
      </trkpt>
      <trkpt lat="45.30035" lon="6.17553">
        <ele>1892.01</ele>
        <time>2018-02-10T13:11:22Z</time>
      </trkpt>
      <trkpt lat="45.30038" lon="6.17555">
        <ele>1890.57</ele>
        <time>2018-02-10T13:11:23Z</time>
      </trkpt>
      <trkpt lat="45.30041" lon="6.17566">
        <ele>1886.72</ele>
        <time>2018-02-10T13:11:28Z</time>
      </trkpt>
      <trkpt lat="45.30041" lon="6.17578">
        <ele>1881.92</ele>
        <time>2018-02-10T13:11:31Z</time>
      </trkpt>
      <trkpt lat="45.30052" lon="6.17591">
        <ele>1876.63</ele>
        <time>2018-02-10T13:11:36Z</time>
      </trkpt>
      <trkpt lat="45.30053" lon="6.17591">
        <ele>1876.63</ele>
        <time>2018-02-10T13:11:37Z</time>
      </trkpt>
      <trkpt lat="45.30056" lon="6.17591">
        <ele>1876.63</ele>
        <time>2018-02-10T13:11:39Z</time>
      </trkpt>
      <trkpt lat="45.30047" lon="6.17596">
        <ele>1876.15</ele>
        <time>2018-02-10T13:11:52Z</time>
      </trkpt>
      <trkpt lat="45.30048" lon="6.17601">
        <ele>1876.15</ele>
        <time>2018-02-10T13:12:02Z</time>
      </trkpt>
      <trkpt lat="45.30049" lon="6.17611">
        <ele>1871.82</ele>
        <time>2018-02-10T13:12:07Z</time>
      </trkpt>
      <trkpt lat="45.30049" lon="6.17616">
        <ele>1871.82</ele>
        <time>2018-02-10T13:12:08Z</time>
      </trkpt>
      <trkpt lat="45.30049" lon="6.17622">
        <ele>1868.94</ele>
        <time>2018-02-10T13:12:10Z</time>
      </trkpt>
      <trkpt lat="45.30049" lon="6.17625">
        <ele>1866.06</ele>
        <time>2018-02-10T13:12:14Z</time>
      </trkpt>
      <trkpt lat="45.30049" lon="6.17635">
        <ele>1864.13</ele>
        <time>2018-02-10T13:12:16Z</time>
      </trkpt>
      <trkpt lat="45.30048" lon="6.17648">
        <ele>1860.29</ele>
        <time>2018-02-10T13:12:18Z</time>
      </trkpt>
      <trkpt lat="45.30049" lon="6.17648">
        <ele>1858.85</ele>
        <time>2018-02-10T13:12:20Z</time>
      </trkpt>
      <trkpt lat="45.30055" lon="6.17644">
        <ele>1856.92</ele>
        <time>2018-02-10T13:12:22Z</time>
      </trkpt>
      <trkpt lat="45.30059" lon="6.17652">
        <ele>1853.56</ele>
        <time>2018-02-10T13:12:27Z</time>
      </trkpt>
      <trkpt lat="45.30066" lon="6.1766">
        <ele>1852.6</ele>
        <time>2018-02-10T13:12:51Z</time>
      </trkpt>
      <trkpt lat="45.30066" lon="6.17664">
        <ele>1852.6</ele>
        <time>2018-02-10T13:12:52Z</time>
      </trkpt>
      <trkpt lat="45.30068" lon="6.17676">
        <ele>1849.23</ele>
        <time>2018-02-10T13:12:57Z</time>
      </trkpt>
      <trkpt lat="45.30068" lon="6.17679">
        <ele>1849.23</ele>
        <time>2018-02-10T13:12:58Z</time>
      </trkpt>
      <trkpt lat="45.30067" lon="6.17688">
        <ele>1847.79</ele>
        <time>2018-02-10T13:13:01Z</time>
      </trkpt>
      <trkpt lat="45.30065" lon="6.17711">
        <ele>1844.43</ele>
        <time>2018-02-10T13:13:08Z</time>
      </trkpt>
      <trkpt lat="45.30072" lon="6.17728">
        <ele>1839.14</ele>
        <time>2018-02-10T13:13:12Z</time>
      </trkpt>
      <trkpt lat="45.30071" lon="6.17744">
        <ele>1836.74</ele>
        <time>2018-02-10T13:13:17Z</time>
      </trkpt>
      <trkpt lat="45.30071" lon="6.1776">
        <ele>1833.85</ele>
        <time>2018-02-10T13:13:21Z</time>
      </trkpt>
      <trkpt lat="45.3007" lon="6.17776">
        <ele>1830.49</ele>
        <time>2018-02-10T13:13:25Z</time>
      </trkpt>
      <trkpt lat="45.3007" lon="6.17786">
        <ele>1829.53</ele>
        <time>2018-02-10T13:13:27Z</time>
      </trkpt>
      <trkpt lat="45.3007" lon="6.178">
        <ele>1826.16</ele>
        <time>2018-02-10T13:13:31Z</time>
      </trkpt>
      <trkpt lat="45.3007" lon="6.178">
        <ele>1826.64</ele>
        <time>2018-02-10T13:13:36Z</time>
      </trkpt>
      <trkpt lat="45.30077" lon="6.17798">
        <ele>1823.28</ele>
        <time>2018-02-10T13:13:41Z</time>
      </trkpt>
      <trkpt lat="45.30077" lon="6.1781">
        <ele>1819.91</ele>
        <time>2018-02-10T13:13:45Z</time>
      </trkpt>
      <trkpt lat="45.30076" lon="6.17823">
        <ele>1817.51</ele>
        <time>2018-02-10T13:13:49Z</time>
      </trkpt>
      <trkpt lat="45.30076" lon="6.17832">
        <ele>1812.7</ele>
        <time>2018-02-10T13:13:51Z</time>
      </trkpt>
      <trkpt lat="45.30074" lon="6.17851">
        <ele>1809.82</ele>
        <time>2018-02-10T13:13:54Z</time>
      </trkpt>
      <trkpt lat="45.30072" lon="6.17872">
        <ele>1806.45</ele>
        <time>2018-02-10T13:13:58Z</time>
      </trkpt>
      <trkpt lat="45.30075" lon="6.17873">
        <ele>1806.94</ele>
        <time>2018-02-10T13:14:07Z</time>
      </trkpt>
      <trkpt lat="45.30075" lon="6.17874">
        <ele>1806.45</ele>
        <time>2018-02-10T13:14:08Z</time>
      </trkpt>
      <trkpt lat="45.30082" lon="6.17866">
        <ele>1804.05</ele>
        <time>2018-02-10T13:14:14Z</time>
      </trkpt>
      <trkpt lat="45.30084" lon="6.17865">
        <ele>1802.61</ele>
        <time>2018-02-10T13:14:16Z</time>
      </trkpt>
      <trkpt lat="45.30085" lon="6.17875">
        <ele>1799.73</ele>
        <time>2018-02-10T13:14:19Z</time>
      </trkpt>
      <trkpt lat="45.30083" lon="6.17895">
        <ele>1795.88</ele>
        <time>2018-02-10T13:14:23Z</time>
      </trkpt>
      <trkpt lat="45.30082" lon="6.17899">
        <ele>1794.44</ele>
        <time>2018-02-10T13:14:24Z</time>
      </trkpt>
      <trkpt lat="45.3008" lon="6.17911">
        <ele>1793</ele>
        <time>2018-02-10T13:14:26Z</time>
      </trkpt>
      <trkpt lat="45.30076" lon="6.17923">
        <ele>1791.55</ele>
        <time>2018-02-10T13:14:33Z</time>
      </trkpt>
      <trkpt lat="45.30077" lon="6.17924">
        <ele>1791.55</ele>
        <time>2018-02-10T13:14:58Z</time>
      </trkpt>
      <trkpt lat="45.30077" lon="6.17926">
        <ele>1791.07</ele>
        <time>2018-02-10T13:15:02Z</time>
      </trkpt>
      <trkpt lat="45.30082" lon="6.17935">
        <ele>1787.71</ele>
        <time>2018-02-10T13:15:06Z</time>
      </trkpt>
      <trkpt lat="45.30082" lon="6.17949">
        <ele>1783.38</ele>
        <time>2018-02-10T13:15:10Z</time>
      </trkpt>
      <trkpt lat="45.30086" lon="6.17962">
        <ele>1778.1</ele>
        <time>2018-02-10T13:15:16Z</time>
      </trkpt>
      <trkpt lat="45.30082" lon="6.1797">
        <ele>1775.69</ele>
        <time>2018-02-10T13:15:18Z</time>
      </trkpt>
      <trkpt lat="45.30062" lon="6.18008">
        <ele>1770.41</ele>
        <time>2018-02-10T13:15:28Z</time>
      </trkpt>
      <trkpt lat="45.30054" lon="6.18027">
        <ele>1767.04</ele>
        <time>2018-02-10T13:15:31Z</time>
      </trkpt>
      <trkpt lat="45.30049" lon="6.18042">
        <ele>1763.68</ele>
        <time>2018-02-10T13:15:33Z</time>
      </trkpt>
      <trkpt lat="45.30038" lon="6.18068">
        <ele>1760.31</ele>
        <time>2018-02-10T13:15:38Z</time>
      </trkpt>
      <trkpt lat="45.30033" lon="6.18079">
        <ele>1759.35</ele>
        <time>2018-02-10T13:15:41Z</time>
      </trkpt>
      <trkpt lat="45.30027" lon="6.1809">
        <ele>1756.95</ele>
        <time>2018-02-10T13:15:43Z</time>
      </trkpt>
      <trkpt lat="45.30014" lon="6.18105">
        <ele>1753.1</ele>
        <time>2018-02-10T13:15:47Z</time>
      </trkpt>
      <trkpt lat="45.30012" lon="6.18107">
        <ele>1753.1</ele>
        <time>2018-02-10T13:15:48Z</time>
      </trkpt>
      <trkpt lat="45.30011" lon="6.18118">
        <ele>1749.74</ele>
        <time>2018-02-10T13:15:51Z</time>
      </trkpt>
      <trkpt lat="45.30013" lon="6.1813">
        <ele>1745.89</ele>
        <time>2018-02-10T13:15:54Z</time>
      </trkpt>
      <trkpt lat="45.30008" lon="6.18141">
        <ele>1743.49</ele>
        <time>2018-02-10T13:15:57Z</time>
      </trkpt>
      <trkpt lat="45.30006" lon="6.18147">
        <ele>1742.53</ele>
        <time>2018-02-10T13:15:58Z</time>
      </trkpt>
      <trkpt lat="45.3" lon="6.18152">
        <ele>1741.08</ele>
        <time>2018-02-10T13:16:05Z</time>
      </trkpt>
      <trkpt lat="45.3" lon="6.18152">
        <ele>1741.08</ele>
        <time>2018-02-10T13:16:08Z</time>
      </trkpt>
      <trkpt lat="45.29994" lon="6.18168">
        <ele>1738.68</ele>
        <time>2018-02-10T13:16:13Z</time>
      </trkpt>
      <trkpt lat="45.29989" lon="6.18189">
        <ele>1733.88</ele>
        <time>2018-02-10T13:16:16Z</time>
      </trkpt>
      <trkpt lat="45.29987" lon="6.182">
        <ele>1733.39</ele>
        <time>2018-02-10T13:16:18Z</time>
      </trkpt>
      <trkpt lat="45.29982" lon="6.18218">
        <ele>1731.47</ele>
        <time>2018-02-10T13:16:22Z</time>
      </trkpt>
      <trkpt lat="45.29974" lon="6.18235">
        <ele>1728.59</ele>
        <time>2018-02-10T13:16:26Z</time>
      </trkpt>
      <trkpt lat="45.29969" lon="6.18246">
        <ele>1726.18</ele>
        <time>2018-02-10T13:16:28Z</time>
      </trkpt>
      <trkpt lat="45.29964" lon="6.18263">
        <ele>1724.26</ele>
        <time>2018-02-10T13:16:31Z</time>
      </trkpt>
      <trkpt lat="45.29963" lon="6.18268">
        <ele>1723.78</ele>
        <time>2018-02-10T13:16:40Z</time>
      </trkpt>
      <trkpt lat="45.29962" lon="6.18268">
        <ele>1723.78</ele>
        <time>2018-02-10T13:16:58Z</time>
      </trkpt>
      <trkpt lat="45.29959" lon="6.18278">
        <ele>1722.82</ele>
        <time>2018-02-10T13:17:01Z</time>
      </trkpt>
      <trkpt lat="45.29953" lon="6.18294">
        <ele>1720.42</ele>
        <time>2018-02-10T13:17:04Z</time>
      </trkpt>
      <trkpt lat="45.2995" lon="6.18315">
        <ele>1716.57</ele>
        <time>2018-02-10T13:17:07Z</time>
      </trkpt>
      <trkpt lat="45.29949" lon="6.1832">
        <ele>1716.57</ele>
        <time>2018-02-10T13:17:08Z</time>
      </trkpt>
      <trkpt lat="45.2995" lon="6.18338">
        <ele>1713.69</ele>
        <time>2018-02-10T13:17:11Z</time>
      </trkpt>
      <trkpt lat="45.29952" lon="6.18356">
        <ele>1711.28</ele>
        <time>2018-02-10T13:17:15Z</time>
      </trkpt>
      <trkpt lat="45.29953" lon="6.18369">
        <ele>1708.88</ele>
        <time>2018-02-10T13:17:17Z</time>
      </trkpt>
      <trkpt lat="45.29951" lon="6.18386">
        <ele>1708.88</ele>
        <time>2018-02-10T13:17:25Z</time>
      </trkpt>
      <trkpt lat="45.29953" lon="6.18399">
        <ele>1706</ele>
        <time>2018-02-10T13:17:32Z</time>
      </trkpt>
      <trkpt lat="45.29952" lon="6.18419">
        <ele>1701.67</ele>
        <time>2018-02-10T13:17:35Z</time>
      </trkpt>
      <trkpt lat="45.29953" lon="6.18417">
        <ele>1701.19</ele>
        <time>2018-02-10T13:17:46Z</time>
      </trkpt>
      <trkpt lat="45.29953" lon="6.18414">
        <ele>1702.15</ele>
        <time>2018-02-10T13:18:09Z</time>
      </trkpt>
      <trkpt lat="45.29956" lon="6.18413">
        <ele>1702.63</ele>
        <time>2018-02-10T13:18:38Z</time>
      </trkpt>
      <trkpt lat="45.29955" lon="6.18418">
        <ele>1701.19</ele>
        <time>2018-02-10T13:21:09Z</time>
      </trkpt>
      <trkpt lat="45.29951" lon="6.18423">
        <ele>1700.71</ele>
        <time>2018-02-10T13:21:13Z</time>
      </trkpt>
      <trkpt lat="45.29942" lon="6.18438">
        <ele>1696.38</ele>
        <time>2018-02-10T13:21:20Z</time>
      </trkpt>
      <trkpt lat="45.29936" lon="6.18446">
        <ele>1693.98</ele>
        <time>2018-02-10T13:21:22Z</time>
      </trkpt>
      <trkpt lat="45.29929" lon="6.18456">
        <ele>1691.1</ele>
        <time>2018-02-10T13:21:24Z</time>
      </trkpt>
      <trkpt lat="45.29925" lon="6.18462">
        <ele>1692.06</ele>
        <time>2018-02-10T13:21:25Z</time>
      </trkpt>
      <trkpt lat="45.29925" lon="6.18469">
        <ele>1690.62</ele>
        <time>2018-02-10T13:21:26Z</time>
      </trkpt>
      <trkpt lat="45.29934" lon="6.18509">
        <ele>1686.77</ele>
        <time>2018-02-10T13:21:35Z</time>
      </trkpt>
      <trkpt lat="45.29933" lon="6.18531">
        <ele>1684.85</ele>
        <time>2018-02-10T13:21:39Z</time>
      </trkpt>
      <trkpt lat="45.29932" lon="6.18559">
        <ele>1681</ele>
        <time>2018-02-10T13:21:44Z</time>
      </trkpt>
      <trkpt lat="45.29932" lon="6.18575">
        <ele>1679.08</ele>
        <time>2018-02-10T13:21:51Z</time>
      </trkpt>
      <trkpt lat="45.29935" lon="6.18572">
        <ele>1679.56</ele>
        <time>2018-02-10T13:22:15Z</time>
      </trkpt>
      <trkpt lat="45.29934" lon="6.18576">
        <ele>1680.04</ele>
        <time>2018-02-10T13:22:47Z</time>
      </trkpt>
      <trkpt lat="45.29933" lon="6.18581">
        <ele>1679.56</ele>
        <time>2018-02-10T13:23:12Z</time>
      </trkpt>
      <trkpt lat="45.29933" lon="6.18583">
        <ele>1679.56</ele>
        <time>2018-02-10T13:23:20Z</time>
      </trkpt>
      <trkpt lat="45.29934" lon="6.18593">
        <ele>1677.16</ele>
        <time>2018-02-10T13:23:24Z</time>
      </trkpt>
      <trkpt lat="45.29934" lon="6.18617">
        <ele>1672.83</ele>
        <time>2018-02-10T13:23:29Z</time>
      </trkpt>
      <trkpt lat="45.29934" lon="6.18622">
        <ele>1672.83</ele>
        <time>2018-02-10T13:23:30Z</time>
      </trkpt>
      <trkpt lat="45.29932" lon="6.18639">
        <ele>1668.99</ele>
        <time>2018-02-10T13:23:40Z</time>
      </trkpt>
      <trkpt lat="45.2993" lon="6.18656">
        <ele>1666.58</ele>
        <time>2018-02-10T13:23:43Z</time>
      </trkpt>
      <trkpt lat="45.2993" lon="6.1866">
        <ele>1665.62</ele>
        <time>2018-02-10T13:23:44Z</time>
      </trkpt>
      <trkpt lat="45.29931" lon="6.1866">
        <ele>1666.1</ele>
        <time>2018-02-10T13:23:54Z</time>
      </trkpt>
      <trkpt lat="45.29932" lon="6.18661">
        <ele>1664.66</ele>
        <time>2018-02-10T13:23:56Z</time>
      </trkpt>
      <trkpt lat="45.29934" lon="6.18655">
        <ele>1662.74</ele>
        <time>2018-02-10T13:23:58Z</time>
      </trkpt>
      <trkpt lat="45.29944" lon="6.18628">
        <ele>1659.85</ele>
        <time>2018-02-10T13:24:10Z</time>
      </trkpt>
      <trkpt lat="45.29945" lon="6.18622">
        <ele>1659.85</ele>
        <time>2018-02-10T13:24:21Z</time>
      </trkpt>
      <trkpt lat="45.29944" lon="6.18631">
        <ele>1656.01</ele>
        <time>2018-02-10T13:24:25Z</time>
      </trkpt>
      <trkpt lat="45.29943" lon="6.18634">
        <ele>1656.01</ele>
        <time>2018-02-10T13:24:26Z</time>
      </trkpt>
      <trkpt lat="45.29943" lon="6.18637">
        <ele>1655.53</ele>
        <time>2018-02-10T13:24:27Z</time>
      </trkpt>
      <trkpt lat="45.29943" lon="6.18641">
        <ele>1654.57</ele>
        <time>2018-02-10T13:24:29Z</time>
      </trkpt>
      <trkpt lat="45.29946" lon="6.18642">
        <ele>1653.12</ele>
        <time>2018-02-10T13:24:31Z</time>
      </trkpt>
      <trkpt lat="45.29947" lon="6.18641">
        <ele>1652.16</ele>
        <time>2018-02-10T13:24:33Z</time>
      </trkpt>
      <trkpt lat="45.29948" lon="6.18653">
        <ele>1648.8</ele>
        <time>2018-02-10T13:24:37Z</time>
      </trkpt>
      <trkpt lat="45.29948" lon="6.18654">
        <ele>1648.8</ele>
        <time>2018-02-10T13:24:38Z</time>
      </trkpt>
      <trkpt lat="45.29951" lon="6.18668">
        <ele>1645.43</ele>
        <time>2018-02-10T13:24:46Z</time>
      </trkpt>
      <trkpt lat="45.29952" lon="6.18672">
        <ele>1645.43</ele>
        <time>2018-02-10T13:24:49Z</time>
      </trkpt>
      <trkpt lat="45.29956" lon="6.18669">
        <ele>1643.51</ele>
        <time>2018-02-10T13:24:52Z</time>
      </trkpt>
      <trkpt lat="45.29956" lon="6.18669">
        <ele>1643.03</ele>
        <time>2018-02-10T13:24:53Z</time>
      </trkpt>
      <trkpt lat="45.29956" lon="6.18672">
        <ele>1641.11</ele>
        <time>2018-02-10T13:24:54Z</time>
      </trkpt>
      <trkpt lat="45.29955" lon="6.18676">
        <ele>1639.67</ele>
        <time>2018-02-10T13:24:55Z</time>
      </trkpt>
      <trkpt lat="45.2995" lon="6.18688">
        <ele>1637.74</ele>
        <time>2018-02-10T13:25:04Z</time>
      </trkpt>
      <trkpt lat="45.29946" lon="6.18708">
        <ele>1634.38</ele>
        <time>2018-02-10T13:25:10Z</time>
      </trkpt>
      <trkpt lat="45.29947" lon="6.18714">
        <ele>1633.9</ele>
        <time>2018-02-10T13:25:21Z</time>
      </trkpt>
      <trkpt lat="45.29946" lon="6.18717">
        <ele>1632.94</ele>
        <time>2018-02-10T13:25:41Z</time>
      </trkpt>
      <trkpt lat="45.29945" lon="6.18722">
        <ele>1631.98</ele>
        <time>2018-02-10T13:25:45Z</time>
      </trkpt>
      <trkpt lat="45.29945" lon="6.18723">
        <ele>1631.01</ele>
        <time>2018-02-10T13:25:52Z</time>
      </trkpt>
      <trkpt lat="45.29942" lon="6.18728">
        <ele>1631.01</ele>
        <time>2018-02-10T13:26:03Z</time>
      </trkpt>
      <trkpt lat="45.29932" lon="6.18739">
        <ele>1629.09</ele>
        <time>2018-02-10T13:26:16Z</time>
      </trkpt>
      <trkpt lat="45.29927" lon="6.18744">
        <ele>1628.13</ele>
        <time>2018-02-10T13:26:18Z</time>
      </trkpt>
      <trkpt lat="45.29913" lon="6.18761">
        <ele>1623.32</ele>
        <time>2018-02-10T13:26:23Z</time>
      </trkpt>
      <trkpt lat="45.2992" lon="6.18761">
        <ele>1623.32</ele>
        <time>2018-02-10T13:26:32Z</time>
      </trkpt>
      <trkpt lat="45.29919" lon="6.18761">
        <ele>1622.84</ele>
        <time>2018-02-10T13:26:33Z</time>
      </trkpt>
      <trkpt lat="45.29919" lon="6.18774">
        <ele>1619.48</ele>
        <time>2018-02-10T13:26:37Z</time>
      </trkpt>
      <trkpt lat="45.29923" lon="6.18772">
        <ele>1617.56</ele>
        <time>2018-02-10T13:26:41Z</time>
      </trkpt>
      <trkpt lat="45.29923" lon="6.18777">
        <ele>1616.11</ele>
        <time>2018-02-10T13:26:44Z</time>
      </trkpt>
      <trkpt lat="45.29922" lon="6.18779">
        <ele>1616.11</ele>
        <time>2018-02-10T13:26:47Z</time>
      </trkpt>
      <trkpt lat="45.29923" lon="6.18787">
        <ele>1611.79</ele>
        <time>2018-02-10T13:26:52Z</time>
      </trkpt>
      <trkpt lat="45.29915" lon="6.18798">
        <ele>1608.42</ele>
        <time>2018-02-10T13:26:55Z</time>
      </trkpt>
      <trkpt lat="45.29911" lon="6.18804">
        <ele>1605.54</ele>
        <time>2018-02-10T13:26:56Z</time>
      </trkpt>
      <trkpt lat="45.29897" lon="6.18825">
        <ele>1603.14</ele>
        <time>2018-02-10T13:27:06Z</time>
      </trkpt>
      <trkpt lat="45.29899" lon="6.18824">
        <ele>1603.14</ele>
        <time>2018-02-10T13:27:15Z</time>
      </trkpt>
      <trkpt lat="45.29889" lon="6.18842">
        <ele>1599.29</ele>
        <time>2018-02-10T13:27:21Z</time>
      </trkpt>
      <trkpt lat="45.29877" lon="6.18859">
        <ele>1596.41</ele>
        <time>2018-02-10T13:27:29Z</time>
      </trkpt>
      <trkpt lat="45.29875" lon="6.18862">
        <ele>1596.41</ele>
        <time>2018-02-10T13:27:30Z</time>
      </trkpt>
      <trkpt lat="45.29871" lon="6.18882">
        <ele>1593.04</ele>
        <time>2018-02-10T13:27:37Z</time>
      </trkpt>
      <trkpt lat="45.29872" lon="6.18885">
        <ele>1591.12</ele>
        <time>2018-02-10T13:27:40Z</time>
      </trkpt>
      <trkpt lat="45.29873" lon="6.18883">
        <ele>1591.12</ele>
        <time>2018-02-10T13:27:44Z</time>
      </trkpt>
      <trkpt lat="45.29875" lon="6.18888">
        <ele>1587.27</ele>
        <time>2018-02-10T13:27:48Z</time>
      </trkpt>
      <trkpt lat="45.29875" lon="6.18893">
        <ele>1587.27</ele>
        <time>2018-02-10T13:27:53Z</time>
      </trkpt>
      <trkpt lat="45.29884" lon="6.18895">
        <ele>1582.95</ele>
        <time>2018-02-10T13:27:58Z</time>
      </trkpt>
      <trkpt lat="45.29888" lon="6.189">
        <ele>1578.62</ele>
        <time>2018-02-10T13:28:02Z</time>
      </trkpt>
      <trkpt lat="45.29889" lon="6.189">
        <ele>1579.1</ele>
        <time>2018-02-10T13:28:03Z</time>
      </trkpt>
      <trkpt lat="45.29886" lon="6.1891">
        <ele>1574.78</ele>
        <time>2018-02-10T13:28:06Z</time>
      </trkpt>
      <trkpt lat="45.29881" lon="6.18919">
        <ele>1571.89</ele>
        <time>2018-02-10T13:28:08Z</time>
      </trkpt>
      <trkpt lat="45.29878" lon="6.18924">
        <ele>1571.41</ele>
        <time>2018-02-10T13:28:09Z</time>
      </trkpt>
      <trkpt lat="45.29876" lon="6.1893">
        <ele>1569.97</ele>
        <time>2018-02-10T13:28:10Z</time>
      </trkpt>
      <trkpt lat="45.29869" lon="6.18953">
        <ele>1568.05</ele>
        <time>2018-02-10T13:28:15Z</time>
      </trkpt>
      <trkpt lat="45.29867" lon="6.18965">
        <ele>1567.09</ele>
        <time>2018-02-10T13:28:17Z</time>
      </trkpt>
      <trkpt lat="45.29864" lon="6.18991">
        <ele>1562.76</ele>
        <time>2018-02-10T13:28:21Z</time>
      </trkpt>
      <trkpt lat="45.29863" lon="6.19006">
        <ele>1561.8</ele>
        <time>2018-02-10T13:28:25Z</time>
      </trkpt>
      <trkpt lat="45.29867" lon="6.19012">
        <ele>1562.76</ele>
        <time>2018-02-10T13:28:38Z</time>
      </trkpt>
      <trkpt lat="45.29864" lon="6.19029">
        <ele>1559.4</ele>
        <time>2018-02-10T13:28:43Z</time>
      </trkpt>
      <trkpt lat="45.2986" lon="6.19042">
        <ele>1557.95</ele>
        <time>2018-02-10T13:28:46Z</time>
      </trkpt>
      <trkpt lat="45.29855" lon="6.19059">
        <ele>1556.03</ele>
        <time>2018-02-10T13:28:50Z</time>
      </trkpt>
      <trkpt lat="45.29847" lon="6.19082">
        <ele>1552.19</ele>
        <time>2018-02-10T13:28:54Z</time>
      </trkpt>
      <trkpt lat="45.29841" lon="6.19106">
        <ele>1548.34</ele>
        <time>2018-02-10T13:28:58Z</time>
      </trkpt>
      <trkpt lat="45.29838" lon="6.19121">
        <ele>1546.42</ele>
        <time>2018-02-10T13:29:01Z</time>
      </trkpt>
      <trkpt lat="45.29834" lon="6.19136">
        <ele>1544.98</ele>
        <time>2018-02-10T13:29:04Z</time>
      </trkpt>
      <trkpt lat="45.29833" lon="6.19153">
        <ele>1542.57</ele>
        <time>2018-02-10T13:29:07Z</time>
      </trkpt>
      <trkpt lat="45.29832" lon="6.19159">
        <ele>1541.61</ele>
        <time>2018-02-10T13:29:08Z</time>
      </trkpt>
      <trkpt lat="45.29831" lon="6.19165">
        <ele>1539.21</ele>
        <time>2018-02-10T13:29:09Z</time>
      </trkpt>
      <trkpt lat="45.29828" lon="6.19178">
        <ele>1538.73</ele>
        <time>2018-02-10T13:29:12Z</time>
      </trkpt>
      <trkpt lat="45.29827" lon="6.19182">
        <ele>1537.77</ele>
        <time>2018-02-10T13:29:13Z</time>
      </trkpt>
      <trkpt lat="45.29827" lon="6.19185">
        <ele>1537.29</ele>
        <time>2018-02-10T13:29:14Z</time>
      </trkpt>
      <trkpt lat="45.29827" lon="6.19183">
        <ele>1538.25</ele>
        <time>2018-02-10T13:29:27Z</time>
      </trkpt>
    </trkseg>
  </trk>
</gpx>